[[{"header":{"parameterUnit":"m.s-1","parameterCategory":1,"la1":30.6,"la2":29.2853,"lo1":-89.7004,"lo2":-87.6739,"dy":0.0162,"dx":0.0183,"nx":112,"ny":82,"refTime":"2024-09-26T12:00:00:Z","depth":0,"parameterNumber":2,"parameterNumberName":"U-component_of_WINDS"},"data":[0.0,0.0,0.0,0.0,0.0,0.0,0.0,0.0,0.0,0.0,0.0,0.0,0.0,0.0,0.0,0.0,0.0,0.0,0.0,0.0,0.0,0.0,0.0,0.0,0.0,0.0,0.0,0.0,0.0,0.0,0.0,0.0,0.0,0.0,0.0,0.0,0.0,0.0,0.0,0.0,0.0,0.0,0.0,0.0,0.0,0.0,0.0,0.0,0.0,0.0,0.0,0.0,0.0,0.0,0.0,0.0,0.0,0.0,0.0,0.0,0.0,0.0,0.0,0.0,0.0,0.0,0.0,0.0,0.0,0.0,0.0,0.0,0.0,0.0,0.0,0.0,0.0,0.0,0.0,0.0,0.0,0.0,0.0,0.0,0.0,0.0,0.0,0.0,0.0,0.0,-1.2386,-1.3227,-1.4048,-1.4482,-1.4367,-1.37,-1.2938,-1.2159,0.0,0.0,0.0,0.0,0.0,0.0,0.0,0.0,0.0,0.0,0.0,0.0,0.0,0.0,0.0,0.0,0.0,0.0,0.0,0.0,0.0,0.0,0.0,0.0,0.0,0.0,0.0,0.0,0.0,0.0,0.0,0.0,0.0,0.0,0.0,0.0,0.0,0.0,0.0,0.0,0.0,0.0,0.0,0.0,0.0,0.0,0.0,0.0,0.0,0.0,0.0,0.0,0.0,0.0,0.0,0.0,0.0,0.0,0.0,0.0,0.0,0.0,0.0,0.0,0.0,0.0,0.0,0.0,0.0,0.0,0.0,0.0,0.0,0.0,0.0,0.0,0.0,0.0,0.0,0.0,0.0,0.0,0.0,0.0,0.0,0.0,0.0,0.0,0.0,0.0,0.0,0.0,0.0,0.0,0.0,0.0,0.0,0.0,0.0,0.0,0.0,0.0,0.0,0.0,-1.2556,-1.3666,-1.436,-1.4557,-1.4407,-1.0631,-0.8169,-0.7998,0.0,0.0,0.0,0.0,0.0,0.0,0.0,0.0,0.0,0.0,0.0,0.0,0.0,0.0,0.0,0.0,0.0,0.0,0.0,0.0,0.0,0.0,0.0,0.0,0.0,0.0,0.0,0.0,0.0,0.0,0.0,0.0,0.0,0.0,0.0,0.0,0.0,0.0,0.0,0.0,0.0,0.0,0.0,0.0,0.0,0.0,0.0,0.0,0.0,0.0,0.0,0.0,0.0,0.0,0.0,0.0,0.0,0.0,0.0,0.0,0.0,0.0,0.0,0.0,0.0,0.0,0.0,0.0,0.0,0.0,0.0,0.0,0.0,0.0,0.0,0.0,0.0,0.0,0.0,0.0,0.0,0.0,0.0,0.0,0.0,0.0,0.0,0.0,0.0,0.0,0.0,0.0,0.0,0.0,0.0,0.0,0.0,0.0,0.0,0.0,0.0,0.0,0.0,-1.0964,-1.215,-1.048,-1.0675,-1.1837,-1.4563,-1.2397,-0.9947,-0.7337,-1.1051,0.0,0.0,0.0,0.0,0.0,0.0,0.0,0.0,0.0,0.0,0.0,0.0,0.0,0.0,0.0,0.0,0.0,0.0,0.0,0.0,0.0,0.0,0.0,0.0,0.0,0.0,0.0,0.0,0.0,0.0,0.0,0.0,0.0,0.0,0.0,0.0,0.0,0.0,0.0,0.0,0.0,0.0,0.0,0.0,0.0,0.0,0.0,0.0,0.0,0.0,0.0,0.0,0.0,0.0,0.0,0.0,0.0,0.0,0.0,0.0,0.0,0.0,0.0,0.0,0.0,0.0,0.0,0.0,0.0,0.0,0.0,0.0,0.0,0.0,0.0,0.0,0.0,0.0,0.0,0.0,0.0,0.0,0.0,0.0,0.0,0.0,0.0,0.0,0.0,0.0,0.0,0.0,0.0,0.0,0.0,0.0,0.0,0.0,0.0,0.0,0.0,0.0,-0.8627,-0.9948,-0.8836,-0.7077,-0.7446,-1.1267,-1.1251,-0.9332,-0.5714,-0.7977,0.0,0.0,0.0,0.0,0.0,0.0,0.0,0.0,0.0,0.0,0.0,0.0,0.0,0.0,0.0,0.0,0.0,0.0,0.0,0.0,0.0,0.0,0.0,0.0,0.0,0.0,0.0,0.0,0.0,0.0,0.0,0.0,0.0,0.0,0.0,0.0,0.0,0.0,0.0,0.0,0.0,0.0,0.0,0.0,0.0,0.0,0.0,0.0,0.0,0.0,0.0,0.0,0.0,0.0,0.0,0.0,0.0,0.0,0.0,0.0,0.0,0.0,0.0,0.0,0.0,0.0,0.0,0.0,0.0,0.0,0.0,0.0,0.0,0.0,0.0,0.0,0.0,0.0,0.0,0.0,0.0,0.0,0.0,0.0,0.0,0.0,0.0,0.0,0.0,0.0,0.0,0.0,0.0,0.0,0.0,0.0,0.0,0.0,0.0,0.0,0.0,0.0,-0.2855,-0.4244,-1.28,-0.5801,-0.0724,-0.1064,-0.1011,-0.0799,-0.0456,-0.0706,0.0,0.0,0.0,0.0,0.0,0.0,0.0,0.0,0.0,0.0,0.0,0.0,0.0,0.0,0.0,0.0,0.0,0.0,0.0,0.0,0.0,0.0,0.0,0.0,0.0,0.0,0.0,0.0,0.0,0.0,0.0,0.0,0.0,0.0,0.0,0.0,0.0,0.0,0.0,0.0,0.0,0.0,0.0,0.0,0.0,0.0,0.0,0.0,0.0,0.0,0.0,0.0,0.0,0.0,0.0,0.0,0.0,0.0,0.0,0.0,0.0,0.0,0.0,0.0,0.0,0.0,0.0,0.0,0.0,0.0,0.0,0.0,0.0,0.0,0.0,0.0,0.0,0.0,0.0,0.0,0.0,0.0,0.0,0.0,0.0,0.0,0.0,0.0,0.0,0.0,0.0,0.0,0.0,0.0,0.0,0.0,0.0,0.0,0.0,0.0,0.0,0.0,-0.0822,-0.1378,-0.5008,-0.2162,-0.0,-0.0,-0.0,-0.0,-0.0,0.0,0.0,0.0,0.0,0.0,0.0,0.0,0.0,0.0,0.0,0.0,0.0,0.0,0.0,0.0,0.0,0.0,0.0,0.0,0.0,0.0,0.0,0.0,0.0,0.0,0.0,0.0,0.0,0.0,0.0,0.0,0.0,0.0,0.0,0.0,0.0,0.0,0.0,0.0,0.0,0.0,0.0,0.0,0.0,0.0,0.0,0.0,0.0,0.0,0.0,0.0,0.0,0.0,0.0,0.0,0.0,0.0,0.0,0.0,0.0,0.0,0.0,0.0,0.0,0.0,0.0,0.0,0.0,0.0,0.0,0.0,0.0,0.0,0.0,0.0,0.0,0.0,0.0,0.0,0.0,0.0,0.0,0.0,0.0,0.0,0.0,0.0,0.0,0.0,0.0,0.0,0.0,0.0,0.0,0.0,0.0,0.0,0.0,0.0,0.0,0.0,0.0,-0.0622,-0.0,-0.0,-0.0,-0.0,-0.0,-0.0,-0.0,-0.0,-0.0,0.0,0.0,0.0,0.0,0.0,0.0,0.0,0.0,0.0,0.0,0.0,0.0,0.0,0.0,0.0,0.0,0.0,0.0,0.0,0.0,0.0,0.0,0.0,0.0,0.0,0.0,0.0,0.0,0.0,0.0,0.0,0.0,0.0,0.0,0.0,0.0,0.0,0.0,0.0,0.0,0.0,0.0,0.0,0.0,0.0,0.0,0.0,0.0,0.0,0.0,0.0,0.0,0.0,0.0,0.0,0.0,0.0,0.0,0.0,0.0,0.0,0.0,0.0,0.0,0.0,0.0,0.0,0.0,0.0,0.0,0.0,0.0,0.0,0.0,0.0,0.0,0.0,0.0,0.0,0.0,0.0,0.0,0.0,0.0,0.0,0.0,0.0,0.0,0.0,0.0,0.0,0.0,0.0,0.0,0.0,0.0,0.0,0.0,0.0,0.0,0.0,0.0,-0.0,-0.0,-0.0,-0.0,-0.0,-0.0,-0.0,-0.0,-0.0,0.0,0.0,0.0,0.0,0.0,0.0,0.0,0.0,0.0,0.0,0.0,0.0,0.0,0.0,0.0,0.0,0.0,0.0,0.0,0.0,0.0,0.0,0.0,0.0,0.0,0.0,0.0,0.0,0.0,0.0,0.0,0.0,0.0,0.0,0.0,0.0,0.0,0.0,0.0,0.0,0.0,0.0,0.0,0.0,0.0,0.0,0.0,0.0,0.0,0.0,0.0,0.0,0.0,0.0,0.0,0.0,0.0,0.0,0.0,0.0,0.0,0.0,0.0,0.0,0.0,0.0,0.0,0.0,0.0,0.0,0.0,0.0,0.0,0.0,0.0,0.0,0.0,0.0,0.0,0.0,0.0,0.0,0.0,0.0,0.0,0.0,0.0,0.0,0.0,0.0,0.0,0.0,0.0,0.0,0.0,0.0,0.0,0.0,0.0,0.0,0.0,0.0,0.0,-0.0,-0.0,-0.0,-0.0,-0.0,-0.0,-0.0,-0.0,-0.0,-0.0,0.0,0.0,0.0,0.0,0.0,0.0,0.0,0.0,0.0,0.0,0.0,0.0,0.0,0.0,0.0,0.0,0.0,0.0,0.0,0.0,0.0,0.0,0.0,0.0,0.0,0.0,0.0,0.0,0.0,0.0,0.0,0.0,0.0,0.0,0.0,0.0,0.0,0.0,0.0,0.0,0.0,0.0,0.0,0.0,0.0,0.0,0.0,0.0,0.0,0.0,0.0,0.0,0.0,0.0,0.0,0.0,0.0,0.0,0.0,0.0,0.0,0.0,0.0,0.0,0.0,0.0,0.0,0.0,0.0,0.0,0.0,0.0,0.0,0.0,0.0,0.0,0.0,0.0,0.0,0.0,0.0,0.0,0.0,0.0,0.0,0.0,0.0,0.0,0.0,0.0,0.0,0.0,0.0,0.0,0.0,0.0,0.0,0.0,0.0,0.0,0.0,0.0,-0.0,-0.0,-0.0,-0.0,-0.0,-0.0,-0.0,-0.0,-0.0,-0.0,0.0,0.0,0.0,0.0,0.0,0.0,0.0,0.0,0.0,0.0,0.0,0.0,0.0,0.0,0.0,0.0,0.0,0.0,0.0,0.0,0.0,0.0,0.0,0.0,0.0,0.0,0.0,0.0,0.0,0.0,0.0,0.0,0.0,0.0,0.0,0.0,0.0,0.0,0.0,0.0,0.0,0.0,0.0,0.0,0.0,0.0,0.0,0.0,0.0,0.0,0.0,0.0,0.0,0.0,0.0,0.0,0.0,0.0,0.0,0.0,0.0,0.0,0.0,0.0,0.0,0.0,0.0,0.0,0.0,0.0,0.0,0.0,0.0,0.0,0.0,0.0,0.0,0.0,0.0,0.0,0.0,0.0,0.0,0.0,0.0,0.0,0.0,0.0,0.0,0.0,0.0,0.0,0.0,0.0,0.0,0.0,0.0,0.0,0.0,0.0,0.0,0.0,-0.0,-0.0,-0.0,-0.0,-0.0,-0.0,-0.0,-0.0,-0.0,-0.0,0.0,0.0,0.0,0.0,0.0,0.0,0.0,0.0,0.0,0.0,0.0,0.0,0.0,0.0,0.0,0.0,0.0,0.0,0.0,0.0,0.0,0.0,0.0,0.0,0.0,0.0,0.0,0.0,0.0,0.0,0.0,0.0,0.0,0.0,0.0,0.0,0.0,0.0,0.0,0.0,0.0,0.0,0.0,0.0,0.0,0.0,0.0,0.0,0.0,0.0,0.0,0.0,0.0,0.0,0.0,0.0,0.0,0.0,0.0,0.0,1.0333,0.9832,0.0,0.0,0.0,0.0,0.0,0.0,0.0,0.0,0.0,0.0,0.0,0.0,0.0,0.0,0.0,0.0,0.0,0.0,0.0,0.0,0.0,0.0,0.0,0.0,0.0,0.0,0.0,0.0,0.0,0.0,0.0,0.0,0.0,0.0,0.0,0.0,0.0,0.0,0.0,0.0,-0.0,-0.0,-0.0,-0.0,-0.0,-0.0,-0.0,-0.0,-0.0,-0.0,-0.0,0.0,0.0,0.0,0.0,0.0,0.0,0.0,0.0,0.0,0.0,0.0,0.0,0.0,0.0,0.0,0.0,0.0,0.0,0.0,0.0,0.0,0.0,0.0,0.0,0.0,0.0,0.0,0.0,0.0,0.0,0.0,0.0,0.0,0.0,0.0,0.0,0.0,0.0,0.0,0.0,0.0,0.0,0.0,0.0,0.0,0.0,0.0,0.0,0.0,0.0,0.0,0.0,0.0,0.0,0.0,0.0,0.0,0.0,0.0,1.1741,1.133,0.0,0.0,0.0,0.0,0.0,0.0,0.0,0.0,0.0,0.0,0.0,0.0,0.0,0.0,0.0,0.0,0.0,0.0,0.0,0.0,0.0,0.0,0.0,0.0,0.0,0.0,0.0,0.0,0.0,0.0,0.0,0.0,0.0,0.0,0.0,0.0,0.0,0.0,0.0,0.0,-0.0,-0.0,-0.0,-0.0,-0.0,-0.0,-0.0,-0.0,-0.0,-0.0,-0.0,0.0,0.0,0.0,0.0,0.0,0.0,0.0,0.0,0.0,0.0,0.0,0.0,0.0,0.0,0.0,0.0,0.0,0.0,0.0,0.0,0.0,0.0,0.0,0.0,0.0,0.0,0.0,0.0,0.0,0.0,0.0,0.0,0.0,0.0,0.0,0.0,0.0,0.0,0.0,0.0,0.0,0.0,0.0,0.0,0.0,0.0,0.0,0.0,0.0,0.0,0.0,0.0,0.0,1.2338,1.244,1.2413,1.244,1.2583,1.2786,1.2298,1.2033,1.1904,1.1094,0.0,0.0,0.0,0.0,0.0,0.0,0.0,0.0,0.0,0.0,0.0,0.0,0.0,0.0,0.0,0.0,0.0,0.0,0.0,0.0,0.0,0.0,-0.0,-0.0,-0.0,-0.0,-0.0,0.0,0.0,0.0,0.0,0.0,0.0,0.0,0.0,0.0,0.0,0.0,-0.0,-0.0,-0.0,-0.0,-0.0,-0.0,-0.0,-0.0,-0.0,-0.0,-0.0,-0.0,0.0,0.0,0.0,0.0,0.0,0.0,0.0,0.0,0.0,0.0,0.0,0.0,0.0,0.0,0.0,0.0,0.0,0.0,0.0,0.0,0.0,0.0,0.0,0.0,0.0,0.0,0.0,0.0,0.0,0.0,0.0,0.0,1.1314,1.1511,0.0,0.0,0.0,0.0,0.0,0.0,0.0,0.0,0.0,0.0,0.0,0.0,0.0,1.2196,1.2352,1.2915,1.3193,1.32,1.3743,1.3933,1.381,1.3946,1.4027,1.4061,1.398,0.0,1.2386,1.2054,0.0,0.0,0.0,0.0,0.0,0.0,0.0,0.0,0.0,0.0,0.0,0.0,0.0,0.0,0.0,0.0,0.0,0.0,0.0,0.0,0.0,0.0,-0.0,-0.0,-0.0,-0.0,-0.0,-0.0,-0.0,-0.0,-0.0,-0.0,0.0,0.0,0.0,0.0,0.0,0.0,-0.0,-0.0,-0.0,-0.0,-0.0,-0.0,-0.0,-0.0,-0.0,-0.0,-0.0,-0.0,-0.0,-0.0,0.0,0.0,0.0,0.0,0.0,0.0,0.0,0.0,0.0,0.0,0.0,0.0,0.0,0.0,0.0,0.0,0.0,0.0,0.0,0.0,0.0,0.0,0.0,0.0,0.0,0.0,0.0,0.0,0.0,1.1274,1.1633,1.1619,1.1558,1.1396,0.0,0.0,0.0,0.0,0.0,0.0,0.0,0.0,0.0,1.28,1.2963,1.3193,1.3512,1.3851,1.4109,1.4285,1.4462,1.4557,1.4577,1.4557,1.455,1.455,1.455,1.4197,1.3587,1.3037,1.2589,1.2216,0.0,0.0,0.0,0.0,1.0866,0.994,1.0468,0.9423,0.7937,0.9231,0.0,0.0,0.0,0.0,0.0,0.0,0.0,0.4229,0.4335,0.2196,-0.0,-0.0,-0.0,-0.0,-0.0,-0.0,-0.0,-0.0,-0.0,-0.0,-0.0,-0.0,0.0,0.0,0.0,-0.0,-0.0,-0.0,-0.0,-0.0,-0.0,-0.0,-0.0,-0.0,-0.0,-0.0,-0.0,-0.0,-0.0,-0.0,-0.0,0.0,0.0,0.0,0.0,0.0,0.0,0.0,0.0,0.0,0.0,0.0,0.0,0.0,0.0,0.0,0.0,0.0,0.0,0.0,0.0,0.0,0.0,0.0,0.0,0.0,0.0,0.0,0.0,1.1728,1.1979,1.1762,1.1898,1.1809,0.0,0.0,0.0,0.0,0.0,0.0,1.2827,1.299,1.3295,1.379,1.3946,1.4204,1.4584,1.4726,1.4916,1.514,1.5025,1.5031,1.514,1.5025,1.497,1.497,1.497,1.4882,1.4685,1.3939,1.341,1.3051,1.2786,1.2617,1.2549,1.2628,1.2675,1.2854,1.361,1.3923,1.3278,0.984,0.8545,0.9154,1.2466,0.0,0.0,0.0,0.0,0.9399,0.9521,0.6838,0.3605,0.2379,0.2043,0.2069,0.2085,0.2076,0.1659,0.0346,-0.0,-0.0,-0.0,-0.0,0.0,-0.0,-0.0,-0.0,-0.0,-0.0,-0.0,-0.0,-0.0,-0.0,-0.0,-0.0,-0.0,-0.0,-0.0,-0.0,-0.0,-0.0,-0.0,-0.0,0.0,0.0,0.0,0.0,0.0,0.0,0.0,0.0,0.0,0.0,0.0,0.0,0.0,0.0,0.0,0.0,0.0,0.0,0.0,0.0,0.0,0.0,0.0,0.0,0.0,0.0,0.0,0.0,0.0,1.2094,1.2664,0.0,0.0,0.0,0.0,1.2651,1.282,1.3166,1.3743,1.3919,1.4278,1.4875,1.5031,1.5187,1.535,1.5506,1.5588,1.5608,1.5594,1.5601,1.5608,1.5594,1.5594,1.5594,1.5594,1.5506,1.5309,1.4563,1.4156,1.3987,1.3824,1.3756,1.3749,1.377,1.3865,1.3987,1.4027,1.4235,1.4304,1.4011,1.3647,1.3431,1.3686,1.3732,0.0,0.0,1.4274,1.4359,1.4668,1.4903,1.3511,0.8719,0.7687,0.7599,0.7602,0.7599,0.6164,0.0928,-0.0,-0.0,-0.0,0.0,-0.0,-0.0,-0.0,-0.0,-0.0,-0.0,-0.0,-0.0,-0.0,-0.0,-0.0,-0.0,-0.0,-0.0,-0.0,-0.0,-0.0,-0.0,-0.0,-0.0,-0.0,0.0,0.0,0.0,0.0,0.0,0.0,0.0,0.0,0.0,0.0,0.0,0.0,0.0,0.0,0.0,0.0,0.0,0.0,0.0,0.0,0.0,0.0,0.0,0.0,0.0,0.0,0.0,0.0,1.2793,1.3186,0.0,1.2698,1.2996,1.3288,1.3431,1.3858,1.4278,1.4685,1.4848,1.5079,1.5391,1.5452,1.5547,1.5696,1.5655,1.5737,1.592,1.573,1.5689,1.5771,1.5683,1.5642,1.5642,1.5642,1.5608,1.554,1.5269,1.5011,1.478,1.4726,1.4706,1.4692,1.4604,1.4658,1.476,1.457,1.4577,1.4652,1.4557,1.4292,1.4187,1.4174,1.4305,1.4478,1.4465,1.4771,1.4901,1.5004,1.532,1.5017,1.3447,1.3205,1.3171,1.3251,1.3268,1.2623,1.0703,0.7626,0.5213,0.5077,0.5065,0.3794,0.0537,-0.0,-0.0,-0.0,-0.0,-0.0,-0.0,-0.0,-0.0,-0.0,-0.0,-0.0,-0.0,-0.0,-0.0,-0.0,-0.0,-0.0,-0.0,-0.0,-0.0,0.0,0.0,0.0,0.0,0.0,0.0,0.0,0.0,0.0,0.0,0.0,0.0,0.0,0.0,0.0,0.0,0.0,0.0,0.0,0.0,0.0,0.0,0.0,0.0,0.0,1.3071,1.3437,1.3336,1.3817,1.396,1.3464,1.3858,1.4211,1.436,1.474,1.5092,1.5391,1.5506,1.5628,1.5784,1.5791,1.5832,1.5927,1.5839,1.5886,1.6083,1.5879,1.5839,1.5927,1.5832,1.5791,1.5791,1.5791,1.5791,1.5791,1.5791,1.5669,1.5472,1.5377,1.5337,1.5323,1.5228,1.5255,1.5309,1.5113,1.5113,1.5153,1.4896,1.4719,1.459,1.4543,1.459,1.4665,1.4665,1.4889,1.512,1.512,1.5357,1.5594,1.5794,1.5932,1.6089,1.6192,1.6015,1.6015,1.6015,1.3217,1.0642,1.078,1.0606,0.9278,0.5787,0.3755,0.1895,0.0191,-0.0,-0.0,-0.0,-0.0,-0.0,-0.0,-0.0,-0.0,-0.0,-0.0,-0.0,-0.0,-0.0,-0.0,-0.0,-0.0,-0.0,-0.0,0.0,0.0,0.0,0.0,0.0,0.0,0.0,0.0,0.0,0.0,0.0,0.0,0.0,0.0,0.0,0.0,0.0,0.0,0.0,0.0,0.0,0.0,0.0,1.3024,1.3634,1.4,1.3715,1.4577,1.497,1.4394,1.4862,1.5262,1.5411,1.5432,1.556,1.5845,1.5859,1.5927,1.6076,1.6083,1.6083,1.6083,1.6083,1.6083,1.6083,1.6083,1.6083,1.6083,1.6083,1.6083,1.6083,1.6083,1.6083,1.6083,1.6083,1.6083,1.6056,1.5764,1.5655,1.5649,1.5649,1.5642,1.5642,1.5642,1.5642,1.5615,1.5459,1.5309,1.516,1.5018,1.4977,1.4977,1.4977,1.5187,1.5411,1.5411,1.5628,1.5852,1.5852,1.5967,1.6083,1.6083,1.6083,1.6083,1.6083,1.6029,1.6131,1.6182,1.6154,1.5952,1.5744,1.1269,0.0,0.1157,0.0191,-0.0,-0.0,-0.0,-0.0,-0.0,-0.0,-0.0,-0.0,-0.0,-0.0,-0.0,-0.0,-0.0,-0.0,-0.0,-0.0,-0.0,0.0,0.0,0.0,0.0,0.0,0.0,0.0,0.0,0.0,0.0,0.0,0.0,0.0,0.0,0.0,0.0,0.0,0.0,0.0,0.0,0.0,1.3526,1.3973,1.3939,1.4387,1.4774,1.4903,1.5269,1.5452,1.5289,1.5513,1.5683,1.573,1.5832,1.5934,1.6015,1.6022,1.6035,1.6083,1.6083,1.6083,1.6083,1.6083,1.6083,1.6083,1.6083,1.6083,1.6083,1.6083,1.6083,1.6083,1.6083,1.6083,1.6083,1.6083,1.6083,1.6076,1.5995,1.5961,1.5947,1.5832,1.573,1.5655,1.5757,1.5723,1.5615,1.5459,1.5384,1.5316,1.5167,1.5126,1.5126,1.5126,1.5262,1.5411,1.5411,1.5628,1.5852,1.5852,1.5967,1.6083,1.6083,1.6083,1.6083,1.6083,1.6069,1.6042,1.6199,1.6096,1.5993,1.5723,1.4391,1.2718,1.1131,0.4573,-0.0,-0.0,-0.0,-0.0,-0.0,-0.0,-0.0,-0.0,-0.0,-0.0,-0.0,-0.0,-0.0,-0.0,-0.0,-0.0,0.0,0.0,0.0,0.0,0.0,0.0,0.0,0.0,0.0,0.0,0.0,0.0,0.0,0.0,0.0,0.0,0.0,0.0,0.0,0.0,0.0,0.0,1.4312,1.4808,1.4936,1.5126,1.5337,1.5567,1.573,1.5825,1.5825,1.59,1.5947,1.5947,1.6029,1.6083,1.6083,1.6083,1.6083,1.6083,1.6083,1.611,1.6178,1.6178,1.6205,1.6266,1.6266,1.6232,1.6178,1.6178,1.6144,1.6083,1.6083,1.6083,1.6083,1.6083,1.6083,1.6083,0.0,0.0,0.0,0.0,1.59,1.5839,1.592,1.5893,1.5791,1.5574,1.5506,1.5466,1.5248,1.5181,1.5181,1.5181,1.5337,1.5506,1.5506,1.573,1.5947,1.5947,1.6015,1.6083,1.6083,1.6029,1.6001,1.6069,1.6029,0.0,1.6069,1.6008,1.5906,1.5778,1.5635,1.5506,1.5411,0.8196,0.228,0.019,-0.0,-0.0,-0.0,-0.0,0.0,0.0,0.0,-0.0,-0.0,-0.0,0.0,0.0,0.0,0.0,0.0,-0.0,0.0,0.0,-0.0,-0.0,0.0,0.0,0.0,0.0,0.0,0.0,0.0,0.0,0.0,0.0,0.0,0.0,0.0,0.0,0.0,0.0,1.5079,1.5567,1.5866,1.5798,1.5757,1.5866,1.6001,1.609,1.6103,1.611,1.611,1.613,1.613,1.613,1.613,1.613,0.0,0.0,0.0,1.6198,1.6334,1.6334,1.6395,1.6524,1.6524,1.6456,1.6334,1.6334,1.6259,1.613,1.613,1.6123,1.611,1.611,1.6096,1.6083,1.6083,1.6083,1.6083,1.6083,1.6083,1.6083,1.6083,0.0,0.0,1.5737,1.5642,1.5581,1.5276,1.5181,1.5181,1.5181,1.5391,1.5615,1.5635,1.5845,1.6062,1.6076,1.6083,1.6083,1.6083,1.5974,1.592,1.6056,1.5974,1.592,1.6056,1.6083,1.6022,1.5852,1.5723,1.5594,1.5459,1.1277,0.6453,0.133,0.0384,0.0,-0.0,-0.0,-0.0,-0.0,-0.0,-0.0,-0.0,-0.0,-0.0,-0.0,-0.0,-0.0,-0.0,-0.0,-0.0,-0.0,-0.0,-0.0,0.0,0.0,0.0,0.0,0.0,0.0,0.0,0.0,0.0,0.0,0.0,0.0,0.0,0.0,0.0,1.4984,1.5452,1.5872,1.6178,1.6198,1.6144,1.6049,1.6062,1.613,1.6252,1.6266,1.6313,1.6429,1.6435,1.6435,1.6435,1.6435,1.6435,1.6435,1.6435,1.6449,1.6483,1.6483,1.6497,1.6524,1.6524,0.0,1.6483,1.6483,1.6463,1.6435,1.6435,1.6374,1.6266,1.6266,1.6191,1.6083,1.6083,1.6083,1.6083,1.6083,1.6083,1.6083,1.6083,1.6083,1.6029,1.5737,1.5642,1.5581,1.5276,1.5181,0.0,1.5181,1.5316,1.5486,1.5608,1.5764,1.5927,1.6049,1.6083,1.6083,1.6083,1.6056,1.6049,1.6076,1.6056,1.6049,1.6076,1.6083,1.5988,1.5723,1.5655,1.5554,1.5323,1.4304,1.1789,0.6645,0.2491,-0.0,-0.0,-0.0,-0.0,-0.0,-0.0,-0.0,-0.0,-0.0,-0.0,-0.0,-0.0,-0.0,-0.0,-0.0,-0.0,-0.0,-0.0,-0.0,0.0,0.0,0.0,0.0,0.0,0.0,0.0,0.0,0.0,0.0,0.0,1.3736,1.4116,0.0,1.5106,1.556,1.5886,1.6157,1.6381,1.6415,1.6361,1.6212,1.6259,1.63,1.6307,1.6374,1.6442,1.6517,1.6524,1.6524,1.6524,1.6524,1.6524,1.6524,1.6524,1.6558,1.6632,1.6632,1.6673,1.6754,1.6754,1.6707,1.6632,1.6632,1.6592,1.6524,1.6524,1.6483,1.6408,1.6341,1.6218,1.6083,1.6083,1.6083,1.6083,1.6083,1.6083,1.6083,1.6083,1.6083,1.6029,1.5737,1.5642,1.5581,1.5276,1.5235,1.5296,1.5296,1.5459,1.5649,1.573,1.5859,1.5988,1.6062,1.6083,1.6083,1.6083,1.6022,1.5988,1.6069,1.6022,1.5995,1.6069,1.6083,1.6008,1.5778,1.5683,1.5594,1.5466,1.5398,1.4412,1.1761,0.9338,0.6848,0.4299,0.156,-0.0,-0.0,-0.0,-0.0,-0.0,-0.0,-0.0,-0.0,-0.0,-0.0,-0.0,-0.0,-0.0,-0.0,-0.0,-0.0,0.0,0.0,0.0,0.0,0.0,0.0,0.0,1.3044,1.3397,1.3878,1.4211,1.4577,1.5092,1.533,1.5601,1.609,1.6273,1.6402,1.6544,1.6564,1.6524,1.6408,1.6469,1.649,1.6402,1.6497,1.6592,1.6646,1.6653,1.6666,1.6693,1.6693,1.6693,1.6693,1.6666,1.6714,1.6836,1.6809,1.687,1.7019,1.7019,1.6958,1.6836,1.6836,1.6754,1.6612,1.6578,1.6564,1.6558,1.6408,1.6279,1.6164,1.6137,1.6123,1.6123,1.609,1.6083,1.6083,1.6083,1.6083,1.6035,1.5771,1.5683,1.5628,1.5357,1.5357,1.5452,1.5452,1.5628,1.5818,1.5845,1.5947,1.6049,1.611,1.6123,1.6137,1.6157,1.6069,1.6022,1.6144,1.6042,1.5988,1.6144,1.6123,1.6029,1.5879,1.5757,1.5669,1.5642,1.5554,1.5547,1.5475,1.5649,1.3958,0.9972,0.4784,0.1593,0.1586,0.0599,-0.0,-0.0,-0.0,-0.0,-0.0,-0.0,-0.0,-0.0,-0.0,-0.0,-0.0,-0.0,-0.0,1.7035,1.6046,1.4457,1.3127,1.2874,1.322,0.0,1.4496,1.4502,1.5092,1.5445,1.5716,1.592,1.6185,1.6395,1.6463,1.6483,1.6551,1.67,1.672,1.672,1.67,1.6592,1.6571,1.6686,1.6714,1.6836,1.7093,1.7114,1.7175,1.7311,1.7317,1.7317,1.7317,1.7188,1.7127,1.7141,1.7019,1.7026,1.7168,1.7168,1.7161,1.7141,1.7141,1.7066,1.6924,1.6781,1.672,1.6714,1.6558,1.649,1.6463,1.6334,1.6286,1.6266,1.613,1.6083,1.6083,1.6083,1.6083,1.6056,1.5886,1.5832,1.5798,1.5635,1.5601,1.5615,1.5615,1.5635,1.5689,1.5818,1.5866,1.5947,1.6218,1.6286,1.632,1.6442,1.6456,1.6449,1.6469,1.6354,1.6307,1.6449,1.6252,1.6029,1.5879,1.5839,1.5784,1.5655,1.5628,1.5628,1.5642,1.5616,1.5645,1.5525,1.0591,0.7541,0.7594,0.2878,-0.0,-0.0,-0.0,-0.0,-0.0,-0.0,-0.0,-0.0,-0.0,-0.0,-0.0,-0.0,-0.0,1.8901,1.8578,1.7696,1.5819,1.5817,1.6011,1.5202,1.5072,1.5289,1.5716,1.6035,1.6259,1.6327,1.651,1.6653,1.6653,1.6727,1.6809,1.6876,1.6883,1.6849,1.6761,1.6693,1.668,1.6741,1.6904,1.706,1.7182,1.7277,1.7351,1.7419,1.7419,1.7419,1.7419,1.7358,1.7324,1.7324,1.7263,1.7263,1.7324,1.7236,1.7243,1.7317,1.7148,1.7039,1.6978,1.691,1.6836,1.6748,1.668,1.6605,1.6517,1.6456,1.6435,1.6402,1.6171,1.6083,1.6083,1.6083,1.6083,1.6056,1.59,1.5852,1.5825,1.5683,1.5696,1.5764,1.5764,1.5825,1.5913,1.5967,1.6049,1.6151,1.6279,1.6374,1.6449,1.651,1.6524,1.6524,1.6524,1.6476,1.6449,1.651,1.6422,1.6313,1.6252,1.6022,1.5866,1.5893,1.5818,1.5798,1.5886,1.5967,1.6117,1.6374,1.4518,1.3333,1.3465,1.1239,0.857,0.5245,0.1914,-0.0,-0.0,-0.0,-0.0,-0.0,-0.0,-0.0,-0.0,-0.0,-0.0,2.0791,2.0994,2.0755,1.811,1.8144,1.8239,1.5807,1.556,1.5906,1.6205,1.6435,1.6598,1.6639,1.6741,1.6815,1.6815,1.691,1.6965,1.6924,1.6917,1.6863,1.6707,1.6686,1.6686,1.6686,1.6958,1.7168,1.7249,1.7399,1.75,1.7541,1.7541,1.7541,1.7541,1.75,1.7487,1.7487,1.7439,1.7439,1.748,1.7372,1.7378,1.7473,1.7216,1.708,1.7039,1.7039,1.6951,1.6815,1.6815,1.6748,1.6646,1.6598,1.6585,1.6551,1.63,1.6178,1.6137,1.6096,1.6083,1.6062,1.5954,1.592,1.59,1.5791,1.5832,1.592,1.592,1.6029,1.6144,1.6144,1.6252,1.6381,1.6422,1.651,1.6598,1.6639,1.6646,1.6646,1.6646,1.6612,1.6598,1.6639,1.6578,1.6537,1.6578,1.6273,1.6062,1.6137,1.6008,1.5961,1.6069,1.6123,1.6218,1.6395,1.6653,1.6776,1.6996,1.7126,1.5313,1.1334,0.7123,0.348,-0.0,-0.0,-0.0,-0.0,-0.0,-0.0,-0.0,-0.0,-0.0,2.3247,2.33,2.2956,1.9505,1.8886,1.8707,1.6532,1.6171,1.6374,1.6666,1.6734,1.6788,1.6937,1.6971,1.6971,1.6971,1.6978,1.6931,1.6781,1.6754,1.67,1.6544,1.653,1.653,1.653,1.6809,1.7107,1.7392,1.7555,1.7704,1.7846,1.7846,1.7846,1.7846,1.7717,1.765,1.765,1.7494,1.7494,1.765,1.7629,1.7629,1.7629,1.748,1.7324,1.7182,1.7182,1.7107,1.6971,1.6971,1.6971,1.6951,1.6802,1.6741,1.672,1.6564,1.6422,1.6279,1.613,1.6083,1.6083,1.6076,1.6076,1.6076,1.6069,1.6069,1.6076,1.6076,1.6185,1.63,1.63,1.6408,1.6551,1.67,1.6741,1.6781,1.6937,1.6965,1.6965,1.6965,1.6842,1.6788,1.6944,1.672,1.6571,1.672,1.6605,1.6456,1.632,1.6171,1.6076,1.6083,1.6218,1.6361,1.6503,1.6653,1.6863,1.7154,1.7222,1.7317,1.7028,1.7252,1.1965,0.0221,-0.0,-0.0,-0.0,-0.0,-0.0,-0.0,-0.0,-0.0,2.5364,2.4538,2.234,2.1491,2.0315,1.8858,1.6743,1.6347,1.6476,1.6578,1.668,1.6734,1.6686,1.6761,1.6829,1.6829,1.691,1.6931,1.6768,1.6917,1.6876,1.6435,1.6558,1.6598,1.6402,1.6748,1.706,1.7256,1.7507,1.7758,1.8002,1.7914,1.7914,1.8002,1.786,1.7792,1.7792,1.7738,1.7738,1.7792,1.7792,1.7684,1.75,1.7548,1.7487,1.7344,1.7344,1.7256,1.7121,1.7121,1.7066,1.6978,1.6924,1.6904,1.6883,1.6727,1.6639,1.6578,1.6429,1.6374,1.6374,1.6374,1.6313,1.6232,1.6232,1.6232,1.6232,1.6232,1.6341,1.6449,1.6449,1.6564,1.6686,1.6734,1.6829,1.6917,1.6971,1.6978,1.6978,1.6978,1.6937,1.6917,1.6971,1.6897,1.6842,1.6897,1.6686,1.6503,1.6456,1.632,1.6273,1.6361,1.6334,1.6408,1.6653,1.672,1.6836,1.7039,1.7066,1.7188,1.7433,1.7555,1.3905,0.6004,0.2009,-0.0,-0.0,-0.0,-0.0,-0.0,-0.0,-0.0,2.4879,2.3985,2.1781,2.1678,2.0632,1.9118,1.6912,1.6415,1.6442,1.6442,1.6483,1.6483,1.6381,1.6402,1.6483,1.6646,1.6795,1.6883,1.6836,1.6998,1.6958,1.6517,1.6585,1.6592,1.6402,1.6693,1.6958,1.7107,1.7446,1.7758,1.8002,1.7968,1.7989,1.8091,1.8002,1.7914,1.786,1.786,1.786,1.786,1.786,1.7758,1.7582,1.7684,1.765,1.75,1.75,1.7385,1.7195,1.7195,1.7107,1.6978,1.6978,1.6978,1.6978,1.6924,1.6876,1.6802,1.6592,1.6524,1.6524,1.6524,1.6463,1.6388,1.6388,1.6388,1.6388,1.6388,1.649,1.6605,1.6605,1.6714,1.6829,1.6829,1.691,1.6978,1.6978,1.7019,1.7039,1.6992,1.7019,1.7039,1.6992,1.6978,1.6978,1.6978,1.6815,1.6666,1.6612,1.6476,1.6422,1.651,1.649,1.6544,1.6734,1.6802,1.6917,1.7127,1.7134,1.727,1.7568,1.7623,1.5949,1.2084,0.4248,-0.0,-0.0,-0.0,-0.0,-0.0,-0.0,-0.0,2.1738,2.2044,2.1573,2.0414,1.9916,1.9289,1.7045,1.6395,1.6286,1.6279,1.6151,1.6029,1.6015,1.5913,1.5974,1.6415,1.6632,1.6802,1.6958,1.6998,1.6951,1.6781,1.6646,1.6564,1.6544,1.668,1.6836,1.6978,1.7399,1.7717,1.786,1.8023,1.8111,1.8111,1.8111,1.8023,1.788,1.786,1.786,1.786,1.786,1.786,1.786,1.786,1.7792,1.7663,1.7663,1.7494,1.7216,1.7209,1.7127,1.7005,1.6985,1.6985,1.7005,1.7134,1.71,1.6951,1.6646,1.6544,1.6544,1.6544,1.6537,1.653,1.653,1.653,1.653,1.653,1.6646,1.6761,1.6761,1.687,1.6978,1.6978,1.6978,1.6985,1.6992,1.71,1.7154,1.7026,1.7107,1.7148,1.7005,1.6978,1.6985,1.6992,1.6985,1.6931,1.6781,1.6625,1.6537,1.6544,1.6666,1.6754,1.6761,1.6897,1.7107,1.7392,1.7405,1.7541,1.7846,1.7894,1.7948,1.8002,0.6481,0.0224,-0.0,-0.0,-0.0,-0.0,-0.0,-0.0,2.1344,2.0149,1.8028,1.9602,1.8655,1.6914,1.6522,1.6157,1.594,1.5832,1.5594,1.5343,1.512,1.5323,1.5635,1.5967,1.6429,1.6802,1.6958,1.727,1.7338,1.6965,1.708,1.7107,1.6883,1.6992,1.7093,1.7134,1.7453,1.7758,1.8023,1.8179,1.8267,1.8267,1.8267,1.8199,1.8036,1.7914,1.786,1.786,1.786,1.786,1.786,1.786,1.7846,1.7812,1.7812,1.7704,1.7521,1.7412,1.7344,1.729,1.7066,1.7046,1.7127,1.706,1.708,1.7114,1.6931,1.6863,1.6863,1.6863,1.6788,1.6693,1.6693,1.6693,1.6693,1.6693,1.6802,1.6924,1.6924,1.6951,1.6978,1.6978,1.6978,1.7012,1.7114,1.7168,1.7216,1.7297,1.7243,1.7148,1.7005,1.6978,1.7019,1.7121,1.7046,1.6965,1.6931,1.6788,1.6734,1.6849,1.6795,1.6795,1.691,1.6958,1.706,1.7243,1.7249,1.7385,1.7684,1.7717,1.7792,1.7948,1.0504,0.4466,-0.0,-0.0,-0.0,-0.0,-0.0,-0.0,1.883,1.802,1.6488,1.7931,1.7312,1.6056,1.594,1.573,1.5445,1.5038,1.4814,1.4624,1.4387,1.4767,1.5235,1.5601,1.6273,1.6849,1.7134,1.7446,1.7582,1.7392,1.7399,1.7378,1.7283,1.7344,1.7419,1.748,1.7589,1.7772,1.8077,1.8179,1.8247,1.8321,1.8247,1.8145,1.7989,1.7968,1.7935,1.786,1.786,1.786,1.786,1.786,1.786,1.786,1.786,1.7772,1.7629,1.7487,1.7378,1.7304,1.7141,1.7121,1.7202,1.7256,1.7283,1.7283,1.7202,1.7127,1.7066,1.6998,1.6924,1.6849,1.6849,1.6849,1.6849,1.6849,1.691,1.6978,1.6978,1.6978,1.6998,1.706,1.7026,1.7019,1.7161,1.7243,1.7338,1.7494,1.7344,1.7168,1.7087,1.7073,1.71,1.7182,1.7182,1.7148,1.708,1.6944,1.6883,1.6971,1.6958,1.6978,1.7066,1.7134,1.7236,1.7385,1.7392,1.75,1.7738,1.7738,1.7806,1.7935,1.4536,0.9832,0.3796,0.1348,-0.0,-0.0,-0.0,-0.0,1.5967,1.6083,1.611,1.6246,1.6151,1.5913,1.5479,1.5215,1.4862,1.4156,1.398,1.3912,1.3777,1.4245,1.4808,1.5303,1.6117,1.6863,1.7351,1.7555,1.7704,1.788,1.767,1.7568,1.7717,1.7738,1.7792,1.7914,1.7806,1.7846,1.8111,1.8165,1.8247,1.8375,1.8233,1.8091,1.7948,1.8057,1.8057,1.7914,1.7901,1.7901,1.7901,1.788,1.786,1.786,1.786,1.7792,1.767,1.7514,1.7385,1.7277,1.7216,1.7216,1.7283,1.7507,1.7528,1.7446,1.7405,1.7317,1.7195,1.7032,1.6978,1.6978,1.6978,1.6978,1.6978,1.6978,1.6978,1.6978,1.6978,1.6992,1.7039,1.7161,1.71,1.7053,1.7216,1.7372,1.7514,1.7629,1.7433,1.7249,1.7222,1.7222,1.7229,1.7249,1.7351,1.7372,1.7243,1.71,1.7012,1.7012,1.7121,1.7202,1.7222,1.7344,1.7487,1.7629,1.765,1.7717,1.786,1.786,1.788,1.7914,1.7935,1.5214,1.0054,0.4951,0.1578,-0.0,-0.0,-0.0,1.6029,1.6083,1.609,1.6117,1.592,1.5628,1.5296,1.4821,1.4312,1.381,1.3505,1.3322,1.3295,1.3783,1.4414,1.5113,1.5879,1.6625,1.7324,1.7555,1.7758,1.8023,1.8002,1.8036,1.8199,1.8199,1.8213,1.8233,1.8213,1.8233,1.8287,1.8518,1.8654,1.8694,1.8531,1.8443,1.8409,1.8321,1.8267,1.8233,1.8111,1.8057,1.8057,1.7914,1.786,1.786,1.786,1.7846,1.7812,1.767,1.767,1.7704,1.7338,1.7344,1.7548,1.7344,1.7412,1.7575,1.7317,1.7297,1.7338,1.7066,1.6978,1.6978,1.6978,1.6978,1.6978,1.6978,1.6978,1.6978,1.6978,1.7066,1.7161,1.7188,1.7175,1.7229,1.7507,1.7684,1.7758,1.767,1.7609,1.7528,1.7405,1.7378,1.7426,1.7548,1.7487,1.7412,1.7385,1.7249,1.7154,1.7154,1.7175,1.7243,1.7372,1.7405,1.7487,1.7629,1.765,1.7717,1.786,1.786,1.786,1.788,1.7914,1.7491,1.6398,1.5318,0.9671,-0.0,-0.0,-0.0,1.6062,1.6083,1.6062,1.5981,1.5737,1.5357,1.4746,1.4265,1.3777,1.3166,1.299,1.2915,1.284,1.3383,1.4007,1.4523,1.5235,1.6035,1.6944,1.7202,1.7528,1.8145,1.8145,1.8179,1.8409,1.8423,1.8423,1.8423,1.8498,1.8511,1.8423,1.8565,1.8599,1.8531,1.8531,1.8498,1.8423,1.8423,1.8389,1.8321,1.8158,1.8091,1.8091,1.7935,1.786,1.786,1.786,1.786,1.7846,1.7704,1.7684,1.7738,1.7514,1.7521,1.7629,1.7568,1.7636,1.7717,1.7507,1.7426,1.7385,1.7161,1.7039,1.6978,1.6978,1.6978,1.6978,1.6978,1.6978,1.6978,1.6978,1.7087,1.7209,1.729,1.7311,1.7372,1.7602,1.7629,1.765,1.7738,1.7704,1.7629,1.7555,1.7541,1.7561,1.7629,1.765,1.7623,1.7548,1.7473,1.7372,1.7209,1.7331,1.746,1.7534,1.7609,1.7684,1.7758,1.7758,1.7792,1.786,1.786,1.786,1.786,1.7968,1.8023,1.8057,1.5854,1.1337,0.4536,0.1367,-0.0,1.6076,1.6083,1.6042,1.5893,1.5581,1.5099,1.4265,1.379,1.3336,1.2644,1.2596,1.2657,1.2569,1.3064,1.3627,1.4055,1.4692,1.5506,1.6551,1.689,1.7324,1.8124,1.8179,1.8247,1.8511,1.8565,1.8586,1.8586,1.8694,1.8708,1.8586,1.8586,1.8531,1.8423,1.8511,1.8531,1.8409,1.8531,1.8531,1.8409,1.8233,1.8145,1.8124,1.7948,1.786,1.786,1.786,1.786,1.786,1.7738,1.7704,1.7684,1.7663,1.767,1.7704,1.7792,1.7846,1.7846,1.7704,1.7548,1.7399,1.7243,1.71,1.6978,1.6978,1.6978,1.6978,1.6978,1.6978,1.6985,1.7019,1.7134,1.727,1.7392,1.7467,1.7521,1.7548,1.7534,1.7575,1.7772,1.7758,1.7704,1.7704,1.7704,1.7704,1.7704,1.7792,1.7812,1.767,1.7684,1.7589,1.7317,1.7507,1.7663,1.7684,1.7792,1.786,1.786,1.786,1.786,1.786,1.7901,1.7914,1.7914,1.8057,1.8145,1.8145,1.505,1.2588,1.0784,0.3444,-0.0,1.6042,1.6083,1.6042,1.5893,1.5432,1.4848,1.4217,1.3627,1.3078,1.2603,1.2515,1.2562,1.2684,1.2881,1.3295,1.4143,1.4679,1.535,1.6395,1.6904,1.7351,1.7846,1.8145,1.8355,1.8511,1.8654,1.8742,1.8742,1.8762,1.8762,1.8742,1.8742,1.8728,1.8728,1.8728,1.8728,1.8728,1.8728,1.8728,1.8728,1.8423,1.8301,1.8287,1.8002,1.786,1.786,1.786,1.786,1.786,1.7846,1.7846,1.7826,1.7704,1.7717,1.7826,1.7717,1.7758,1.7846,1.7704,1.7548,1.7399,1.7243,1.71,1.6978,1.6978,1.6978,1.6978,1.6978,1.6978,1.7012,1.7141,1.7283,1.7405,1.7419,1.7623,1.7724,1.7317,1.7541,1.7792,1.7684,1.7758,1.7846,1.7846,1.7846,1.7846,1.7846,1.786,1.7812,1.767,1.7758,1.7772,1.7623,1.7629,1.7704,1.7826,1.786,1.786,1.786,1.786,1.786,1.786,1.8002,1.8077,1.8077,1.8213,1.8321,1.8362,1.8135,1.7954,1.7588,0.5544,-0.0,1.5852,1.6008,1.6022,1.5784,1.5276,1.4672,1.4068,1.3471,1.2942,1.2576,1.2501,1.2522,1.2583,1.2644,1.2922,1.3641,1.3912,1.4421,1.5554,1.6029,1.6592,1.7487,1.786,1.8213,1.864,1.8728,1.8762,1.8762,1.8762,1.8762,1.8762,1.8762,1.8762,1.8762,1.8762,1.8762,1.8762,1.8762,1.8762,1.8762,1.8552,1.8409,1.8321,1.8091,1.7948,1.786,1.786,1.7914,1.7989,1.7901,1.7914,1.7989,1.7846,1.7812,1.786,1.7792,1.7812,1.786,1.7792,1.7623,1.7412,1.7351,1.7168,1.6978,1.6978,1.6978,1.6978,1.6978,1.6978,1.7012,1.7154,1.7304,1.7467,1.765,1.7636,1.7595,1.7595,1.767,1.7738,1.7772,1.7826,1.786,1.786,1.786,1.786,1.786,1.786,1.7846,1.7792,1.7826,1.7846,1.7792,1.7772,1.7806,1.786,1.786,1.7901,1.7989,1.7914,1.7901,1.8002,1.8057,1.8091,1.8091,1.8321,1.8464,1.8464,1.8572,1.866,1.8523,0.9804,0.3739,1.5533,1.5798,1.5879,1.5581,1.5086,1.4516,1.3912,1.3356,1.2874,1.2562,1.2501,1.2501,1.2501,1.2535,1.2739,1.3247,1.3485,1.3973,1.5031,1.552,1.613,1.7107,1.7487,1.788,1.8443,1.8654,1.8762,1.8762,1.8762,1.8762,1.8762,1.8762,1.8762,1.8762,1.8762,1.8762,1.8762,1.8762,1.8762,1.8762,1.8565,1.8409,1.8321,1.8111,1.7968,1.786,1.786,1.7914,1.8023,1.7914,1.7935,1.8023,1.7901,1.786,1.786,1.786,1.786,1.786,1.786,1.767,1.7426,1.7473,1.729,1.7039,1.7039,1.7012,1.6978,1.6978,1.7046,1.7134,1.7236,1.7372,1.7528,1.7684,1.7575,1.7467,1.7629,1.765,1.7684,1.7772,1.7826,1.786,1.786,1.7826,1.7812,1.786,1.7826,1.7812,1.786,1.786,1.786,1.786,1.786,1.786,1.786,1.7901,1.7968,1.8091,1.8036,1.8036,1.8158,1.8199,1.8213,1.8213,1.8477,1.8599,1.8599,1.8708,1.8796,1.8644,1.2915,0.657,1.5065,1.5411,1.5567,1.5262,1.4848,1.436,1.377,1.3281,1.2874,1.2562,1.2501,1.2501,1.2501,1.2623,1.2827,1.3125,1.3675,1.4326,1.5079,1.5696,1.6246,1.67,1.7019,1.7378,1.7826,1.8409,1.8762,1.8762,1.8762,1.8762,1.8762,1.8762,1.8762,1.8762,1.8762,1.8762,1.8762,1.8762,1.8762,1.8762,1.8464,1.8321,1.8301,1.8002,1.786,1.786,1.786,1.786,1.786,1.786,1.786,1.786,1.786,1.786,1.786,1.786,1.786,1.786,1.786,1.767,1.7446,1.7595,1.7439,1.7188,1.7188,1.7093,1.6978,1.6978,1.7188,1.7419,1.7419,1.7534,1.7609,1.746,1.7419,1.7378,1.7229,1.7439,1.765,1.765,1.7772,1.786,1.786,1.7738,1.7704,1.7846,1.7738,1.7704,1.7846,1.786,1.786,1.786,1.786,1.786,1.786,1.8002,1.8091,1.8091,1.8233,1.8321,1.8321,1.8464,1.8531,1.8531,1.8674,1.8762,1.8762,1.8762,1.8782,1.8597,1.4533,0.7958,1.4,1.434,1.4496,1.4197,1.3933,1.3654,1.3261,1.2983,1.2745,1.2542,1.2501,1.2501,1.2501,1.2623,1.2929,1.3532,1.3878,1.4333,1.5079,1.5703,1.6286,1.6842,1.7704,1.8321,1.8464,1.8654,1.8762,1.8762,1.8762,1.8762,1.8762,1.8762,1.8762,1.8762,1.8762,1.8762,1.8762,1.8762,1.8762,1.8762,1.8674,1.8511,1.8321,1.8213,1.8057,1.786,1.786,1.7914,1.8002,1.7901,1.7935,1.8002,1.7901,1.786,1.786,1.786,1.786,1.786,1.786,1.767,1.7446,1.7602,1.7439,1.7195,1.7195,1.7161,1.7127,1.7127,1.7195,1.729,1.7392,1.7378,1.7378,1.7541,1.7494,1.746,1.7616,1.7724,1.7792,1.7792,1.7826,1.7826,1.7738,1.7684,1.7663,1.7704,1.7684,1.7704,1.7846,1.786,1.786,1.786,1.786,1.786,1.786,1.7914,1.7989,1.8091,1.8036,1.8111,1.8321,1.8355,1.8423,1.8531,1.8694,1.8762,1.8762,1.8762,1.8782,1.883,1.7424,1.0805,1.3091,1.3505,1.3688,1.3505,1.3342,1.3159,1.2854,1.2712,1.2603,1.2454,1.2467,1.2501,1.2501,1.2671,1.2969,1.3431,1.3824,1.4292,1.4923,1.5581,1.6259,1.6978,1.7914,1.8518,1.8518,1.8654,1.8762,1.8762,1.8762,1.8762,1.8762,1.8708,1.8708,1.8762,1.8762,1.8762,1.8762,1.8762,1.8762,1.8762,1.8708,1.8586,1.8389,1.8287,1.8158,1.8023,1.7914,1.7948,0.0,1.7935,1.7914,1.8002,1.7901,1.786,1.786,1.786,1.786,1.786,1.786,1.7704,1.7534,1.7684,1.7561,1.7365,1.7365,1.7283,1.7195,1.7195,1.7236,1.7304,1.7399,1.7304,1.7243,1.7433,1.7405,1.7399,1.765,1.7738,1.7772,1.7772,1.7826,1.7812,1.767,1.765,1.767,1.7717,1.7684,1.7704,1.7846,1.786,1.786,1.786,1.786,1.786,1.786,1.7914,1.8023,1.8165,1.8145,1.8233,1.8477,1.8477,1.8531,1.862,1.8708,1.8762,1.8762,1.8762,1.8782,1.8816,1.885,1.4575,0.0,1.2813,1.3044,1.3044,1.2956,1.2793,1.2515,1.2461,0.0,1.2298,1.2386,1.2494,1.2528,1.2766,1.2983,1.3044,1.3654,1.4278,1.4726,1.5466,1.6286,1.7154,1.7772,1.8124,1.8124,1.8518,1.8762,1.8762,1.8762,1.8762,1.8762,1.862,1.8599,1.8762,1.8742,1.8742,1.8762,1.8762,1.8762,1.8762,1.862,1.8545,1.8511,1.8247,1.8199,1.8287,1.8002,1.7948,1.8057,1.7914,1.786,1.786,1.786,1.786,1.786,1.786,1.786,1.786,1.786,1.7772,1.767,1.7812,1.7758,1.765,1.765,1.7446,1.7209,1.7222,1.7317,1.7419,1.7419,1.7304,1.7195,1.7195,1.7202,1.7249,1.7392,1.7541,1.765,1.7629,1.7738,1.7792,1.765,1.7629,1.7684,1.7826,1.7738,1.7704,1.7846,1.786,1.786,1.786,1.786,1.786,1.786,1.7989,1.8145,1.8287,1.8423,1.8565,1.8728,1.8742,1.8742,1.8762,1.8762,1.8762,1.8762,1.8762,1.8762,1.8762,1.8816,1.883,1.1084,0.0,1.1809,1.1809,1.187,1.1945,0.0,1.2081,1.2155,1.2121,1.2237,1.2447,1.2793,1.2915,1.3186,1.3871,1.4319,1.474,1.5187,1.6293,1.7256,1.7812,1.8301,1.8552,1.8443,1.864,1.8762,1.8762,1.8762,1.8762,1.8762,1.862,1.8599,1.8762,1.8654,1.864,1.8762,1.8762,1.8762,1.8762,1.8728,1.864,1.8531,1.8464,1.8321,1.8145,1.8077,1.7989,1.7914,1.788,1.786,1.786,1.786,1.786,1.786,1.786,1.786,1.786,1.786,1.7772,1.765,1.7684,1.7684,1.765,1.765,1.7514,1.7392,1.7507,1.7487,1.7419,1.7419,1.7304,1.7195,1.7195,1.7283,1.7378,1.7412,1.7541,1.7616,1.7494,1.75,1.7514,1.748,1.7473,1.7528,1.7684,1.767,1.7704,1.7846,1.786,1.786,1.786,1.786,1.786,1.786,1.7901,1.7935,1.7968,1.8111,1.8267,1.8423,1.8531,1.864,1.8762,1.8762,1.8762,1.8762,1.8762,1.8762,1.8762,1.8782,1.8816,1.0575,1.105,1.1511,1.1579,1.1708,1.1843,1.1918,1.1945,1.1952,1.1952,1.2135,1.2386,1.2691,1.2976,1.3363,1.3987,1.4516,1.512,1.5913,1.6768,1.7507,1.8023,1.8423,1.862,1.8531,1.8674,1.8728,1.8654,1.8728,1.8728,1.8654,1.8511,1.8498,1.8654,1.8511,1.8531,1.8762,1.8762,1.8762,1.8762,1.8762,1.8728,1.864,1.8565,1.8443,1.8287,1.8145,1.8036,1.7968,1.7901,1.7901,1.7968,1.7901,1.7901,1.7948,1.788,1.786,1.786,1.786,1.7812,1.7738,1.767,1.7684,1.7758,1.7758,1.7684,1.7629,1.765,1.7541,1.7419,1.7419,1.7256,1.7114,1.7175,1.7311,1.7439,1.7507,1.765,1.7684,1.746,1.7528,1.7582,1.7446,1.7534,1.765,1.7738,1.7758,1.7772,1.7846,1.786,1.786,1.786,1.786,1.786,1.786,1.786,1.7914,1.8057,1.8145,1.8301,1.8511,1.8599,1.8674,1.8762,1.8762,1.8762,1.8762,1.8762,1.8762,1.8762,1.8762,1.8796,1.0541,1.1145,1.1721,1.1728,1.1877,1.202,1.1999,1.1891,1.1803,1.1823,1.2074,1.2372,1.2623,1.3112,1.3593,1.398,1.4645,1.5506,1.6659,1.7053,1.7433,1.7989,1.8321,1.8498,1.8464,1.8599,1.864,1.8511,1.862,1.864,1.8511,1.8355,1.8355,1.8498,1.8355,1.8423,1.8728,1.8742,1.8762,1.8762,1.8762,1.8762,1.8762,1.862,1.8552,1.8477,1.8233,1.8091,1.8036,1.7914,1.7935,1.8036,1.7914,1.7948,1.8036,1.7914,1.786,1.786,1.786,1.786,1.7846,1.7717,1.7758,1.786,1.786,1.786,1.7846,1.7717,1.7575,1.7453,1.7426,1.7236,1.7073,1.7168,1.7324,1.7487,1.7589,1.7717,1.7758,1.7473,1.7623,1.7724,1.7494,1.767,1.7846,1.786,1.786,1.786,1.786,1.786,1.786,1.786,1.786,1.786,1.786,1.786,1.7989,1.8267,1.8287,1.8423,1.8708,1.8742,1.8762,1.8762,1.8762,1.8762,1.8762,1.8762,1.8762,1.8762,1.8762,1.8762,1.0948,1.1613,1.204,1.1423,1.1572,1.1837,1.1714,1.1667,1.1687,1.1809,1.2074,1.2528,1.3315,1.3627,1.4034,1.4848,1.5391,1.6049,1.6992,1.7277,1.7514,1.786,1.8165,1.8301,1.8179,1.8301,1.8375,1.8355,1.8375,1.8375,1.8355,1.8213,1.8199,1.8355,1.8199,1.8267,1.8565,1.8694,1.8762,1.8762,1.8762,1.8762,1.8762,1.8742,1.8586,1.8355,1.8301,1.8145,1.7901,1.788,1.788,1.7901,1.788,1.788,1.7901,1.786,1.786,1.786,1.786,1.786,1.786,1.7846,1.7846,1.786,1.786,1.786,1.786,1.7846,1.7717,1.7582,1.7453,1.7385,1.7324,1.7216,1.7405,1.7582,1.748,1.7575,1.7629,1.7453,1.746,1.7514,1.7602,1.765,1.7717,1.7846,1.786,1.786,1.786,1.786,1.786,1.786,1.786,1.786,1.786,1.786,1.7935,1.8111,1.8124,1.8267,1.8552,1.8694,1.8762,1.8762,1.8762,1.8762,1.8762,1.8762,1.8762,1.8762,1.8762,1.8782,1.0744,1.1409,1.1959,1.1613,1.204,1.2542,1.2474,1.2332,1.2264,1.2413,1.2617,1.2969,1.362,1.3994,1.4523,1.5506,1.5974,1.6442,1.71,1.7249,1.7439,1.7812,1.8057,1.8165,1.8091,1.8233,1.8321,1.8321,1.8321,1.8321,1.8321,1.8179,1.8124,1.8199,1.8124,1.8158,1.8287,1.8511,1.8674,1.8762,1.8762,1.8762,1.8762,1.8674,1.8511,1.8321,1.8321,1.8145,1.786,1.7948,1.7989,1.7989,1.7901,1.7914,1.7968,1.7901,1.786,1.7846,1.7772,1.7792,1.7846,1.7772,1.7792,1.786,1.786,1.786,1.786,1.786,1.7758,1.7629,1.7561,1.748,1.7426,1.7439,1.7548,1.765,1.765,1.7717,1.7717,1.7575,1.7609,1.765,1.765,1.7717,1.7792,1.7846,1.786,1.786,1.786,1.786,1.786,1.786,1.786,1.786,1.786,1.786,1.7968,1.8199,1.8213,1.8355,1.864,1.864,1.8674,1.8762,1.8762,1.8762,1.8762,1.8762,1.8762,1.8762,1.8762,1.8782,1.0677,1.1253,1.185,1.1918,1.2454,1.301,1.3186,1.2969,1.2827,1.3152,1.3308,1.3519,1.3966,1.4475,1.5113,1.5995,1.6381,1.6734,1.7182,1.7243,1.7399,1.7812,1.7968,1.8036,1.8036,1.8145,1.8213,1.8213,1.8213,1.8213,1.8213,1.8111,1.8036,1.8036,1.8036,1.8057,1.8091,1.8321,1.8511,1.8708,1.8742,1.8742,1.8708,1.8586,1.8423,1.8267,1.8267,1.8111,1.788,1.7989,1.8036,1.8023,1.7914,1.7935,1.8023,1.7901,1.7846,1.7806,1.7717,1.7758,1.7792,1.7717,1.7758,1.7826,1.7846,1.7846,1.7826,1.7846,1.7792,1.7684,1.765,1.7561,1.75,1.7623,1.767,1.7717,1.7846,1.786,1.7826,1.7717,1.7792,1.7826,1.7717,1.7792,1.786,1.786,1.786,1.786,1.786,1.786,1.786,1.786,1.786,1.786,1.786,1.786,1.7989,1.8301,1.8287,1.8389,1.8654,1.8586,1.8599,1.8762,1.8762,1.8762,1.8762,1.8762,1.8762,1.8762,1.8762,1.8762,1.1212,1.1572,1.1898,1.2189,1.2305,1.2535,1.3227,1.3044,1.2969,1.3817,1.4,1.4143,1.459,1.5269,1.5872,1.6232,1.6537,1.689,1.7344,1.7405,1.7521,1.7826,1.788,1.788,1.788,1.7901,1.7901,1.7901,1.7901,1.7901,1.7901,1.788,1.788,1.788,1.788,1.7948,1.8091,1.8111,1.8267,1.8552,1.8694,1.8694,1.8552,1.8531,1.8375,1.8111,1.8111,1.8023,1.786,1.788,1.788,1.788,1.786,1.786,1.788,1.786,1.7772,1.7684,1.7812,1.7772,1.7684,1.7812,1.7758,1.7684,1.7826,1.7772,1.7684,1.7826,1.786,1.7812,1.7684,1.765,1.7629,1.765,1.7758,1.7846,1.786,1.786,1.786,1.7846,1.786,1.786,1.7846,1.786,1.786,1.786,1.786,1.786,1.786,1.786,1.786,1.786,1.786,1.786,1.786,1.786,1.7989,1.8301,1.8179,1.8179,1.8335,1.8464,1.8599,1.8762,1.8762,1.8762,1.8762,1.8762,1.8762,1.8762,1.8762,1.8762,1.09,1.1396,1.1884,1.2094,1.2433,1.2881,1.3526,1.362,1.379,1.4597,1.476,1.4841,1.5106,1.5615,1.6035,1.6151,1.6497,1.6842,1.7107,1.7304,1.75,1.7704,1.7812,1.786,1.786,1.786,1.7901,1.8002,1.7914,1.7901,1.8002,1.7914,1.786,1.786,1.786,1.7901,1.7948,1.8036,1.8145,1.8267,1.8409,1.8464,1.8389,1.8301,1.8199,1.8091,1.8091,1.8002,1.786,1.7968,1.7948,1.786,1.7758,1.767,1.7602,1.7704,1.7704,1.767,1.7812,1.7826,1.7792,1.7846,1.7826,1.7792,1.7846,1.7826,1.7792,1.7846,1.786,1.7846,1.7792,1.7772,1.7772,1.7772,1.7758,1.7758,1.7846,1.7792,1.7758,1.7846,1.786,1.786,1.786,1.786,1.786,1.786,1.786,1.786,1.786,1.786,1.786,1.786,1.786,1.786,1.786,1.786,1.7948,1.8158,1.8124,1.8247,1.8586,1.8552,1.8599,1.8762,1.8762,1.8762,1.8762,1.8762,1.8762,1.8762,1.8762,1.8762,1.0778,1.1267,1.1823,1.2074,1.2515,1.3091,1.3871,1.4102,1.438,1.5221,1.5357,1.5357,1.5466,1.5737,1.5988,1.613,1.6449,1.6761,1.7012,1.7222,1.7405,1.7561,1.767,1.7738,1.7792,1.7792,1.786,1.8002,1.7914,1.7914,1.8023,1.7914,1.786,1.786,1.786,1.786,1.786,1.7968,1.8023,1.8023,1.8124,1.8199,1.8247,1.8145,1.8057,1.8023,1.8023,1.7968,1.786,1.7935,1.786,1.7724,1.7616,1.7514,1.7433,1.7541,1.7548,1.7528,1.767,1.7684,1.767,1.7758,1.7758,1.7738,1.7772,1.7758,1.7738,1.7772,1.7792,1.7812,1.7846,1.786,1.7846,1.7812,1.7758,1.7738,1.7846,1.7792,1.7738,1.7846,1.786,1.786,1.786,1.786,1.786,1.786,1.786,1.786,1.786,1.786,1.786,1.786,1.786,1.786,1.786,1.7914,1.8002,1.8158,1.8199,1.8375,1.8674,1.8586,1.8599,1.8762,1.8762,1.8762,1.8762,1.8762,1.8762,1.8762,1.8762,1.8762,1.0982,1.1274,1.1728,1.2176,1.2522,1.3057,1.4245,1.4407,1.4604,1.5642,1.5744,1.5642,1.5642,1.5642,1.5784,1.6232,1.6429,1.668,1.7121,1.7188,1.7249,1.7399,1.7419,1.748,1.7629,1.765,1.7704,1.7846,1.786,1.786,1.786,1.786,1.786,1.786,1.786,1.786,1.786,1.786,1.786,1.786,1.786,1.7935,1.8091,1.8091,1.8002,1.786,1.786,1.786,1.7846,1.7704,1.7555,1.7419,1.7419,1.7419,1.7419,1.7419,1.7324,1.7216,1.7365,1.7324,1.7249,1.7548,1.7548,1.7453,1.7602,1.7541,1.7453,1.7609,1.765,1.7684,1.7826,1.786,1.7826,1.7684,1.7758,1.786,1.786,1.786,1.786,1.786,1.786,1.786,1.786,1.786,1.786,1.786,1.786,1.786,1.786,1.786,1.786,1.786,1.786,1.786,1.786,1.8002,1.8158,1.8301,1.8443,1.8531,1.8531,1.8531,1.8599,1.8762,1.8762,1.8762,1.8762,1.8762,1.8762,1.8762,1.8762,1.8762,1.0955,1.2,1.3436,1.2498,1.299,1.3851,1.4523,1.4726,1.5011,1.5845,1.5893,1.5791,1.5791,1.5791,1.5832,1.5967,1.6286,1.6564,1.67,1.6992,1.7209,1.7256,1.7358,1.7439,1.7487,1.7589,1.7663,1.7704,1.7812,1.786,1.786,1.786,1.786,1.786,1.7772,1.7758,1.786,1.765,1.7609,1.7704,1.7602,1.7684,1.7935,1.7935,1.7901,1.786,1.786,1.7812,1.7704,1.7548,1.746,1.7412,1.7304,1.7202,1.7121,1.7222,1.7229,1.7216,1.7365,1.746,1.7507,1.7494,1.7534,1.7568,1.7507,1.7534,1.7589,1.7629,1.7717,1.7758,1.7595,1.7704,1.7826,1.7684,1.7521,1.7419,1.7528,1.7555,1.7582,1.7684,1.7792,1.786,1.786,1.786,1.786,1.786,1.786,1.786,1.786,1.786,1.786,1.786,1.786,1.786,1.786,1.7901,1.8036,1.8301,1.8355,1.8477,1.8694,1.8694,1.8708,1.8762,1.8762,1.8762,1.8762,1.8762,1.8762,1.8762,1.8762,1.8762,1.1523,1.2345,1.365,1.3096,1.3539,1.434,1.5025,1.5255,1.5466,1.5974,1.5961,1.5872,1.5934,1.5893,1.5893,1.6015,1.6259,1.6456,1.6517,1.6754,1.6951,1.7012,1.71,1.7202,1.7317,1.7412,1.7494,1.7555,1.7629,1.7684,1.7684,1.7684,1.7724,1.7772,1.7629,1.7629,1.7772,1.7541,1.7467,1.7555,1.7467,1.7514,1.7684,1.7684,1.7724,1.7772,1.7846,1.7724,1.7467,1.7433,1.7351,1.7236,1.7148,1.706,1.6992,1.7073,1.7107,1.7121,1.7216,1.7304,1.7378,1.7344,1.7392,1.7453,1.7358,1.7392,1.748,1.7541,1.7623,1.767,1.7541,1.7602,1.765,1.75,1.7419,1.7399,1.7494,1.7514,1.7555,1.7704,1.7812,1.7846,1.7792,1.7826,1.7846,1.7792,1.7826,1.786,1.786,1.786,1.786,1.786,1.786,1.786,1.786,1.7968,1.8124,1.8301,1.8423,1.8565,1.8762,1.8762,1.8762,1.8762,1.8762,1.8762,1.8762,1.8762,1.8762,1.8762,1.8762,1.8762,1.2611,1.281,1.338,1.3654,1.4136,1.4672,1.5635,1.5866,1.5913,1.6056,1.5967,1.592,1.6056,1.5967,1.5967,1.6246,1.63,1.6354,1.6483,1.651,1.6571,1.6714,1.6741,1.6856,1.7127,1.7175,1.7249,1.7392,1.7412,1.7419,1.7419,1.7419,1.7487,1.7623,1.748,1.7473,1.7629,1.746,1.7385,1.7399,1.7385,1.7378,1.7378,1.7405,1.7494,1.7629,1.7758,1.7575,1.7222,1.7331,1.7229,1.6998,1.6985,1.6978,1.6978,1.6978,1.6978,1.6978,1.6978,1.6992,1.7019,1.7134,1.7182,1.7188,1.7175,1.7182,1.7222,1.7358,1.7412,1.7446,1.7575,1.7514,1.7378,1.7216,1.7385,1.7589,1.7589,1.7595,1.765,1.7772,1.7826,1.7806,1.767,1.7772,1.7826,1.7684,1.7772,1.786,1.786,1.786,1.786,1.786,1.786,1.786,1.786,1.8124,1.8287,1.8321,1.8565,1.8728,1.8762,1.8762,1.8762,1.8762,1.8762,1.8762,1.8762,1.8762,1.8762,1.8762,1.8762,1.8762,1.4446,1.5363,1.6669,1.4323,1.4604,1.5438,1.5778,1.5947,1.6042,1.6076,1.6056,1.6042,1.6076,1.6056,1.6056,1.6123,1.6232,1.632,1.6347,1.6449,1.653,1.6564,1.6673,1.6775,1.6836,1.7053,1.7209,1.7243,1.7351,1.7419,1.7419,1.7419,1.7439,1.7467,1.7317,1.7317,1.7467,1.7209,1.7127,1.7243,1.7127,1.7073,1.708,1.7317,1.7439,1.7467,1.7378,1.7351,1.7358,1.7154,1.7107,1.7134,1.7026,1.6978,1.6978,1.6978,1.6978,1.6978,1.6978,1.7053,1.7134,1.7053,1.71,1.7168,1.706,1.7107,1.7202,1.7229,1.7324,1.7399,1.7311,1.7358,1.7351,1.7087,1.7073,1.7127,1.7127,1.7209,1.7297,1.7331,1.7528,1.7684,1.765,1.7772,1.7846,1.7826,1.7846,1.786,1.786,1.786,1.786,1.786,1.786,1.786,1.786,1.7914,1.8057,1.8301,1.8375,1.8518,1.8742,1.8762,1.8762,1.8762,1.8762,1.8762,1.8762,1.8762,1.8762,1.8762,1.8762,1.8762,1.5248,1.5824,1.686,1.4828,1.4964,1.5567,1.5716,1.5811,1.5886,1.5961,1.6029,1.6083,1.6083,1.6083,1.6083,1.6083,1.6151,1.6198,1.6198,1.6266,1.6341,1.6415,1.649,1.6592,1.6734,1.689,1.7012,1.7087,1.7168,1.7209,1.7209,1.7209,1.7243,1.7311,1.7168,1.7161,1.7311,1.7093,1.7019,1.7087,1.7019,1.6978,1.6985,1.7209,1.7277,1.7216,1.7277,1.7263,1.7202,1.7121,1.7087,1.708,1.7012,1.6978,1.6978,1.6978,1.6978,1.6978,1.6978,1.7026,1.708,1.7005,1.7032,1.708,1.7005,1.7032,1.7107,1.7175,1.7249,1.729,1.7216,1.7249,1.7256,1.7032,1.7032,1.708,1.708,1.7141,1.7216,1.729,1.7433,1.7541,1.7541,1.767,1.7792,1.7846,1.786,1.786,1.786,1.786,1.786,1.786,1.786,1.786,1.786,1.7935,1.8077,1.8301,1.8389,1.8531,1.8742,1.8762,1.8762,1.8762,1.8762,1.8762,1.8762,1.8762,1.8762,1.8762,1.8762,1.8762,1.6039,1.5717,1.579,1.5181,1.5153,1.5411,1.5567,1.5622,1.5676,1.5791,1.594,1.6049,1.6076,1.6083,1.6083,1.6083,1.6083,1.6083,1.6083,1.6083,1.613,1.6252,1.6293,1.6402,1.6653,1.6693,1.6761,1.689,1.6904,1.6904,1.6904,1.6924,1.6992,1.7114,1.7026,1.7039,1.7154,1.7039,1.6978,1.6978,1.6978,1.6965,1.6944,1.7087,1.7093,1.6992,1.7236,1.7209,1.6992,1.7107,1.7087,1.6978,1.6978,1.6978,1.6978,1.6978,1.6978,1.6978,1.6978,1.6978,1.6978,1.6978,1.6978,1.6978,1.6978,1.6978,1.7005,1.7121,1.7154,1.7154,1.7154,1.7154,1.7127,1.7012,1.7073,1.7154,1.7154,1.7154,1.7195,1.7317,1.7385,1.7433,1.7453,1.7589,1.7717,1.7846,1.786,1.786,1.786,1.786,1.786,1.786,1.786,1.786,1.786,1.7989,1.8111,1.8267,1.8389,1.8531,1.8674,1.8708,1.8728,1.8728,1.8742,1.8762,1.8762,1.8762,1.8762,1.8762,1.8762,1.8762,1.8496,1.6964,1.5583,1.4889,1.4991,1.5255,1.5404,1.5547,1.5642,1.5662,1.5784,1.5927,1.6056,1.6083,1.6083,1.6083,1.6083,1.6083,1.6083,1.6083,1.609,1.611,1.6232,1.6327,1.6368,1.6476,1.6558,1.6578,1.6585,1.6585,1.6585,1.6707,1.6788,1.6809,1.6917,1.6992,1.7012,1.6992,1.6978,1.6978,1.6978,1.691,1.6788,1.6937,1.6998,1.6985,1.7026,1.7019,1.6985,1.7005,1.6998,1.6978,1.6978,1.6978,1.6978,1.6978,1.6978,1.6978,1.6978,1.6978,1.6978,1.6978,1.6978,1.6978,1.6978,1.6978,1.6985,1.7005,1.7012,1.7012,1.7012,1.7012,1.7005,1.6985,1.6992,1.7012,1.7012,1.7012,1.7012,1.7032,1.7249,1.746,1.7595,1.7738,1.7846,1.786,1.786,1.786,1.786,1.786,1.786,1.786,1.786,1.786,1.786,1.788,1.7948,1.8111,1.8145,1.8213,1.8375,1.8498,1.8565,1.8565,1.8694,1.8762,1.8762,1.8762,1.8762,1.8762,1.8762,1.8762,1.8389,1.6922,1.5601,1.4639,1.4652,1.4869,1.5113,1.5215,1.5309,1.5479,1.556,1.5676,1.5913,1.6022,1.6083,1.6083,1.6083,1.6083,1.6083,1.6083,1.6083,1.6083,1.6144,1.6218,1.63,1.6368,1.6435,1.6517,1.6524,1.6524,1.6524,1.6585,1.6619,1.6619,1.6775,1.6849,1.6849,1.6849,1.6809,1.6727,1.6809,1.6775,1.6625,1.6781,1.6849,1.6856,1.6944,1.6978,1.6978,1.6978,1.6978,1.6978,1.6978,1.6978,1.6978,1.6978,1.6978,1.6978,1.6978,1.6978,1.6978,1.6978,1.6978,1.6978,1.6978,1.6978,1.6978,1.6978,1.6978,1.6978,1.6978,1.6978,1.6978,1.6978,1.6978,1.6978,1.6978,1.6978,1.6978,1.6978,1.7216,1.7439,1.7507,1.7704,1.786,1.786,1.786,1.786,1.786,1.786,1.786,1.786,1.786,1.786,1.786,1.786,1.7935,1.8077,1.8091,1.8158,1.8321,1.8375,1.8443,1.8531,1.8694,1.8762,1.8762,1.8762,1.8762,1.8762,1.8762,1.8762,1.81,1.7114,1.6222,1.4968,1.4871,1.5134,1.5679,1.5462,1.5217,1.5995,1.573,1.5479,1.5696,1.5893,1.6035,1.6076,1.6083,1.6083,1.6083,1.6083,1.6083,1.6083,1.6083,1.613,1.6239,1.6252,1.6293,1.6402,1.6408,1.6408,1.6408,1.6442,1.6469,1.6469,1.6612,1.6693,1.6693,1.6693,1.6632,1.6524,1.6639,1.6612,1.6469,1.6625,1.6673,1.6646,1.6836,1.6924,1.6924,1.6965,1.6978,1.6978,1.6978,1.6978,1.6978,1.6978,1.6978,1.6978,1.6937,1.6944,1.6971,1.6937,1.6951,1.6978,1.6978,1.6978,1.6978,1.6978,1.6978,1.6978,1.6978,1.6978,1.6978,1.6978,1.6978,1.6978,1.6978,1.6978,1.6978,1.6978,1.7216,1.7419,1.7419,1.767,1.7846,1.7812,1.7846,1.7846,1.7812,1.7846,1.786,1.786,1.786,1.786,1.786,1.786,1.7914,1.8023,1.8036,1.8091,1.8199,1.8247,1.8321,1.8423,1.8599,1.8728,1.8762,1.8762,1.8762,1.8762,1.8762,1.8742,1.8524,1.8598,1.8333,1.6239,1.6202,1.6894,1.7596,1.6378,1.5704,1.7708,1.6688,1.5418,1.5432,1.5669,1.5913,1.6056,1.6083,1.6083,1.6083,1.6083,1.6083,1.6083,1.6083,1.6083,1.609,1.6096,1.6096,1.6103,1.6103,1.6103,1.6103,1.6239,1.632,1.632,1.6463,1.653,1.653,1.653,1.653,1.6524,1.653,1.6456,1.6327,1.6469,1.6463,1.6347,1.6639,1.6761,1.6775,1.6917,1.6978,1.6978,1.6978,1.6978,1.6978,1.6978,1.6978,1.6958,1.6809,1.6856,1.6958,1.6809,1.6863,1.6978,1.6978,1.6978,1.6978,1.6978,1.6978,1.6978,1.6978,1.6978,1.6978,1.6978,1.6978,1.6978,1.6978,1.6978,1.6978,1.6978,1.7216,1.7419,1.7419,1.767,1.7812,1.7684,1.7772,1.7812,1.7684,1.7772,1.786,1.786,1.786,1.786,1.786,1.786,1.786,1.788,1.788,1.788,1.788,1.8023,1.8111,1.8111,1.8389,1.862,1.8762,1.8762,1.8762,1.8762,1.8762,1.8694,1.8348,1.8358,1.8556,1.718,1.7493,1.83,1.9203,1.9012,1.9231,2.0496,2.0153,1.978,2.0038,1.7658,1.5764,1.5913,1.5934,1.6553,1.8403,1.7253,1.7253,2.0764,1.9593,1.9199,2.096,2.1156,2.1156,2.1156,2.1156,2.0371,1.8616,1.8679,1.7931,1.6164,1.6307,1.6388,1.6388,1.6388,1.6334,1.6239,1.6341,1.6307,1.6171,1.632,1.6307,1.6178,1.6381,1.6517,1.6605,1.6659,1.6741,1.6822,1.6727,1.6748,1.6836,1.6836,1.6768,1.6693,1.6734,1.6788,1.6822,1.6768,1.6856,1.6978,1.6978,1.6978,1.6978,1.6978,1.6978,1.6978,1.6978,1.6978,1.6978,1.6978,1.6978,1.6978,1.6978,1.7053,1.7114,1.7114,1.7358,1.7568,1.7568,1.7738,1.7846,1.7792,1.7826,1.7846,1.7792,1.7826,1.786,1.786,1.786,1.786,1.786,1.786,1.786,1.786,1.786,1.786,1.786,1.7914,1.7989,1.8091,1.8287,1.8464,1.862,1.8708,1.8762,1.8762,1.8762,1.8674,1.8545,1.8764,1.9111,1.8566,1.8798,1.945,2.099,2.0905,2.1171,2.2641,2.2409,2.2111,2.2596,2.0047,1.7627,1.7091,1.7127,1.7741,1.9589,1.8301,1.8537,2.2023,2.1689,2.1735,2.2516,2.3286,2.388,2.388,2.388,2.3092,2.1343,2.1343,2.0175,1.7444,1.6571,1.6232,1.6232,1.6232,1.6185,1.6083,1.6185,1.6178,1.6083,1.6185,1.6178,1.609,1.6191,1.6313,1.6456,1.6503,1.6578,1.6666,1.6619,1.6625,1.668,1.6727,1.6653,1.653,1.6585,1.6632,1.6666,1.6619,1.6741,1.6904,1.6904,1.6937,1.6978,1.6978,1.6978,1.6978,1.6978,1.6978,1.6978,1.6978,1.6978,1.6978,1.6978,1.7053,1.7121,1.7121,1.7365,1.7568,1.7568,1.7738,1.7846,1.7792,1.7826,1.7846,1.7792,1.7826,1.786,1.786,1.786,1.786,1.786,1.786,1.786,1.786,1.786,1.786,1.786,1.786,1.7914,1.8023,1.8213,1.8375,1.8464,1.8654,1.8762,1.8762,1.8762,1.8674,0.0,0.0,0.0,2.0071,1.9956,2.0497,2.2987,2.1817,2.1128,2.4017,2.3304,2.2342,2.2372,2.2566,2.1938,1.9915,1.942,1.9429,1.9437,1.9791,1.9902,1.9902,2.2383,2.3101,2.0559,2.2702,2.4074,2.4074,2.4074,2.4074,2.4074,2.388,2.2711,2.0175,1.7452,1.6083,1.6083,1.6083,1.6083,1.6083,1.6083,1.6083,1.6083,1.6083,1.6083,1.6083,1.6083,1.6164,1.6313,1.6449,1.651,1.653,1.668,1.6646,1.653,1.6686,1.6646,1.649,1.6354,1.6402,1.649,1.6354,1.651,1.6741,1.6741,1.6849,1.6971,1.6971,1.6971,1.6978,1.6978,1.6978,1.6978,1.6978,1.6978,1.6978,1.6978,1.6978,1.6985,1.6985,1.7222,1.7419,1.7426,1.767,1.7812,1.767,1.7772,1.7812,1.767,1.7772,1.786,1.786,1.786,1.786,1.786,1.786,1.786,1.786,1.786,1.786,1.786,1.786,1.786,1.786,1.8158,1.8321,1.8321,1.862,1.8762,1.8762,1.8742,1.8674,1.8971,0.0,0.0,0.0,0.0,0.0,2.3374,2.3618,2.4015,2.6031,2.6158,2.6054,2.7022,2.7058,2.6508,2.4288,2.2768,2.2517,2.4747,2.3506,2.3799,2.783,2.7337,2.7191,2.8344,2.9122,2.9517,2.9517,2.9517,2.8739,2.6806,2.3101,2.0755,1.9978,1.7452,1.6083,1.6083,1.6083,1.6083,1.6083,1.6083,1.6083,1.6083,1.6083,1.6083,1.6083,1.6083,1.6103,1.6151,1.6185,1.6266,1.6374,1.6415,1.6402,1.6388,1.653,1.6422,1.6212,1.6286,1.6334,1.6361,1.632,1.6435,1.6585,1.6585,1.6612,1.6673,1.6781,1.6815,1.6836,1.6951,1.6978,1.6978,1.6978,1.6978,1.6978,1.6978,1.6978,1.7012,1.7114,1.729,1.7453,1.7568,1.765,1.7738,1.7792,1.7846,1.7846,1.7812,1.7846,1.786,1.786,1.786,1.786,1.786,1.786,1.786,1.786,1.786,1.786,1.786,1.786,1.786,1.786,1.8057,1.8213,1.8321,1.862,1.8762,1.8762,1.8552,1.8355,1.9065,1.9452,2.0027,2.0989,0.0,0.0,2.3754,2.4302,2.489,2.6413,2.7014,2.7482,2.8177,2.8604,2.8378,2.7122,2.6139,2.588,2.6666,2.5761,2.6095,2.9193,2.9507,2.948,2.976,3.1015,3.1664,3.1664,3.1664,3.108,2.9529,2.5432,2.2702,2.1735,1.901,1.7253,1.6083,1.6083,1.6083,1.6083,1.6083,1.6083,1.6083,1.6083,1.6083,1.6083,1.6083,1.6083,1.6083,1.6083,1.6137,1.6218,1.6286,1.6273,1.6232,1.6381,1.6286,1.6096,1.6185,1.6218,1.6218,1.6218,1.6313,1.6435,1.6435,1.6476,1.6537,1.6625,1.67,1.6768,1.6863,1.6931,1.6978,1.6978,1.6978,1.6978,1.6978,1.6978,1.7005,1.7087,1.7222,1.7351,1.7446,1.7561,1.7684,1.7758,1.7826,1.786,1.786,1.786,1.786,1.786,1.786,1.786,1.786,1.786,1.786,1.786,1.786,1.786,1.786,1.786,1.7901,1.7948,1.8036,1.8165,1.8321,1.8552,1.8674,1.8654,1.8355,1.8179,1.9506,1.9746,2.0294,2.1577,2.1563,0.0,2.3834,2.4142,2.4315,2.5438,2.6293,2.6867,2.7001,2.7709,2.827,2.831,2.8885,2.8739,2.6918,2.7021,2.7259,2.7045,2.9743,3.0518,2.7984,3.0114,3.1637,3.1664,3.1664,3.1664,3.1664,2.9135,2.6613,2.4074,2.1343,1.8813,1.6083,1.6083,1.6083,1.6083,1.6083,1.6083,1.6083,1.6083,1.6083,1.6083,1.6083,1.6083,1.6083,1.6083,1.6083,1.6096,1.6252,1.6218,1.6103,1.6252,1.6212,1.6083,1.6083,1.6083,1.6083,1.6083,1.6171,1.6286,1.6286,1.6374,1.6476,1.651,1.6632,1.6754,1.6768,1.6876,1.6978,1.6978,1.6978,1.6978,1.6978,1.6978,1.6978,1.6978,1.708,1.7175,1.7188,1.7433,1.7629,1.765,1.7772,1.786,1.786,1.786,1.786,1.786,1.786,1.786,1.786,1.786,1.786,1.786,1.786,1.786,1.786,1.786,1.7935,1.8057,1.8091,1.8158,1.8301,1.8464,1.8511,1.8477,1.8233,1.8091,2.0428,2.0815,2.1229,2.1269,2.1724,0.0,2.2151,2.2472,2.2966,2.3688,2.3981,2.4382,2.5331,2.5838,2.6199,2.644,2.7562,2.8579,2.9039,2.9469,2.9756,2.9925,3.0478,3.0836,3.0434,3.0901,3.141,3.165,3.1664,3.1664,3.1664,2.9135,2.6613,2.4074,2.1343,1.8813,1.6083,1.6083,1.6083,1.6083,1.6083,1.6083,1.6083,1.6083,1.6083,1.6083,1.6083,1.6083,1.6083,1.6083,1.6083,1.6096,1.6252,1.6218,1.6103,1.6252,1.6212,1.6083,1.6083,1.6083,1.6083,1.6083,1.6103,1.6123,1.6123,1.6144,1.6218,1.6456,1.6632,1.6781,1.6904,1.6958,1.6978,1.6978,1.6978,1.6978,1.6978,1.6978,1.6978,1.6978,1.7005,1.706,1.7175,1.7344,1.7507,1.7629,1.7772,1.786,1.786,1.786,1.786,1.786,1.786,1.786,1.786,1.786,1.786,1.786,1.786,1.786,1.786,1.786,1.788,1.7914,1.8023,1.8111,1.8145,1.8409,1.8409,1.8179,1.8247,1.8145,2.1189,2.1336,2.159,2.1724,2.1977,0.0,0.0,2.2432,2.2672,2.3581,2.3527,2.3594,2.4476,2.4997,2.5398,2.5692,2.6961,2.8083,2.8524,2.9486,3.014,3.014,3.0394,3.0581,3.0568,3.0835,3.1129,3.1423,3.1583,3.1664,3.1664,3.0496,2.8548,2.6023,2.3286,2.0764,1.8031,1.6665,1.6083,1.6083,1.6083,1.6083,1.6083,1.6083,1.6083,1.6083,1.6083,1.6083,1.6083,1.6083,1.6083,1.609,1.6164,1.6151,1.609,1.6171,1.6151,1.6083,1.6083,1.6083,1.6083,1.6083,1.6083,1.6083,1.6083,1.6083,1.613,1.6354,1.6524,1.6673,1.6829,1.6924,1.6978,1.6978,1.6978,1.6978,1.6978,1.6978,1.6978,1.6978,1.6978,1.7005,1.7073,1.727,1.7446,1.7521,1.7724,1.786,1.786,1.786,1.786,1.786,1.786,1.786,1.786,1.786,1.786,1.786,1.786,1.786,1.786,1.786,1.786,1.786,1.8023,1.8057,1.7989,1.8199,1.8233,1.8091,1.8091,1.8002,2.2124,2.2058,2.2191,2.2378,2.2458,2.2579,0.0,0.0,0.0,2.3594,2.3394,2.3233,2.3768,2.4249,2.4663,2.4957,2.6239,2.7108,2.6881,2.823,2.9205,2.9152,2.9713,3.0034,2.9847,3.0261,3.0715,3.1116,3.1263,3.141,3.157,3.1637,3.0496,2.7972,2.5829,2.3491,2.0755,1.8623,1.7253,1.6864,1.6864,1.6672,1.6083,1.6083,1.6083,1.6083,1.6083,1.6083,1.6083,1.6083,1.6083,1.6083,1.6083,1.6083,1.6083,1.6083,1.6083,1.6083,1.6083,1.6083,1.6083,1.6083,1.6083,1.609,1.6117,1.6123,1.6164,1.6341,1.6476,1.6598,1.6754,1.689,1.6978,1.6978,1.6978,1.6978,1.6978,1.6978,1.6978,1.6978,1.6978,1.6978,1.6978,1.7202,1.7378,1.7378,1.7629,1.7826,1.7826,1.7846,1.7846,1.7826,1.7826,1.7812,1.7772,1.7772,1.7792,1.7826,1.7826,1.7826,1.786,1.786,1.786,1.786,1.7989,1.7989,1.786,1.7989,1.8036,1.8036,1.7948,1.7901,2.3607,2.3901,2.3981,2.2726,2.338,2.3875,2.2151,0.0,2.2699,2.2311,0.0,2.2231,2.2565,0.0,0.0,2.3113,2.4409,2.5371,2.5331,2.6172,2.7068,2.7816,2.8671,2.9285,2.9513,2.9593,2.9967,3.0782,3.0394,3.0461,3.1236,3.153,3.0496,2.7972,2.7576,2.6023,2.3491,2.3101,2.193,1.9585,1.9585,1.8426,1.6083,1.6083,1.6083,1.6083,1.6083,1.6083,1.6083,1.6083,1.6083,1.6083,1.6083,1.6083,1.6083,1.6083,1.6083,1.6083,1.6083,1.6083,1.6083,1.6083,1.6083,1.6103,1.6246,1.6286,1.6341,1.6619,1.6714,1.6761,1.6917,1.6971,1.6978,1.6978,1.6978,1.6978,1.6978,1.6978,1.6978,1.6978,1.6978,1.6978,1.6978,1.7114,1.7216,1.7216,1.748,1.767,1.767,1.7792,1.7812,1.7684,1.767,1.7616,1.748,1.7473,1.7528,1.767,1.767,1.7738,1.786,1.786,1.786,1.786,1.788,1.788,1.786,1.788,1.788,1.7901,1.8002,1.7989,2.3848,2.4075,2.4195,2.3407,2.3674,2.3861,2.2819,2.2592,2.2632,2.2739,0.0,0.0,0.0,0.0,0.0,0.0,2.4088,2.477,2.4596,2.5331,2.6199,2.7081,2.7375,2.7816,2.8631,2.8871,2.9272,2.998,2.9806,3.0047,3.0929,3.1249,3.091,3.0102,2.856,2.7191,2.6216,2.4657,2.3286,2.2312,2.2312,2.096,1.8426,1.8426,1.7444,1.6083,1.6083,1.6083,1.6083,1.6083,1.6083,1.6083,1.6083,1.6083,1.6083,1.6083,1.6083,1.6083,1.6083,1.6083,1.6083,1.6083,1.6083,1.6096,1.6157,1.6239,1.6354,1.6558,1.668,1.6788,1.6937,1.6978,1.6978,1.6978,1.6978,1.6978,1.6978,1.6978,1.6978,1.6978,1.6978,1.6978,1.6978,1.71,1.7195,1.7195,1.7378,1.7514,1.7514,1.7568,1.7582,1.7521,1.7514,1.7494,1.7426,1.7419,1.7446,1.7514,1.7514,1.7623,1.7846,1.7792,1.7772,1.786,1.786,1.786,1.786,1.786,1.786,1.786,1.7935,1.7914,2.5077,2.4766,2.4409,2.3808,2.3768,2.3741,2.3207,2.2926,2.2873,2.314,2.2819,0.0,0.0,0.0,2.2846,2.3153,0.0,2.4102,2.3981,2.4516,2.5237,2.6119,2.6319,2.676,2.7696,2.7843,2.823,2.9058,2.8965,2.9366,3.0488,3.0902,3.1249,3.1543,2.9874,2.8943,2.8943,2.6987,2.5625,2.5045,2.5045,2.3686,2.0951,2.0371,1.9002,1.7055,1.6474,1.6083,1.6083,1.6083,1.6083,1.6083,1.6083,1.6083,1.6083,1.6083,1.6083,1.6083,1.6083,1.6083,1.6083,1.6083,1.6083,1.6096,1.6178,1.6279,1.6408,1.6592,1.6727,1.6836,1.6951,1.6978,1.6978,1.6978,1.6978,1.6971,1.6931,1.6951,1.6958,1.687,1.6924,1.6951,1.687,1.7012,1.7134,1.7134,1.7263,1.7358,1.7358,1.7392,1.7405,1.7365,1.7358,1.7344,1.7304,1.7297,1.7317,1.7358,1.7399,1.7534,1.7792,1.7704,1.7717,1.786,1.786,1.786,1.786,1.786,1.786,1.786,1.786,1.786,2.8103,2.6716,2.513,2.3701,2.3768,2.3888,2.2712,2.3113,2.3567,2.2993,2.3327,2.3541,2.2966,2.2619,2.2525,2.2832,2.2899,0.0,0.0,2.338,2.3728,2.4609,2.5705,2.652,2.6827,2.636,2.664,2.8083,2.7655,2.8096,2.9847,3.0488,3.0942,3.1236,3.1517,3.1474,3.1474,3.1474,3.0115,2.7588,2.7588,2.6216,2.3676,2.1147,1.9978,1.9782,1.7253,1.6083,1.6083,1.6083,1.6083,1.6083,1.6083,1.6083,1.6083,1.6083,1.6083,1.6083,1.6083,1.6083,1.6083,1.6083,1.6083,1.6137,1.6422,1.651,1.6578,1.6883,1.6971,1.6971,1.6978,1.6978,1.6978,1.6978,1.6978,1.6937,1.6788,1.6876,1.689,1.6592,1.6775,1.6883,1.6585,1.6788,1.6985,1.6985,1.7107,1.7202,1.7202,1.7331,1.7365,1.7216,1.7202,1.7148,1.7005,1.6992,1.7053,1.7188,1.7338,1.7494,1.765,1.765,1.7717,1.786,1.786,1.786,1.786,1.786,1.786,1.786,1.786,1.786,2.8744,2.81,2.7179,2.4742,2.4342,2.4235,2.3247,2.3407,2.3594,2.2993,2.334,2.3581,2.2979,2.2779,2.2739,2.2846,2.2699,2.2672,0.0,2.3193,2.3434,2.3728,2.481,2.5558,2.5665,2.5665,2.6106,2.7188,2.7081,2.7669,2.9245,2.99,3.0434,3.0929,3.1223,3.1476,3.1664,3.1664,3.1284,3.0306,3.0306,2.8943,2.6409,2.5625,2.3286,1.9978,1.9002,1.7642,1.6083,1.6083,1.6083,1.6083,1.6083,1.6083,1.6083,1.6083,1.6083,1.6083,1.6083,1.6083,1.6083,1.6083,1.6151,1.6232,1.6232,1.6435,1.6673,1.668,1.6822,1.6958,1.6856,1.6904,1.6931,1.6727,1.6754,1.6788,1.6632,1.6639,1.6646,1.6537,1.6605,1.6646,1.6537,1.6605,1.668,1.668,1.672,1.6781,1.6883,1.6944,1.6998,1.7046,1.7053,1.7032,1.6985,1.6978,1.7039,1.7182,1.7154,1.7243,1.7487,1.7399,1.7419,1.7568,1.767,1.7717,1.7717,1.7812,1.786,1.786,1.786,1.786,3.1481,3.068,2.9351,2.6581,2.6367,2.6402,2.3958,2.435,2.4745,2.344,2.35,2.3714,2.3527,2.3153,2.2899,2.3006,2.2686,2.2445,0.0,2.2819,2.3046,2.3153,2.4115,2.481,2.4917,2.4997,2.5504,2.6587,2.6573,2.7161,2.8644,2.9379,3.0034,3.0621,3.1022,3.137,3.1664,3.1664,3.1664,3.1664,3.1664,3.089,2.9135,2.8164,2.5432,2.1343,2.1343,1.9396,1.6083,1.7055,1.6864,1.6083,1.6083,1.6083,1.6083,1.6083,1.6083,1.6083,1.6083,1.6083,1.6083,1.6083,1.6185,1.6293,1.6191,1.6435,1.6727,1.6632,1.6781,1.6944,1.6788,1.6822,1.6836,1.6578,1.6598,1.6625,1.6476,1.6483,1.649,1.6388,1.6449,1.649,1.6381,1.6408,1.6463,1.6517,1.6524,1.6578,1.6727,1.67,1.6748,1.6958,1.6931,1.6917,1.6978,1.6978,1.7019,1.7114,1.7032,1.7087,1.7331,1.7243,1.7263,1.7419,1.7514,1.7595,1.765,1.7738,1.7812,1.786,1.786,1.786]},{"header":{"parameterUnit":"m.s-1","parameterCategory":1,"la1":30.6,"la2":29.2853,"lo1":-89.7004,"lo2":-87.6739,"dy":0.0162,"dx":0.0183,"nx":112,"ny":82,"refTime":"2024-09-26T12:00:00:Z","depth":0,"parameterNumber":3,"parameterNumberName":"V-component_of_WINDS"},"data":[0.0,0.0,0.0,0.0,0.0,0.0,0.0,0.0,0.0,0.0,0.0,0.0,0.0,0.0,0.0,0.0,0.0,0.0,0.0,0.0,0.0,0.0,0.0,0.0,0.0,0.0,0.0,0.0,0.0,0.0,0.0,0.0,0.0,0.0,0.0,0.0,0.0,0.0,0.0,0.0,0.0,0.0,0.0,0.0,0.0,0.0,0.0,0.0,0.0,0.0,0.0,0.0,0.0,0.0,0.0,0.0,0.0,0.0,0.0,0.0,0.0,0.0,0.0,0.0,0.0,0.0,0.0,0.0,0.0,0.0,0.0,0.0,0.0,0.0,0.0,0.0,0.0,0.0,0.0,0.0,0.0,0.0,0.0,0.0,0.0,0.0,0.0,0.0,0.0,0.0,-7.0244,-7.5014,-7.9669,-8.2131,-8.1477,-7.973,-7.6293,-7.076,0.0,0.0,0.0,0.0,0.0,0.0,0.0,0.0,0.0,0.0,0.0,0.0,0.0,0.0,0.0,0.0,0.0,0.0,0.0,0.0,0.0,0.0,0.0,0.0,0.0,0.0,0.0,0.0,0.0,0.0,0.0,0.0,0.0,0.0,0.0,0.0,0.0,0.0,0.0,0.0,0.0,0.0,0.0,0.0,0.0,0.0,0.0,0.0,0.0,0.0,0.0,0.0,0.0,0.0,0.0,0.0,0.0,0.0,0.0,0.0,0.0,0.0,0.0,0.0,0.0,0.0,0.0,0.0,0.0,0.0,0.0,0.0,0.0,0.0,0.0,0.0,0.0,0.0,0.0,0.0,0.0,0.0,0.0,0.0,0.0,0.0,0.0,0.0,0.0,0.0,0.0,0.0,0.0,0.0,0.0,0.0,0.0,0.0,0.0,0.0,0.0,0.0,0.0,0.0,-7.1206,-7.8507,-8.1439,-8.2554,-8.1708,-7.9409,-7.6125,-7.1586,0.0,0.0,0.0,0.0,0.0,0.0,0.0,0.0,0.0,0.0,0.0,0.0,0.0,0.0,0.0,0.0,0.0,0.0,0.0,0.0,0.0,0.0,0.0,0.0,0.0,0.0,0.0,0.0,0.0,0.0,0.0,0.0,0.0,0.0,0.0,0.0,0.0,0.0,0.0,0.0,0.0,0.0,0.0,0.0,0.0,0.0,0.0,0.0,0.0,0.0,0.0,0.0,0.0,0.0,0.0,0.0,0.0,0.0,0.0,0.0,0.0,0.0,0.0,0.0,0.0,0.0,0.0,0.0,0.0,0.0,0.0,0.0,0.0,0.0,0.0,0.0,0.0,0.0,0.0,0.0,0.0,0.0,0.0,0.0,0.0,0.0,0.0,0.0,0.0,0.0,0.0,0.0,0.0,0.0,0.0,0.0,0.0,0.0,0.0,0.0,0.0,0.0,0.0,-7.1231,-7.4603,-8.0965,-8.2476,-8.2909,-8.2593,-7.9389,-7.5559,-7.1303,-6.7856,0.0,0.0,0.0,0.0,0.0,0.0,0.0,0.0,0.0,0.0,0.0,0.0,0.0,0.0,0.0,0.0,0.0,0.0,0.0,0.0,0.0,0.0,0.0,0.0,0.0,0.0,0.0,0.0,0.0,0.0,0.0,0.0,0.0,0.0,0.0,0.0,0.0,0.0,0.0,0.0,0.0,0.0,0.0,0.0,0.0,0.0,0.0,0.0,0.0,0.0,0.0,0.0,0.0,0.0,0.0,0.0,0.0,0.0,0.0,0.0,0.0,0.0,0.0,0.0,0.0,0.0,0.0,0.0,0.0,0.0,0.0,0.0,0.0,0.0,0.0,0.0,0.0,0.0,0.0,0.0,0.0,0.0,0.0,0.0,0.0,0.0,0.0,0.0,0.0,0.0,0.0,0.0,0.0,0.0,0.0,0.0,0.0,0.0,0.0,0.0,0.0,0.0,-7.5721,-7.8198,-8.234,-8.298,-8.3026,-8.2791,-7.881,-7.4653,-7.0628,-6.6161,0.0,0.0,0.0,0.0,0.0,0.0,0.0,0.0,0.0,0.0,0.0,0.0,0.0,0.0,0.0,0.0,0.0,0.0,0.0,0.0,0.0,0.0,0.0,0.0,0.0,0.0,0.0,0.0,0.0,0.0,0.0,0.0,0.0,0.0,0.0,0.0,0.0,0.0,0.0,0.0,0.0,0.0,0.0,0.0,0.0,0.0,0.0,0.0,0.0,0.0,0.0,0.0,0.0,0.0,0.0,0.0,0.0,0.0,0.0,0.0,0.0,0.0,0.0,0.0,0.0,0.0,0.0,0.0,0.0,0.0,0.0,0.0,0.0,0.0,0.0,0.0,0.0,0.0,0.0,0.0,0.0,0.0,0.0,0.0,0.0,0.0,0.0,0.0,0.0,0.0,0.0,0.0,0.0,0.0,0.0,0.0,0.0,0.0,0.0,0.0,0.0,0.0,-7.6939,-8.0982,-8.1975,-8.2961,-8.2926,-8.1282,-7.722,-7.3238,-6.9725,-6.4684,0.0,0.0,0.0,0.0,0.0,0.0,0.0,0.0,0.0,0.0,0.0,0.0,0.0,0.0,0.0,0.0,0.0,0.0,0.0,0.0,0.0,0.0,0.0,0.0,0.0,0.0,0.0,0.0,0.0,0.0,0.0,0.0,0.0,0.0,0.0,0.0,0.0,0.0,0.0,0.0,0.0,0.0,0.0,0.0,0.0,0.0,0.0,0.0,0.0,0.0,0.0,0.0,0.0,0.0,0.0,0.0,0.0,0.0,0.0,0.0,0.0,0.0,0.0,0.0,0.0,0.0,0.0,0.0,0.0,0.0,0.0,0.0,0.0,0.0,0.0,0.0,0.0,0.0,0.0,0.0,0.0,0.0,0.0,0.0,0.0,0.0,0.0,0.0,0.0,0.0,0.0,0.0,0.0,0.0,0.0,0.0,0.0,0.0,0.0,0.0,0.0,0.0,-7.5347,-7.8933,-8.1878,-8.255,-8.2304,-8.1094,-7.8047,-7.4062,-6.8984,0.0,0.0,0.0,0.0,0.0,0.0,0.0,0.0,0.0,0.0,0.0,0.0,0.0,0.0,0.0,0.0,0.0,0.0,0.0,0.0,0.0,0.0,0.0,0.0,0.0,0.0,0.0,0.0,0.0,0.0,0.0,0.0,0.0,0.0,0.0,0.0,0.0,0.0,0.0,0.0,0.0,0.0,0.0,0.0,0.0,0.0,0.0,0.0,0.0,0.0,0.0,0.0,0.0,0.0,0.0,0.0,0.0,0.0,0.0,0.0,0.0,0.0,0.0,0.0,0.0,0.0,0.0,0.0,0.0,0.0,0.0,0.0,0.0,0.0,0.0,0.0,0.0,0.0,0.0,0.0,0.0,0.0,0.0,0.0,0.0,0.0,0.0,0.0,0.0,0.0,0.0,0.0,0.0,0.0,0.0,0.0,0.0,0.0,0.0,0.0,0.0,0.0,-7.1325,-7.5,-7.8437,-8.1914,-8.2304,-8.1836,-8.0664,-7.7734,-7.3515,-6.7734,0.0,0.0,0.0,0.0,0.0,0.0,0.0,0.0,0.0,0.0,0.0,0.0,0.0,0.0,0.0,0.0,0.0,0.0,0.0,0.0,0.0,0.0,0.0,0.0,0.0,0.0,0.0,0.0,0.0,0.0,0.0,0.0,0.0,0.0,0.0,0.0,0.0,0.0,0.0,0.0,0.0,0.0,0.0,0.0,0.0,0.0,0.0,0.0,0.0,0.0,0.0,0.0,0.0,0.0,0.0,0.0,0.0,0.0,0.0,0.0,0.0,0.0,0.0,0.0,0.0,0.0,0.0,0.0,0.0,0.0,0.0,0.0,0.0,0.0,0.0,0.0,0.0,0.0,0.0,0.0,0.0,0.0,0.0,0.0,0.0,0.0,0.0,0.0,0.0,0.0,0.0,0.0,0.0,0.0,0.0,0.0,0.0,0.0,0.0,0.0,0.0,0.0,-7.1562,-7.6523,-8.0351,-8.2109,-8.2304,-8.1601,-7.9844,-7.5781,-7.1133,0.0,0.0,0.0,0.0,0.0,0.0,0.0,0.0,0.0,0.0,0.0,0.0,0.0,0.0,0.0,0.0,0.0,0.0,0.0,0.0,0.0,0.0,0.0,0.0,0.0,0.0,0.0,0.0,0.0,0.0,0.0,0.0,0.0,0.0,0.0,0.0,0.0,0.0,0.0,0.0,0.0,0.0,0.0,0.0,0.0,0.0,0.0,0.0,0.0,0.0,0.0,0.0,0.0,0.0,0.0,0.0,0.0,0.0,0.0,0.0,0.0,0.0,0.0,0.0,0.0,0.0,0.0,0.0,0.0,0.0,0.0,0.0,0.0,0.0,0.0,0.0,0.0,0.0,0.0,0.0,0.0,0.0,0.0,0.0,0.0,0.0,0.0,0.0,0.0,0.0,0.0,0.0,0.0,0.0,0.0,0.0,0.0,0.0,0.0,0.0,0.0,0.0,0.0,-7.1562,-7.6523,-8.0351,-8.2109,-8.2304,-8.1601,-7.9844,-7.6875,-7.2422,-6.6015,0.0,0.0,0.0,0.0,0.0,0.0,0.0,0.0,0.0,0.0,0.0,0.0,0.0,0.0,0.0,0.0,0.0,0.0,0.0,0.0,0.0,0.0,0.0,0.0,0.0,0.0,0.0,0.0,0.0,0.0,0.0,0.0,0.0,0.0,0.0,0.0,0.0,0.0,0.0,0.0,0.0,0.0,0.0,0.0,0.0,0.0,0.0,0.0,0.0,0.0,0.0,0.0,0.0,0.0,0.0,0.0,0.0,0.0,0.0,0.0,0.0,0.0,0.0,0.0,0.0,0.0,0.0,0.0,0.0,0.0,0.0,0.0,0.0,0.0,0.0,0.0,0.0,0.0,0.0,0.0,0.0,0.0,0.0,0.0,0.0,0.0,0.0,0.0,0.0,0.0,0.0,0.0,0.0,0.0,0.0,0.0,0.0,0.0,0.0,0.0,0.0,0.0,-7.1601,-7.6797,-8.0742,-8.2148,-8.2304,-8.1758,-8.0351,-7.789,-7.3633,-6.7031,0.0,0.0,0.0,0.0,0.0,0.0,0.0,0.0,0.0,0.0,0.0,0.0,0.0,0.0,0.0,0.0,0.0,0.0,0.0,0.0,0.0,0.0,0.0,0.0,0.0,0.0,0.0,0.0,0.0,0.0,0.0,0.0,0.0,0.0,0.0,0.0,0.0,0.0,0.0,0.0,0.0,0.0,0.0,0.0,0.0,0.0,0.0,0.0,0.0,0.0,0.0,0.0,0.0,0.0,0.0,0.0,0.0,0.0,0.0,0.0,0.0,0.0,0.0,0.0,0.0,0.0,0.0,0.0,0.0,0.0,0.0,0.0,0.0,0.0,0.0,0.0,0.0,0.0,0.0,0.0,0.0,0.0,0.0,0.0,0.0,0.0,0.0,0.0,0.0,0.0,0.0,0.0,0.0,0.0,0.0,0.0,0.0,0.0,0.0,0.0,0.0,0.0,-7.1797,-7.7305,-8.1328,-8.2226,-8.2304,-8.1953,-8.1054,-7.8672,-7.4687,-6.8789,0.0,0.0,0.0,0.0,0.0,0.0,0.0,0.0,0.0,0.0,0.0,0.0,0.0,0.0,0.0,0.0,0.0,0.0,0.0,0.0,0.0,0.0,0.0,0.0,0.0,0.0,0.0,0.0,0.0,0.0,0.0,0.0,0.0,0.0,0.0,0.0,0.0,0.0,0.0,0.0,0.0,0.0,0.0,0.0,0.0,0.0,0.0,0.0,0.0,0.0,0.0,0.0,0.0,0.0,0.0,0.0,0.0,0.0,0.0,0.0,-6.0134,-5.8753,0.0,0.0,0.0,0.0,0.0,0.0,0.0,0.0,0.0,0.0,0.0,0.0,0.0,0.0,0.0,0.0,0.0,0.0,0.0,0.0,0.0,0.0,0.0,0.0,0.0,0.0,0.0,0.0,0.0,0.0,0.0,0.0,0.0,0.0,0.0,0.0,0.0,0.0,0.0,0.0,-7.2695,-7.7695,-8.1328,-8.2226,-8.2304,-8.1953,-8.1054,-7.8672,-7.5195,-7.0469,-6.6289,0.0,0.0,0.0,0.0,0.0,0.0,0.0,0.0,0.0,0.0,0.0,0.0,0.0,0.0,0.0,0.0,0.0,0.0,0.0,0.0,0.0,0.0,0.0,0.0,0.0,0.0,0.0,0.0,0.0,0.0,0.0,0.0,0.0,0.0,0.0,0.0,0.0,0.0,0.0,0.0,0.0,0.0,0.0,0.0,0.0,0.0,0.0,0.0,0.0,0.0,0.0,0.0,0.0,0.0,0.0,0.0,0.0,0.0,0.0,-6.4129,-6.2656,0.0,0.0,0.0,0.0,0.0,0.0,0.0,0.0,0.0,0.0,0.0,0.0,0.0,0.0,0.0,0.0,0.0,0.0,0.0,0.0,0.0,0.0,0.0,0.0,0.0,0.0,0.0,0.0,0.0,0.0,0.0,0.0,0.0,0.0,0.0,0.0,0.0,0.0,0.0,0.0,-7.3594,-7.8789,-8.2578,-8.3476,-8.3554,-8.3203,-8.2304,-8.0273,-7.7344,-7.3437,-6.914,0.0,0.0,0.0,0.0,0.0,0.0,0.0,0.0,0.0,0.0,0.0,0.0,0.0,0.0,0.0,0.0,0.0,0.0,0.0,0.0,0.0,0.0,0.0,0.0,0.0,0.0,0.0,0.0,0.0,0.0,0.0,0.0,0.0,0.0,0.0,0.0,0.0,0.0,0.0,0.0,0.0,0.0,0.0,0.0,0.0,0.0,0.0,0.0,0.0,0.0,0.0,0.0,0.0,-6.9975,-7.0552,-7.0398,-7.0552,-7.136,-7.2514,-6.9744,-6.8244,-6.7513,-6.4561,0.0,0.0,0.0,0.0,0.0,0.0,0.0,0.0,0.0,0.0,0.0,0.0,0.0,0.0,0.0,0.0,0.0,0.0,0.0,0.0,0.0,0.0,-7.039,-7.0234,-7.2461,-7.3281,-6.8281,0.0,0.0,0.0,0.0,0.0,0.0,0.0,0.0,0.0,0.0,0.0,-7.4922,-8.0273,-8.4101,-8.4804,-8.4883,-8.4531,-8.3672,-8.2148,-7.9883,-7.6758,-7.2773,-6.9453,0.0,0.0,0.0,0.0,0.0,0.0,0.0,0.0,0.0,0.0,0.0,0.0,0.0,0.0,0.0,0.0,0.0,0.0,0.0,0.0,0.0,0.0,0.0,0.0,0.0,0.0,0.0,0.0,0.0,0.0,0.0,0.0,-6.4166,-6.5282,0.0,0.0,0.0,0.0,0.0,0.0,0.0,0.0,0.0,0.0,0.0,0.0,0.0,-6.9167,-7.0052,-7.3245,-7.4822,-7.4861,-7.7938,-7.9015,-7.8323,-7.9092,-7.9554,-7.9746,-7.9285,0.0,-7.0244,-6.8359,0.0,0.0,0.0,0.0,0.0,0.0,0.0,0.0,0.0,0.0,0.0,0.0,0.0,0.0,0.0,0.0,0.0,0.0,0.0,0.0,0.0,0.0,-7.9101,-7.8359,-7.9101,-7.9765,-7.8984,-7.3047,-6.75,-6.6289,-6.5508,-6.4453,0.0,0.0,0.0,0.0,0.0,0.0,-7.7656,-8.1914,-8.4765,-8.4883,-8.4883,-8.4531,-8.3672,-8.2695,-8.1289,-7.9336,-7.6562,-7.4219,-7.2344,-6.9101,0.0,0.0,0.0,0.0,0.0,0.0,0.0,0.0,0.0,0.0,0.0,0.0,0.0,0.0,0.0,0.0,0.0,0.0,0.0,0.0,0.0,0.0,0.0,0.0,0.0,0.0,0.0,0.0,0.0,-6.3935,-6.5974,-6.5897,-6.5551,-6.4628,0.0,0.0,0.0,0.0,0.0,0.0,0.0,0.0,0.0,-7.2591,-7.3514,-7.4822,-7.663,-7.8554,-8.0015,-8.1016,-8.2016,-8.2554,-8.267,-8.2554,-8.2516,-8.2516,-8.2516,-8.0516,-7.7053,-7.3937,-7.1398,-6.9283,0.0,0.0,0.0,0.0,-6.7648,-6.7514,-7.0042,-7.0388,-6.9666,-6.8955,0.0,0.0,0.0,0.0,0.0,0.0,0.0,-7.1711,-7.3505,-7.7391,-8.0976,-8.1562,-8.2461,-8.332,-8.3828,-8.0586,-7.6484,-7.2695,-7.2031,-7.0625,-6.5976,-6.6719,0.0,0.0,0.0,-7.7734,-8.0312,-8.3554,-8.582,-8.6328,-8.6367,-8.6015,-8.5156,-8.4726,-8.3554,-8.1289,-7.9648,-7.8008,-7.6289,-7.289,-6.9883,0.0,0.0,0.0,0.0,0.0,0.0,0.0,0.0,0.0,0.0,0.0,0.0,0.0,0.0,0.0,0.0,0.0,0.0,0.0,0.0,0.0,0.0,0.0,0.0,0.0,0.0,0.0,0.0,-6.6513,-6.7936,-6.6705,-6.7475,-6.6974,0.0,0.0,0.0,0.0,0.0,0.0,-7.2745,-7.3668,-7.5399,-7.8207,-7.9092,-8.0554,-8.2708,-8.3516,-8.4593,-8.5863,-8.5209,-8.5247,-8.5863,-8.5209,-8.4901,-8.4901,-8.4901,-8.4401,-8.3285,-7.9054,-7.6053,-7.4014,-7.2514,-7.1552,-7.1168,-7.2542,-7.2811,-7.2899,-7.6216,-7.6993,-7.6275,-7.4745,-7.3568,-7.1959,-6.8087,0.0,0.0,0.0,0.0,-7.5196,-7.7542,-8.0177,-8.2577,-8.3872,-8.5132,-8.6186,-8.685,-8.6498,-8.4476,-7.9218,-7.8359,-7.6719,-7.1133,-7.1562,0.0,-7.2109,-7.6289,-8.0312,-8.2656,-8.5039,-8.6797,-8.7422,-8.75,-8.7148,-8.6289,-8.6015,-8.4922,-8.2773,-8.1797,-8.0664,-7.9219,-7.6445,-7.3906,-7.1758,0.0,0.0,0.0,0.0,0.0,0.0,0.0,0.0,0.0,0.0,0.0,0.0,0.0,0.0,0.0,0.0,0.0,0.0,0.0,0.0,0.0,0.0,0.0,0.0,0.0,0.0,0.0,0.0,0.0,-6.859,-7.1822,0.0,0.0,0.0,0.0,-7.1745,-7.2706,-7.4668,-7.7938,-7.8938,-8.0977,-8.4362,-8.5247,-8.6132,-8.7055,-8.794,-8.8402,-8.8517,-8.844,-8.8479,-8.8517,-8.844,-8.844,-8.844,-8.844,-8.794,-8.6824,-8.2593,-8.0285,-7.9323,-7.84,-7.8015,-7.7977,-7.8092,-7.8631,-7.9323,-7.9554,-7.9715,-8.01,-8.1539,-7.9422,-7.6169,-7.5686,-7.409,0.0,0.0,-7.7962,-8.0407,-8.2138,-8.4516,-8.6529,-8.6593,-8.7867,-8.909,-8.9129,-8.909,-8.8144,-8.5034,-8.3164,-8.1406,-7.9414,0.0,-7.8359,-7.9062,-8.0859,-8.2734,-8.4531,-8.6328,-8.7461,-8.75,-8.75,-8.7148,-8.6289,-8.5429,-8.457,-8.3594,-8.2734,-8.1836,-8.0898,-7.9922,-7.7812,-7.4453,-7.1758,0.0,0.0,0.0,0.0,0.0,0.0,0.0,0.0,0.0,0.0,0.0,0.0,0.0,0.0,0.0,0.0,0.0,0.0,0.0,0.0,0.0,0.0,0.0,0.0,0.0,0.0,0.0,0.0,-7.2552,-7.4784,0.0,-7.2014,-7.3707,-7.5361,-7.6169,-7.8592,-8.0977,-8.3285,-8.4209,-8.5517,-8.7286,-8.7632,-8.8171,-8.9017,-8.8786,-8.9248,-9.0287,-8.921,-8.8979,-8.944,-8.894,-8.8709,-8.8709,-8.8709,-8.8517,-8.8132,-8.6594,-8.5132,-8.3824,-8.3516,-8.3401,-8.3324,-8.2824,-8.3131,-8.3708,-8.2631,-8.267,-8.3093,-8.2554,-8.1054,-7.9446,-7.9369,-7.9107,-7.9076,-7.9992,-8.1683,-8.3445,-8.4022,-8.5791,-8.7391,-8.7369,-8.8354,-8.9465,-9.0006,-9.0122,-8.982,-8.8771,-8.7167,-8.5231,-8.3009,-8.2814,-8.2764,-8.2068,-8.3437,-8.5039,-8.6406,-8.7109,-8.75,-8.75,-8.75,-8.7383,-8.707,-8.625,-8.5351,-8.4492,-8.3086,-8.2148,-8.1836,-8.0469,-7.8867,-7.7148,-7.4531,-7.082,0.0,0.0,0.0,0.0,0.0,0.0,0.0,0.0,0.0,0.0,0.0,0.0,0.0,0.0,0.0,0.0,0.0,0.0,0.0,0.0,0.0,0.0,0.0,0.0,0.0,-7.413,-7.6207,-7.563,-7.8361,-7.9169,-7.6361,-7.8592,-8.0592,-8.1439,-8.3593,-8.5593,-8.7286,-8.794,-8.8632,-8.9517,-8.9556,-8.9787,-9.0325,-8.9825,-9.0094,-9.121,-9.0056,-8.9825,-9.0325,-8.9787,-8.9556,-8.9556,-8.9556,-8.9556,-8.9556,-8.9556,-8.8863,-8.7748,-8.7209,-8.6978,-8.6901,-8.6363,-8.6517,-8.6824,-8.5709,-8.5709,-8.594,-8.4478,-8.3478,-8.2747,-8.2477,-8.2747,-8.317,-8.317,-8.4439,-8.5747,-8.5747,-8.7094,-8.844,-8.8444,-8.9213,-9.0098,-9.0675,-9.0825,-9.0825,-9.0825,-8.9774,-8.8267,-8.6243,-8.6382,-8.6457,-8.5429,-8.6012,-8.6854,-8.7695,-8.7539,-8.7383,-8.75,-8.75,-8.7383,-8.7109,-8.5703,-8.4648,-8.4062,-8.2148,-8.1133,-8.1406,-8.0039,-7.8906,-7.8086,-7.5781,-7.293,-6.9492,0.0,0.0,0.0,0.0,0.0,0.0,0.0,0.0,0.0,0.0,0.0,0.0,0.0,0.0,0.0,0.0,0.0,0.0,0.0,0.0,0.0,0.0,0.0,-7.386,-7.7323,-7.94,-7.7784,-8.267,-8.4901,-8.1631,-8.4286,-8.6555,-8.7401,-8.7517,-8.8248,-8.9863,-8.994,-9.0325,-9.1171,-9.121,-9.121,-9.121,-9.121,-9.121,-9.121,-9.121,-9.121,-9.121,-9.121,-9.121,-9.121,-9.121,-9.121,-9.121,-9.121,-9.121,-9.1056,-8.9402,-8.8786,-8.8748,-8.8748,-8.8709,-8.8709,-8.8709,-8.8709,-8.8556,-8.7671,-8.6824,-8.5978,-8.517,-8.4939,-8.4939,-8.4939,-8.6132,-8.7401,-8.7401,-8.8632,-8.9902,-8.9902,-9.0556,-9.121,-9.121,-9.121,-9.121,-9.121,-9.0902,-9.0329,-8.9486,-8.9332,-8.9329,-8.9286,-8.8583,0.0,-8.8352,-8.7617,-8.7187,-8.7461,-8.75,-8.7148,-8.6328,-8.3828,-8.2344,-8.2344,-7.9922,-7.8906,-7.9765,-7.9023,-7.8203,-7.7383,-7.5664,-7.4726,-7.4687,0.0,0.0,0.0,0.0,0.0,0.0,0.0,0.0,0.0,0.0,0.0,0.0,0.0,0.0,0.0,0.0,0.0,0.0,0.0,0.0,0.0,-7.6707,-7.9246,-7.9054,-8.1593,-8.3785,-8.4516,-8.6594,-8.7632,-8.6709,-8.7979,-8.894,-8.921,-8.9787,-9.0364,-9.0825,-9.0864,-9.0941,-9.121,-9.121,-9.121,-9.121,-9.121,-9.121,-9.121,-9.121,-9.121,-9.121,-9.121,-9.121,-9.121,-9.121,-9.121,-9.121,-9.121,-9.121,-9.1171,-9.071,-9.0517,-9.0441,-8.9787,-8.921,-8.8786,-8.9363,-8.9171,-8.8556,-8.7671,-8.7248,-8.6863,-8.6017,-8.5786,-8.5786,-8.5786,-8.6555,-8.7401,-8.7401,-8.8632,-8.9902,-8.9902,-9.0556,-9.121,-9.121,-9.121,-9.121,-9.121,-9.1133,-9.0979,-9.0713,-9.0136,-8.956,-8.9171,-8.8367,-8.7715,-8.7498,-8.7263,-8.7187,-8.7461,-8.75,-8.7383,-8.7148,-8.4765,-8.3242,-8.3242,-8.0273,-7.9414,-8.1484,-8.0781,-8.0508,-8.0898,-7.918,-7.7695,0.0,0.0,0.0,0.0,0.0,0.0,0.0,0.0,0.0,0.0,0.0,0.0,0.0,0.0,0.0,0.0,0.0,0.0,0.0,0.0,0.0,0.0,-8.117,-8.3978,-8.4709,-8.5786,-8.6978,-8.8286,-8.921,-8.9748,-8.9748,-9.0171,-9.0441,-9.0441,-9.0902,-9.121,-9.121,-9.121,-9.121,-9.121,-9.121,-9.1364,-9.1748,-9.1748,-9.1902,-9.2249,-9.2249,-9.2056,-9.1748,-9.1748,-9.1556,-9.121,-9.121,-9.121,-9.121,-9.121,-9.121,-9.121,0.0,0.0,0.0,0.0,-9.0171,-8.9825,-9.0287,-9.0133,-8.9556,-8.8325,-8.794,-8.7709,-8.6478,-8.6094,-8.6094,-8.6094,-8.6978,-8.794,-8.794,-8.921,-9.0441,-9.0441,-9.0825,-9.121,-9.121,-9.0902,-9.0748,-9.1133,-9.0902,0.0,-9.1133,-9.0787,-9.021,-8.9479,-8.8671,-8.794,-8.7401,-8.7115,-8.7079,-8.7304,-8.7734,-8.7851,-8.7539,-8.5429,0.0,0.0,0.0,-8.039,-8.2226,-8.1797,0.0,0.0,0.0,0.0,0.0,-8.2617,0.0,0.0,-8.1562,-8.1601,0.0,0.0,0.0,0.0,0.0,0.0,0.0,0.0,0.0,0.0,0.0,0.0,0.0,0.0,0.0,0.0,-8.5517,-8.8286,-8.9979,-8.9594,-8.9363,-8.9979,-9.0748,-9.1248,-9.1325,-9.1364,-9.1364,-9.1479,-9.1479,-9.1479,-9.1479,-9.1479,0.0,0.0,0.0,-9.1864,-9.2633,-9.2633,-9.2979,-9.371,-9.371,-9.3326,-9.2633,-9.2633,-9.221,-9.1479,-9.1479,-9.1441,-9.1364,-9.1364,-9.1287,-9.121,-9.121,-9.121,-9.121,-9.121,-9.121,-9.121,-9.121,0.0,0.0,-8.9248,-8.8709,-8.8363,-8.6632,-8.6094,-8.6094,-8.6094,-8.7286,-8.8556,-8.8671,-8.9863,-9.1095,-9.1171,-9.121,-9.121,-9.121,-9.0594,-9.0287,-9.1056,-9.0594,-9.0287,-9.1056,-9.121,-9.0864,-8.9902,-8.9171,-8.844,-8.7671,-8.7125,-8.6831,-8.706,-8.8046,0.0,-8.7656,-8.6133,-8.5195,-8.5195,-8.3008,-8.207,-8.2851,-8.3242,-8.4101,-8.5469,-8.6523,-8.7734,-8.914,-9.1562,-9.2383,-9.1562,-8.4648,-8.3867,0.0,0.0,0.0,0.0,0.0,0.0,0.0,0.0,0.0,0.0,0.0,0.0,0.0,0.0,0.0,-8.4978,-8.7632,-9.0017,-9.1748,-9.1864,-9.1556,-9.1018,-9.1095,-9.1479,-9.2172,-9.2249,-9.2518,-9.3172,-9.321,-9.321,-9.321,-9.321,-9.321,-9.321,-9.321,-9.3287,-9.348,-9.348,-9.3557,-9.371,-9.371,0.0,-9.348,-9.348,-9.3364,-9.321,-9.321,-9.2864,-9.2249,-9.2249,-9.1825,-9.121,-9.121,-9.121,-9.121,-9.121,-9.121,-9.121,-9.121,-9.121,-9.0902,-8.9248,-8.8709,-8.8363,-8.6632,-8.6094,0.0,-8.6094,-8.6863,-8.7825,-8.8517,-8.9402,-9.0325,-9.1018,-9.121,-9.121,-9.121,-9.1056,-9.1018,-9.1171,-9.1056,-9.1018,-9.1171,-9.121,-9.0671,-8.9171,-8.8786,-8.8209,-8.6901,-8.6639,-8.6623,-8.6855,-8.7816,-8.8398,-8.8242,-8.7461,-8.6992,-8.6992,-8.6523,-8.6328,-8.6484,-8.914,-9.0117,-8.9023,-9.125,-9.2226,-9.1836,-9.3047,-9.3906,-9.4414,-9.289,-9.2383,0.0,0.0,0.0,0.0,0.0,0.0,0.0,0.0,0.0,0.0,0.0,-7.79,-8.0054,0.0,-8.567,-8.8248,-9.0094,-9.1633,-9.2903,-9.3095,-9.2787,-9.1941,-9.221,-9.2441,-9.2479,-9.2864,-9.3249,-9.3672,-9.371,-9.371,-9.371,-9.371,-9.371,-9.371,-9.371,-9.3903,-9.4326,-9.4326,-9.4557,-9.5018,-9.5018,-9.4749,-9.4326,-9.4326,-9.4095,-9.371,-9.371,-9.348,-9.3056,-9.2672,-9.1979,-9.121,-9.121,-9.121,-9.121,-9.121,-9.121,-9.121,-9.121,-9.121,-9.0902,-8.9248,-8.8709,-8.8363,-8.6632,-8.6401,-8.6748,-8.6748,-8.7671,-8.8748,-8.921,-8.994,-9.0671,-9.1095,-9.121,-9.121,-9.121,-9.0864,-9.0671,-9.1133,-9.0864,-9.071,-9.1133,-9.121,-9.0787,-8.9479,-8.894,-8.844,-8.7709,-8.7325,-8.7295,-8.7849,-8.8846,-8.9504,-8.9506,-8.9361,-8.9101,-8.8789,-8.914,-8.9609,-9.0039,-9.2109,-9.3047,-9.2617,-9.3906,-9.4336,-9.3906,-9.5195,-9.6015,-9.6445,-9.6914,-9.6172,0.0,0.0,0.0,0.0,0.0,0.0,0.0,-7.3976,-7.5976,-7.8707,-8.0592,-8.267,-8.5593,-8.694,-8.8479,-9.1248,-9.2287,-9.3018,-9.3826,-9.3941,-9.371,-9.3056,-9.3403,-9.3518,-9.3018,-9.3557,-9.4095,-9.4403,-9.4441,-9.4518,-9.4672,-9.4672,-9.4672,-9.4672,-9.4518,-9.4788,-9.548,-9.5326,-9.5672,-9.6519,-9.6519,-9.6172,-9.548,-9.548,-9.5018,-9.421,-9.4018,-9.3941,-9.3903,-9.3056,-9.2326,-9.1672,-9.1518,-9.1441,-9.1441,-9.1248,-9.121,-9.121,-9.121,-9.121,-9.0941,-8.944,-8.894,-8.8632,-8.7094,-8.7094,-8.7632,-8.7632,-8.8632,-8.971,-8.9863,-9.0441,-9.1018,-9.1364,-9.1441,-9.1518,-9.1633,-9.1133,-9.0864,-9.1556,-9.0979,-9.0671,-9.1556,-9.1441,-9.0902,-9.0056,-8.9363,-8.8863,-8.8709,-8.8209,-8.8171,-8.8897,-8.9898,-9.069,-9.1057,-9.1281,-9.1275,-9.0884,-9.156,-9.2304,-9.3008,-9.4062,-9.4961,-9.5664,-9.6015,-9.6172,-9.6172,-9.7539,-9.8203,-9.8203,-9.8945,-9.8164,-6.2485,-6.4358,-6.7293,-7.1699,-7.3014,-7.4976,0.0,-8.2208,-8.2247,-8.5593,-8.7594,-8.9133,-9.0287,-9.1787,-9.2979,-9.3364,-9.348,-9.3864,-9.4711,-9.4826,-9.4826,-9.4711,-9.4095,-9.398,-9.4634,-9.4788,-9.548,-9.6942,-9.7057,-9.7403,-9.8173,-9.8211,-9.8211,-9.8211,-9.748,-9.7134,-9.7211,-9.6519,-9.6557,-9.7365,-9.7365,-9.7326,-9.7211,-9.7211,-9.6788,-9.598,-9.5172,-9.4826,-9.4788,-9.3903,-9.3518,-9.3364,-9.2633,-9.2364,-9.2249,-9.1479,-9.121,-9.121,-9.121,-9.121,-9.1056,-9.0094,-8.9787,-8.9594,-8.8671,-8.8479,-8.8556,-8.8556,-8.8671,-8.8979,-8.971,-8.9979,-9.0441,-9.1979,-9.2364,-9.2556,-9.3249,-9.3326,-9.3287,-9.3403,-9.2749,-9.2479,-9.3287,-9.2172,-9.0902,-9.0056,-8.9825,-8.9517,-8.8786,-8.8632,-8.8632,-8.8709,-8.9705,-9.1048,-9.2772,-9.2953,-9.3211,-9.3873,-9.4214,-9.4453,-9.4531,-9.6328,-9.7304,-9.7422,-9.8945,-9.9726,-9.9726,-9.9922,-10.0,-10.0,-10.0117,-10.0,-6.8738,-7.0564,-7.2319,-7.523,-7.7743,-8.0493,-8.4066,-8.5478,-8.6709,-8.9133,-9.0941,-9.221,-9.2595,-9.3633,-9.4441,-9.4441,-9.4864,-9.5326,-9.5711,-9.5749,-9.5557,-9.5057,-9.4672,-9.4595,-9.4941,-9.5865,-9.6749,-9.7442,-9.798,-9.8404,-9.8788,-9.8788,-9.8788,-9.8788,-9.8442,-9.825,-9.825,-9.7904,-9.7904,-9.825,-9.775,-9.7788,-9.8211,-9.725,-9.6634,-9.6288,-9.5903,-9.548,-9.498,-9.4595,-9.4172,-9.3672,-9.3326,-9.321,-9.3018,-9.171,-9.121,-9.121,-9.121,-9.121,-9.1056,-9.0171,-8.9902,-8.9748,-8.894,-8.9017,-8.9402,-8.9402,-8.9748,-9.0248,-9.0556,-9.1018,-9.1595,-9.2326,-9.2864,-9.3287,-9.3633,-9.371,-9.371,-9.371,-9.3441,-9.3287,-9.3633,-9.3133,-9.2518,-9.2172,-9.0864,-8.9979,-9.0133,-8.971,-8.9594,-9.0094,-9.0556,-9.1402,-9.2864,-9.2975,-9.3389,-9.4317,-9.4962,-9.5554,-9.6068,-9.7481,-9.8515,-9.8984,-9.9844,-10.0312,-10.0312,-10.0781,-10.1094,-10.1094,-10.1094,-10.1289,-7.2507,-7.444,-7.6128,-7.8444,-8.1841,-8.4899,-8.6338,-8.8248,-9.021,-9.1902,-9.321,-9.4134,-9.4364,-9.4941,-9.5365,-9.5365,-9.5903,-9.6211,-9.598,-9.5942,-9.5634,-9.4749,-9.4634,-9.4634,-9.4634,-9.6172,-9.7365,-9.7827,-9.8673,-9.925,-9.9481,-9.9481,-9.9481,-9.9481,-9.925,-9.9173,-9.9173,-9.8904,-9.8904,-9.9135,-9.8519,-9.8557,-9.9096,-9.7634,-9.6865,-9.6634,-9.6634,-9.6134,-9.5365,-9.5365,-9.498,-9.4403,-9.4134,-9.4057,-9.3864,-9.2441,-9.1748,-9.1518,-9.1287,-9.121,-9.1095,-9.0479,-9.0287,-9.0171,-8.9556,-8.9787,-9.0287,-9.0287,-9.0902,-9.1556,-9.1556,-9.2172,-9.2903,-9.3133,-9.3633,-9.4134,-9.4364,-9.4403,-9.4403,-9.4403,-9.421,-9.4134,-9.4364,-9.4018,-9.3787,-9.4018,-9.2287,-9.1095,-9.1518,-9.0787,-9.0517,-9.1133,-9.1441,-9.1979,-9.2979,-9.3251,-9.3943,-9.5174,-9.5904,-9.6685,-9.7586,-9.8767,-9.9666,-10.0195,-10.0781,-10.1015,-10.1015,-10.1719,-10.1992,-10.1992,-10.1992,-10.2304,-7.1018,-7.3341,-7.688,-8.1246,-8.4317,-8.7075,-9.0296,-9.171,-9.2864,-9.4518,-9.4903,-9.5211,-9.6057,-9.6249,-9.6249,-9.6249,-9.6288,-9.6019,-9.5172,-9.5018,-9.4711,-9.3826,-9.3749,-9.3749,-9.3749,-9.5326,-9.7019,-9.8634,-9.9558,-10.0404,-10.1212,-10.1212,-10.1212,-10.1212,-10.0481,-10.0096,-10.0096,-9.9211,-9.9211,-10.0096,-9.9981,-9.9981,-9.9981,-9.9135,-9.825,-9.7442,-9.7442,-9.7019,-9.6249,-9.6249,-9.6249,-9.6134,-9.5288,-9.4941,-9.4826,-9.3941,-9.3133,-9.2326,-9.1479,-9.121,-9.121,-9.1171,-9.1171,-9.1171,-9.1133,-9.1133,-9.1171,-9.1171,-9.1787,-9.2441,-9.2441,-9.3056,-9.3864,-9.4711,-9.4941,-9.5172,-9.6057,-9.6211,-9.6211,-9.6211,-9.5518,-9.5211,-9.6095,-9.4826,-9.398,-9.4826,-9.4172,-9.3326,-9.2556,-9.171,-9.1171,-9.121,-9.1979,-9.2787,-9.3595,-9.4441,-9.5634,-9.7288,-9.7673,-9.8211,-9.9094,-10.0403,-10.1091,-10.121,-10.2304,-10.2812,-10.2812,-10.2812,-10.289,-10.289,-10.289,-10.289,-7.4719,-7.7825,-8.1242,-8.3852,-8.6273,-8.8721,-9.1449,-9.271,-9.3441,-9.4018,-9.4595,-9.4903,-9.4634,-9.5057,-9.5441,-9.5441,-9.5903,-9.6019,-9.5095,-9.5942,-9.5711,-9.321,-9.3903,-9.4134,-9.3018,-9.498,-9.6749,-9.7865,-9.9288,-10.0712,-10.2097,-10.1597,-10.1597,-10.2097,-10.1289,-10.0904,-10.0904,-10.0596,-10.0596,-10.0904,-10.0904,-10.0289,-9.925,-9.9519,-9.9173,-9.8365,-9.8365,-9.7865,-9.7096,-9.7096,-9.6788,-9.6288,-9.598,-9.5865,-9.5749,-9.4864,-9.4364,-9.4018,-9.3172,-9.2864,-9.2864,-9.2864,-9.2518,-9.2056,-9.2056,-9.2056,-9.2056,-9.2056,-9.2672,-9.3287,-9.3287,-9.3941,-9.4634,-9.4903,-9.5441,-9.5942,-9.6249,-9.6288,-9.6288,-9.6288,-9.6057,-9.5942,-9.6249,-9.5826,-9.5518,-9.5826,-9.4634,-9.3595,-9.3326,-9.2556,-9.2287,-9.2787,-9.2633,-9.3056,-9.4441,-9.4826,-9.548,-9.6634,-9.6788,-9.748,-9.8865,-9.9558,-10.0527,-10.1815,-10.2285,-10.2695,-10.289,-10.289,-10.289,-10.289,-10.289,-10.289,-7.8905,-8.1627,-8.4221,-8.6947,-8.8486,-8.9944,-9.2371,-9.3095,-9.3249,-9.3249,-9.348,-9.348,-9.2903,-9.3018,-9.348,-9.4403,-9.5249,-9.5749,-9.548,-9.6403,-9.6172,-9.3672,-9.4057,-9.4095,-9.3018,-9.4672,-9.6172,-9.7019,-9.8942,-10.0712,-10.2097,-10.1904,-10.202,-10.2597,-10.2097,-10.1597,-10.1289,-10.1289,-10.1289,-10.1289,-10.1289,-10.0712,-9.9712,-10.0289,-10.0096,-9.925,-9.925,-9.8596,-9.7519,-9.7519,-9.7019,-9.6288,-9.6288,-9.6288,-9.6288,-9.598,-9.5711,-9.5288,-9.4095,-9.371,-9.371,-9.371,-9.3364,-9.2941,-9.2941,-9.2941,-9.2941,-9.2941,-9.3518,-9.4172,-9.4172,-9.4788,-9.5441,-9.5441,-9.5903,-9.6288,-9.6288,-9.6519,-9.6634,-9.6365,-9.6519,-9.6634,-9.6365,-9.6288,-9.6288,-9.6288,-9.5365,-9.4518,-9.421,-9.3441,-9.3133,-9.3633,-9.3518,-9.3826,-9.4903,-9.5288,-9.5942,-9.7134,-9.7173,-9.7942,-9.9635,-9.9942,-10.0698,-10.21,-10.2412,-10.2617,-10.289,-10.3203,-10.3203,-10.289,-10.3203,-10.3203,-8.3304,-8.4476,-8.5726,-9.0219,-9.077,-9.0746,-9.3101,-9.2979,-9.2364,-9.2326,-9.1595,-9.0902,-9.0825,-9.0248,-9.0594,-9.3095,-9.4326,-9.5288,-9.6172,-9.6403,-9.6134,-9.5172,-9.4403,-9.3941,-9.3826,-9.4595,-9.548,-9.6288,-9.8673,-10.0481,-10.1289,-10.2212,-10.2712,-10.2712,-10.2712,-10.2212,-10.1404,-10.1289,-10.1289,-10.1289,-10.1289,-10.1289,-10.1289,-10.1289,-10.0904,-10.0173,-10.0173,-9.9211,-9.7634,-9.7596,-9.7134,-9.6442,-9.6326,-9.6326,-9.6442,-9.7173,-9.698,-9.6134,-9.4403,-9.3826,-9.3826,-9.3826,-9.3787,-9.3749,-9.3749,-9.3749,-9.3749,-9.3749,-9.4403,-9.5057,-9.5057,-9.5672,-9.6288,-9.6288,-9.6288,-9.6326,-9.6365,-9.698,-9.7288,-9.6557,-9.7019,-9.725,-9.6442,-9.6288,-9.6326,-9.6365,-9.6326,-9.6019,-9.5172,-9.4287,-9.3787,-9.3826,-9.4518,-9.5018,-9.5057,-9.5826,-9.7019,-9.8634,-9.8711,-9.9481,-10.1212,-10.1481,-10.1789,-10.2097,-10.2295,-10.2617,-10.289,-10.3711,-10.3711,-10.289,-10.3711,-10.3711,-8.4816,-8.7274,-8.9611,-9.0279,-9.0679,-9.1258,-9.2521,-9.1633,-9.0402,-8.9787,-8.844,-8.7017,-8.5747,-8.6901,-8.8671,-9.0556,-9.3172,-9.5288,-9.6172,-9.7942,-9.8327,-9.6211,-9.6865,-9.7019,-9.5749,-9.6365,-9.6942,-9.7173,-9.8981,-10.0712,-10.2212,-10.3097,-10.3597,-10.3597,-10.3597,-10.3212,-10.2289,-10.1597,-10.1289,-10.1289,-10.1289,-10.1289,-10.1289,-10.1289,-10.1212,-10.1019,-10.1019,-10.0404,-9.9365,-9.875,-9.8365,-9.8057,-9.6788,-9.6673,-9.7134,-9.6749,-9.6865,-9.7057,-9.6019,-9.5634,-9.5634,-9.5634,-9.5211,-9.4672,-9.4672,-9.4672,-9.4672,-9.4672,-9.5288,-9.598,-9.598,-9.6134,-9.6288,-9.6288,-9.6288,-9.648,-9.7057,-9.7365,-9.7634,-9.8096,-9.7788,-9.725,-9.6442,-9.6288,-9.6519,-9.7096,-9.6673,-9.6211,-9.6019,-9.5211,-9.4903,-9.5557,-9.5249,-9.5249,-9.5903,-9.6172,-9.6749,-9.7788,-9.7827,-9.8596,-10.0289,-10.0481,-10.0904,-10.1789,-10.2078,-10.2285,-10.2617,-10.3008,-10.3086,-10.289,-10.3086,-10.3086,-8.7648,-8.9572,-9.1177,-9.1183,-9.1183,-9.1056,-9.0402,-8.921,-8.7594,-8.5286,-8.4016,-8.2939,-8.1593,-8.3747,-8.6401,-8.8479,-9.2287,-9.5557,-9.7173,-9.8942,-9.9712,-9.8634,-9.8673,-9.8557,-9.8019,-9.8365,-9.8788,-9.9135,-9.975,-10.0789,-10.252,-10.3097,-10.3482,-10.3905,-10.3482,-10.2904,-10.202,-10.1904,-10.1712,-10.1289,-10.1289,-10.1289,-10.1289,-10.1289,-10.1289,-10.1289,-10.1289,-10.0789,-9.9981,-9.9173,-9.8557,-9.8134,-9.7211,-9.7096,-9.7557,-9.7865,-9.8019,-9.8019,-9.7557,-9.7134,-9.6788,-9.6403,-9.598,-9.5557,-9.5557,-9.5557,-9.5557,-9.5557,-9.5903,-9.6288,-9.6288,-9.6288,-9.6403,-9.6749,-9.6557,-9.6519,-9.7326,-9.7788,-9.8327,-9.9211,-9.8365,-9.7365,-9.6903,-9.6826,-9.698,-9.7442,-9.7442,-9.725,-9.6865,-9.6095,-9.5749,-9.6249,-9.6172,-9.6288,-9.6788,-9.7173,-9.775,-9.8596,-9.8634,-9.925,-10.0596,-10.0596,-10.0981,-10.1712,-10.1819,-10.2106,-10.2312,-10.2999,-10.3086,-10.2695,-10.3203,-10.3281,-9.0556,-9.121,-9.1364,-9.2133,-9.1595,-9.0248,-8.7786,-8.6286,-8.4286,-8.0285,-7.9285,-7.89,-7.813,-8.0785,-8.3978,-8.6786,-9.1402,-9.5634,-9.8404,-9.9558,-10.0404,-10.1404,-10.0212,-9.9635,-10.0481,-10.0596,-10.0904,-10.1597,-10.0981,-10.1212,-10.2712,-10.302,-10.3482,-10.4212,-10.3405,-10.2597,-10.1789,-10.2404,-10.2404,-10.1597,-10.152,-10.152,-10.152,-10.1404,-10.1289,-10.1289,-10.1289,-10.0904,-10.0212,-9.9327,-9.8596,-9.798,-9.7634,-9.7634,-9.8019,-9.9288,-9.9404,-9.8942,-9.8711,-9.8211,-9.7519,-9.6596,-9.6288,-9.6288,-9.6288,-9.6288,-9.6288,-9.6288,-9.6288,-9.6288,-9.6288,-9.6365,-9.6634,-9.7326,-9.698,-9.6711,-9.7634,-9.8519,-9.9327,-9.9981,-9.8865,-9.7827,-9.7673,-9.7673,-9.7711,-9.7827,-9.8404,-9.8519,-9.7788,-9.698,-9.648,-9.648,-9.7096,-9.7557,-9.7673,-9.8365,-9.9173,-9.9981,-10.0096,-10.0481,-10.1289,-10.1289,-10.1404,-10.1597,-10.1712,-10.1799,-10.2084,-10.3084,-10.3308,-10.2617,-10.3711,-10.3789,-9.0902,-9.121,-9.1248,-9.1402,-9.0287,-8.8632,-8.6748,-8.4055,-8.117,-7.8323,-7.6592,-7.5553,-7.5399,-7.8169,-8.1747,-8.5709,-9.0056,-9.4287,-9.825,-9.9558,-10.0712,-10.2212,-10.2097,-10.2289,-10.3212,-10.3212,-10.3289,-10.3405,-10.3289,-10.3405,-10.3712,-10.502,-10.579,-10.602,-10.5097,-10.4597,-10.4405,-10.3905,-10.3597,-10.3405,-10.2712,-10.2404,-10.2404,-10.1597,-10.1289,-10.1289,-10.1289,-10.1212,-10.1019,-10.0212,-10.0212,-10.0404,-9.8327,-9.8365,-9.9519,-9.8365,-9.875,-9.9673,-9.8211,-9.8096,-9.8327,-9.6788,-9.6288,-9.6288,-9.6288,-9.6288,-9.6288,-9.6288,-9.6288,-9.6288,-9.6288,-9.6788,-9.7326,-9.748,-9.7403,-9.7711,-9.9288,-10.0289,-10.0712,-10.0212,-9.9865,-9.9404,-9.8711,-9.8557,-9.8827,-9.9519,-9.9173,-9.875,-9.8596,-9.7827,-9.7288,-9.7288,-9.7403,-9.7788,-9.8519,-9.8711,-9.9173,-9.9981,-10.0096,-10.0481,-10.1289,-10.1289,-10.1289,-10.1404,-10.1597,-10.1789,-10.209,-10.2494,-10.2788,-10.289,-10.3789,-10.4101,-9.1095,-9.121,-9.1095,-9.0633,-8.9248,-8.7094,-8.3632,-8.09,-7.813,-7.4668,-7.3668,-7.3245,-7.2822,-7.5899,-7.9438,-8.2362,-8.6401,-9.0941,-9.6095,-9.7557,-9.9404,-10.2904,-10.2904,-10.3097,-10.4405,-10.4482,-10.4482,-10.4482,-10.4905,-10.4982,-10.4482,-10.529,-10.5482,-10.5097,-10.5097,-10.4905,-10.4482,-10.4482,-10.4289,-10.3905,-10.2981,-10.2597,-10.2597,-10.1712,-10.1289,-10.1289,-10.1289,-10.1289,-10.1212,-10.0404,-10.0289,-10.0596,-9.9327,-9.9365,-9.9981,-9.9635,-10.0019,-10.0481,-9.9288,-9.8827,-9.8596,-9.7326,-9.6634,-9.6288,-9.6288,-9.6288,-9.6288,-9.6288,-9.6288,-9.6288,-9.6288,-9.6903,-9.7596,-9.8057,-9.8173,-9.8519,-9.9827,-9.9981,-10.0096,-10.0596,-10.0404,-9.9981,-9.9558,-9.9481,-9.9596,-9.9981,-10.0096,-9.9942,-9.9519,-9.9096,-9.8519,-9.7596,-9.8288,-9.9019,-9.9442,-9.9865,-10.0289,-10.0712,-10.0712,-10.0904,-10.1289,-10.1289,-10.1289,-10.1289,-10.1904,-10.2212,-10.2404,-10.3006,-10.3521,-10.3885,-10.4405,-10.4687,-9.1171,-9.121,-9.0979,-9.0133,-8.8363,-8.5632,-8.09,-7.8207,-7.563,-7.1706,-7.1437,-7.1783,-7.1283,-7.4091,-7.7284,-7.9708,-8.3324,-8.794,-9.3864,-9.5788,-9.825,-10.2789,-10.3097,-10.3482,-10.4982,-10.529,-10.5405,-10.5405,-10.602,-10.6097,-10.5405,-10.5405,-10.5097,-10.4482,-10.4982,-10.5097,-10.4405,-10.5097,-10.5097,-10.4405,-10.3405,-10.2904,-10.2789,-10.1789,-10.1289,-10.1289,-10.1289,-10.1289,-10.1289,-10.0596,-10.0404,-10.0289,-10.0173,-10.0212,-10.0404,-10.0904,-10.1212,-10.1212,-10.0404,-9.9519,-9.8673,-9.7788,-9.698,-9.6288,-9.6288,-9.6288,-9.6288,-9.6288,-9.6288,-9.6326,-9.6519,-9.7173,-9.7942,-9.8634,-9.9058,-9.9365,-9.9519,-9.9442,-9.9673,-10.0789,-10.0712,-10.0404,-10.0404,-10.0404,-10.0404,-10.0404,-10.0904,-10.1019,-10.0212,-10.0289,-9.975,-9.8211,-9.9288,-10.0173,-10.0289,-10.0904,-10.1289,-10.1289,-10.1289,-10.1289,-10.1289,-10.152,-10.1597,-10.1597,-10.2404,-10.2904,-10.2904,-10.3797,-10.44,-10.4798,-10.5217,-10.5508,-9.0979,-9.121,-9.0979,-9.0133,-8.7517,-8.4209,-8.0631,-7.7284,-7.4168,-7.1475,-7.0975,-7.1245,-7.1937,-7.3053,-7.5399,-8.0208,-8.3247,-8.7055,-9.2979,-9.5865,-9.8404,-10.1212,-10.2904,-10.4097,-10.4982,-10.579,-10.629,-10.629,-10.6405,-10.6405,-10.629,-10.629,-10.6213,-10.6213,-10.6213,-10.6213,-10.6213,-10.6213,-10.6213,-10.6213,-10.4482,-10.3789,-10.3712,-10.2097,-10.1289,-10.1289,-10.1289,-10.1289,-10.1289,-10.1212,-10.1212,-10.1096,-10.0404,-10.0481,-10.1096,-10.0481,-10.0712,-10.1212,-10.0404,-9.9519,-9.8673,-9.7788,-9.698,-9.6288,-9.6288,-9.6288,-9.6288,-9.6288,-9.6288,-9.648,-9.7211,-9.8019,-9.8711,-9.8788,-9.9942,-10.0519,-9.8211,-9.9481,-10.0904,-10.0289,-10.0712,-10.1212,-10.1212,-10.1212,-10.1212,-10.1212,-10.1289,-10.1019,-10.0212,-10.0712,-10.0789,-9.9942,-9.9981,-10.0404,-10.1096,-10.1289,-10.1289,-10.1289,-10.1289,-10.1289,-10.1289,-10.2097,-10.252,-10.252,-10.3289,-10.3905,-10.4135,-10.4175,-10.4484,-10.5101,-10.5792,-10.6289,-8.9902,-9.0787,-9.0864,-8.9517,-8.6632,-8.3208,-7.9785,-7.6399,-7.3399,-7.1321,-7.0898,-7.1014,-7.136,-7.1706,-7.3283,-7.7361,-7.89,-8.1785,-8.8209,-9.0902,-9.4095,-9.9173,-10.1289,-10.3289,-10.5713,-10.6213,-10.6405,-10.6405,-10.6405,-10.6405,-10.6405,-10.6405,-10.6405,-10.6405,-10.6405,-10.6405,-10.6405,-10.6405,-10.6405,-10.6405,-10.5213,-10.4405,-10.3905,-10.2597,-10.1789,-10.1289,-10.1289,-10.1597,-10.202,-10.152,-10.1597,-10.202,-10.1212,-10.1019,-10.1289,-10.0904,-10.1019,-10.1289,-10.0904,-9.9942,-9.875,-9.8404,-9.7365,-9.6288,-9.6288,-9.6288,-9.6288,-9.6288,-9.6288,-9.648,-9.7288,-9.8134,-9.9058,-10.0096,-10.0019,-9.9788,-9.9788,-10.0212,-10.0596,-10.0789,-10.1096,-10.1289,-10.1289,-10.1289,-10.1289,-10.1289,-10.1289,-10.1212,-10.0904,-10.1096,-10.1212,-10.0904,-10.0789,-10.0981,-10.1289,-10.1289,-10.152,-10.202,-10.1597,-10.152,-10.2097,-10.2404,-10.2597,-10.2597,-10.3905,-10.4713,-10.4713,-10.5328,-10.5828,-10.6407,-10.6699,-10.7083,-8.8094,-8.9594,-9.0056,-8.8363,-8.5555,-8.2324,-7.89,-7.5745,-7.3014,-7.1245,-7.0898,-7.0898,-7.0898,-7.1091,-7.2245,-7.513,-7.6476,-7.9246,-8.5247,-8.8017,-9.1479,-9.7019,-9.9173,-10.1404,-10.4597,-10.579,-10.6405,-10.6405,-10.6405,-10.6405,-10.6405,-10.6405,-10.6405,-10.6405,-10.6405,-10.6405,-10.6405,-10.6405,-10.6405,-10.6405,-10.529,-10.4405,-10.3905,-10.2712,-10.1904,-10.1289,-10.1289,-10.1597,-10.2212,-10.1597,-10.1712,-10.2212,-10.152,-10.1289,-10.1289,-10.1289,-10.1289,-10.1289,-10.1289,-10.0212,-9.8827,-9.9096,-9.8057,-9.6634,-9.6634,-9.648,-9.6288,-9.6288,-9.6673,-9.7173,-9.775,-9.8519,-9.9404,-10.0289,-9.9673,-9.9058,-9.9981,-10.0096,-10.0289,-10.0789,-10.1096,-10.1289,-10.1289,-10.1096,-10.1019,-10.1289,-10.1096,-10.1019,-10.1289,-10.1289,-10.1289,-10.1289,-10.1289,-10.1289,-10.1289,-10.152,-10.1904,-10.2597,-10.2289,-10.2289,-10.2981,-10.3212,-10.3289,-10.3289,-10.4789,-10.5482,-10.5482,-10.6097,-10.6597,-10.71,-10.7115,-10.7416,-8.544,-8.7401,-8.8286,-8.6555,-8.4209,-8.1439,-7.8092,-7.5322,-7.3014,-7.1245,-7.0898,-7.0898,-7.0898,-7.1591,-7.2745,-7.4437,-7.7553,-8.1246,-8.5517,-8.9017,-9.2133,-9.4711,-9.6519,-9.8557,-10.1096,-10.4405,-10.6405,-10.6405,-10.6405,-10.6405,-10.6405,-10.6405,-10.6405,-10.6405,-10.6405,-10.6405,-10.6405,-10.6405,-10.6405,-10.6405,-10.4713,-10.3905,-10.3789,-10.2097,-10.1289,-10.1289,-10.1289,-10.1289,-10.1289,-10.1289,-10.1289,-10.1289,-10.1289,-10.1289,-10.1289,-10.1289,-10.1289,-10.1289,-10.1289,-10.0212,-9.8942,-9.9788,-9.8904,-9.748,-9.748,-9.6942,-9.6288,-9.6288,-9.748,-9.8788,-9.8788,-9.9442,-9.9865,-9.9019,-9.8788,-9.8557,-9.7711,-9.8904,-10.0096,-10.0096,-10.0789,-10.1289,-10.1289,-10.0596,-10.0404,-10.1212,-10.0596,-10.0404,-10.1212,-10.1289,-10.1289,-10.1289,-10.1289,-10.1289,-10.1289,-10.2097,-10.2597,-10.2597,-10.3405,-10.3905,-10.3905,-10.4713,-10.5097,-10.5097,-10.5905,-10.6405,-10.6405,-10.6405,-10.6521,-10.6831,-10.6789,-10.7087,-7.94,-8.1323,-8.2208,-8.0516,-7.9015,-7.7438,-7.5207,-7.363,-7.2283,-7.1129,-7.0898,-7.0898,-7.0898,-7.1591,-7.3322,-7.6746,-7.8707,-8.1285,-8.5517,-8.9056,-9.2364,-9.5518,-10.0404,-10.3905,-10.4713,-10.579,-10.6405,-10.6405,-10.6405,-10.6405,-10.6405,-10.6405,-10.6405,-10.6405,-10.6405,-10.6405,-10.6405,-10.6405,-10.6405,-10.6405,-10.5905,-10.4982,-10.3905,-10.3289,-10.2404,-10.1289,-10.1289,-10.1597,-10.2097,-10.152,-10.1712,-10.2097,-10.152,-10.1289,-10.1289,-10.1289,-10.1289,-10.1289,-10.1289,-10.0212,-9.8942,-9.9827,-9.8904,-9.7519,-9.7519,-9.7326,-9.7134,-9.7134,-9.7519,-9.8057,-9.8634,-9.8557,-9.8557,-9.9481,-9.9211,-9.9019,-9.9904,-10.0519,-10.0904,-10.0904,-10.1096,-10.1096,-10.0596,-10.0289,-10.0173,-10.0404,-10.0289,-10.0404,-10.1212,-10.1289,-10.1289,-10.1289,-10.1289,-10.1289,-10.1289,-10.1597,-10.202,-10.2597,-10.2289,-10.2712,-10.3905,-10.4097,-10.4482,-10.5097,-10.602,-10.6405,-10.6405,-10.6405,-10.6521,-10.679,-10.6989,-10.7309,-7.4245,-7.6592,-7.763,-7.6592,-7.5668,-7.463,-7.2899,-7.2091,-7.1475,-7.0629,-7.0706,-7.0898,-7.0898,-7.186,-7.3553,-7.6169,-7.84,-8.1054,-8.4632,-8.8363,-9.221,-9.6288,-10.1597,-10.502,-10.502,-10.579,-10.6405,-10.6405,-10.6405,-10.6405,-10.6405,-10.6097,-10.6097,-10.6405,-10.6405,-10.6405,-10.6405,-10.6405,-10.6405,-10.6405,-10.6097,-10.5405,-10.4289,-10.3712,-10.2981,-10.2212,-10.1597,-10.1789,0.0,-10.1712,-10.1597,-10.2097,-10.152,-10.1289,-10.1289,-10.1289,-10.1289,-10.1289,-10.1289,-10.0404,-9.9442,-10.0289,-9.9596,-9.8481,-9.8481,-9.8019,-9.7519,-9.7519,-9.775,-9.8134,-9.8673,-9.8134,-9.7788,-9.8865,-9.8711,-9.8673,-10.0096,-10.0596,-10.0789,-10.0789,-10.1096,-10.1019,-10.0212,-10.0096,-10.0212,-10.0481,-10.0289,-10.0404,-10.1212,-10.1289,-10.1289,-10.1289,-10.1289,-10.1289,-10.1289,-10.1597,-10.2212,-10.302,-10.2904,-10.3405,-10.4789,-10.4789,-10.5097,-10.5597,-10.6097,-10.6405,-10.6405,-10.6405,-10.6521,-10.6713,-10.6905,-10.7098,0.0,-7.2668,-7.3976,-7.3976,-7.3476,-7.2552,-7.0975,-7.0667,0.0,-6.9744,-7.0244,-7.086,-7.1052,-7.2399,-7.363,-7.3976,-7.7438,-8.0977,-8.3516,-8.7709,-9.2364,-9.7288,-10.0789,-10.2789,-10.2789,-10.502,-10.6405,-10.6405,-10.6405,-10.6405,-10.6405,-10.5597,-10.5482,-10.6405,-10.629,-10.629,-10.6405,-10.6405,-10.6405,-10.6405,-10.5597,-10.5174,-10.4982,-10.3482,-10.3212,-10.3712,-10.2097,-10.1789,-10.2404,-10.1597,-10.1289,-10.1289,-10.1289,-10.1289,-10.1289,-10.1289,-10.1289,-10.1289,-10.1289,-10.0789,-10.0212,-10.1019,-10.0712,-10.0096,-10.0096,-9.8942,-9.7596,-9.7673,-9.8211,-9.8788,-9.8788,-9.8134,-9.7519,-9.7519,-9.7557,-9.7827,-9.8634,-9.9481,-10.0096,-9.9981,-10.0596,-10.0904,-10.0096,-9.9981,-10.0289,-10.1096,-10.0596,-10.0404,-10.1212,-10.1289,-10.1289,-10.1289,-10.1289,-10.1289,-10.1289,-10.202,-10.2904,-10.3712,-10.4482,-10.529,-10.6213,-10.629,-10.629,-10.6405,-10.6405,-10.6405,-10.6405,-10.6405,-10.6405,-10.6405,-10.6713,-10.679,-6.2858,0.0,-6.6974,-6.6974,-6.7321,-6.7744,0.0,-6.8513,-6.8936,-6.8744,-6.9398,-7.0591,-7.2552,-7.3245,-7.4784,-7.8669,-8.1208,-8.3593,-8.6132,-9.2402,-9.7865,-10.1019,-10.3789,-10.5213,-10.4597,-10.5713,-10.6405,-10.6405,-10.6405,-10.6405,-10.6405,-10.5597,-10.5482,-10.6405,-10.579,-10.5713,-10.6405,-10.6405,-10.6405,-10.6405,-10.6213,-10.5713,-10.5097,-10.4713,-10.3905,-10.2904,-10.252,-10.202,-10.1597,-10.1404,-10.1289,-10.1289,-10.1289,-10.1289,-10.1289,-10.1289,-10.1289,-10.1289,-10.1289,-10.0789,-10.0096,-10.0289,-10.0289,-10.0096,-10.0096,-9.9327,-9.8634,-9.9288,-9.9173,-9.8788,-9.8788,-9.8134,-9.7519,-9.7519,-9.8019,-9.8557,-9.875,-9.9481,-9.9904,-9.9211,-9.925,-9.9327,-9.9135,-9.9096,-9.9404,-10.0289,-10.0212,-10.0404,-10.1212,-10.1289,-10.1289,-10.1289,-10.1289,-10.1289,-10.1289,-10.152,-10.1712,-10.1904,-10.2712,-10.3597,-10.4482,-10.5097,-10.5713,-10.6405,-10.6405,-10.6405,-10.6405,-10.6405,-10.6405,-10.6405,-10.6521,-10.6713,-5.9973,-6.2666,-6.5282,-6.5667,-6.6397,-6.7167,-6.759,-6.7744,-6.7782,-6.7782,-6.8821,-7.0244,-7.1975,-7.3591,-7.5784,-7.9323,-8.2324,-8.5747,-9.0248,-9.5095,-9.9288,-10.2212,-10.4482,-10.5597,-10.5097,-10.5905,-10.6213,-10.579,-10.6213,-10.6213,-10.579,-10.4982,-10.4905,-10.579,-10.4982,-10.5097,-10.6405,-10.6405,-10.6405,-10.6405,-10.6405,-10.6213,-10.5713,-10.529,-10.4597,-10.3712,-10.2904,-10.2289,-10.1904,-10.152,-10.152,-10.1904,-10.152,-10.152,-10.1789,-10.1404,-10.1289,-10.1289,-10.1289,-10.1019,-10.0596,-10.0212,-10.0289,-10.0712,-10.0712,-10.0289,-9.9981,-10.0096,-9.9481,-9.8788,-9.8788,-9.7865,-9.7057,-9.7403,-9.8173,-9.8904,-9.9288,-10.0096,-10.0289,-9.9019,-9.9404,-9.9712,-9.8942,-9.9442,-10.0096,-10.0596,-10.0712,-10.0789,-10.1212,-10.1289,-10.1289,-10.1289,-10.1289,-10.1289,-10.1289,-10.1289,-10.1597,-10.2404,-10.2904,-10.3789,-10.4982,-10.5482,-10.5905,-10.6405,-10.6405,-10.6405,-10.6405,-10.6405,-10.6405,-10.6405,-10.6405,-10.6597,-5.9781,-6.3205,-6.6474,-6.6513,-6.7359,-6.8167,-6.8052,-6.7436,-6.6936,-6.7051,-6.8475,-7.0167,-7.1591,-7.4361,-7.7092,-7.9285,-8.3054,-8.794,-9.448,-9.6711,-9.8865,-10.202,-10.3905,-10.4905,-10.4713,-10.5482,-10.5713,-10.4982,-10.5597,-10.5713,-10.4982,-10.4097,-10.4097,-10.4905,-10.4097,-10.4482,-10.6213,-10.629,-10.6405,-10.6405,-10.6405,-10.6405,-10.6405,-10.5597,-10.5213,-10.4789,-10.3405,-10.2597,-10.2289,-10.1597,-10.1712,-10.2289,-10.1597,-10.1789,-10.2289,-10.1597,-10.1289,-10.1289,-10.1289,-10.1289,-10.1212,-10.0481,-10.0712,-10.1289,-10.1289,-10.1289,-10.1212,-10.0481,-9.9673,-9.8981,-9.8827,-9.775,-9.6826,-9.7365,-9.825,-9.9173,-9.975,-10.0481,-10.0712,-9.9096,-9.9942,-10.0519,-9.9211,-10.0212,-10.1212,-10.1289,-10.1289,-10.1289,-10.1289,-10.1289,-10.1289,-10.1289,-10.1289,-10.1289,-10.1289,-10.1289,-10.202,-10.3597,-10.3712,-10.4482,-10.6097,-10.629,-10.6405,-10.6405,-10.6405,-10.6405,-10.6405,-10.6405,-10.6405,-10.6405,-10.6405,-10.6405,-6.2089,-6.5859,-6.8282,-6.4782,-6.5628,-6.7128,-6.6436,-6.6167,-6.6282,-6.6974,-6.8475,-7.1052,-7.5515,-7.7284,-7.9592,-8.4209,-8.7286,-9.1018,-9.6365,-9.798,-9.9327,-10.1289,-10.302,-10.3789,-10.3097,-10.3789,-10.4212,-10.4097,-10.4212,-10.4212,-10.4097,-10.3289,-10.3212,-10.4097,-10.3212,-10.3597,-10.529,-10.602,-10.6405,-10.6405,-10.6405,-10.6405,-10.6405,-10.629,-10.5405,-10.4097,-10.3789,-10.2904,-10.152,-10.1404,-10.1404,-10.152,-10.1404,-10.1404,-10.152,-10.1289,-10.1289,-10.1289,-10.1289,-10.1289,-10.1289,-10.1212,-10.1212,-10.1289,-10.1289,-10.1289,-10.1289,-10.1212,-10.0481,-9.9712,-9.8981,-9.8596,-9.825,-9.7634,-9.8711,-9.9712,-9.9135,-9.9673,-9.9981,-9.8981,-9.9019,-9.9327,-9.9827,-10.0096,-10.0481,-10.1212,-10.1289,-10.1289,-10.1289,-10.1289,-10.1289,-10.1289,-10.1289,-10.1289,-10.1289,-10.1289,-10.1712,-10.2712,-10.2789,-10.3597,-10.5213,-10.602,-10.6405,-10.6405,-10.6405,-10.6405,-10.6405,-10.6405,-10.6405,-10.6405,-10.6405,-10.6521,-6.0935,-6.4705,-6.7821,-6.5859,-6.8282,-7.1129,-7.0744,-6.9937,-6.9552,-7.0398,-7.1552,-7.3553,-7.7246,-7.9361,-8.2362,-8.794,-9.0594,-9.3249,-9.698,-9.7827,-9.8904,-10.1019,-10.2404,-10.302,-10.2597,-10.3405,-10.3905,-10.3905,-10.3905,-10.3905,-10.3905,-10.3097,-10.2789,-10.3212,-10.2789,-10.2981,-10.3712,-10.4982,-10.5905,-10.6405,-10.6405,-10.6405,-10.6405,-10.5905,-10.4982,-10.3905,-10.3905,-10.2904,-10.1289,-10.1789,-10.202,-10.202,-10.152,-10.1597,-10.1904,-10.152,-10.1289,-10.1212,-10.0789,-10.0904,-10.1212,-10.0789,-10.0904,-10.1289,-10.1289,-10.1289,-10.1289,-10.1289,-10.0712,-9.9981,-9.9596,-9.9135,-9.8827,-9.8904,-9.9519,-10.0096,-10.0096,-10.0481,-10.0481,-9.9673,-9.9865,-10.0096,-10.0096,-10.0481,-10.0904,-10.1212,-10.1289,-10.1289,-10.1289,-10.1289,-10.1289,-10.1289,-10.1289,-10.1289,-10.1289,-10.1289,-10.1904,-10.3212,-10.3289,-10.4097,-10.5713,-10.5713,-10.5905,-10.6405,-10.6405,-10.6405,-10.6405,-10.6405,-10.6405,-10.6405,-10.6405,-10.6521,-6.055,-6.382,-6.7205,-6.759,-7.0629,-7.3783,-7.4784,-7.3553,-7.2745,-7.4591,-7.5476,-7.6669,-7.9208,-8.2093,-8.5709,-9.071,-9.2903,-9.4903,-9.7442,-9.7788,-9.8673,-10.1019,-10.1904,-10.2289,-10.2289,-10.2904,-10.3289,-10.3289,-10.3289,-10.3289,-10.3289,-10.2712,-10.2289,-10.2289,-10.2289,-10.2404,-10.2597,-10.3905,-10.4982,-10.6097,-10.629,-10.629,-10.6097,-10.5405,-10.4482,-10.3597,-10.3597,-10.2712,-10.1404,-10.202,-10.2289,-10.2212,-10.1597,-10.1712,-10.2212,-10.152,-10.1212,-10.0981,-10.0481,-10.0712,-10.0904,-10.0481,-10.0712,-10.1096,-10.1212,-10.1212,-10.1096,-10.1212,-10.0904,-10.0289,-10.0096,-9.9596,-9.925,-9.9942,-10.0212,-10.0481,-10.1212,-10.1289,-10.1096,-10.0481,-10.0904,-10.1096,-10.0481,-10.0904,-10.1289,-10.1289,-10.1289,-10.1289,-10.1289,-10.1289,-10.1289,-10.1289,-10.1289,-10.1289,-10.1289,-10.1289,-10.202,-10.3789,-10.3712,-10.4289,-10.579,-10.5405,-10.5482,-10.6405,-10.6405,-10.6405,-10.6405,-10.6405,-10.6405,-10.6405,-10.6405,-10.6405,-6.3589,-6.5628,-6.7475,-6.9129,-6.9783,-7.1091,-7.5014,-7.3976,-7.3553,-7.8361,-7.94,-8.0208,-8.2747,-8.6594,-9.0017,-9.2056,-9.3787,-9.5788,-9.8365,-9.8711,-9.9365,-10.1096,-10.1404,-10.1404,-10.1404,-10.152,-10.152,-10.152,-10.152,-10.152,-10.152,-10.1404,-10.1404,-10.1404,-10.1404,-10.1789,-10.2597,-10.2712,-10.3597,-10.5213,-10.602,-10.602,-10.5213,-10.5097,-10.4212,-10.2712,-10.2712,-10.2212,-10.1289,-10.1404,-10.1404,-10.1404,-10.1289,-10.1289,-10.1404,-10.1289,-10.0789,-10.0289,-10.1019,-10.0789,-10.0289,-10.1019,-10.0712,-10.0289,-10.1096,-10.0789,-10.0289,-10.1096,-10.1289,-10.1019,-10.0289,-10.0096,-9.9981,-10.0096,-10.0712,-10.1212,-10.1289,-10.1289,-10.1289,-10.1212,-10.1289,-10.1289,-10.1212,-10.1289,-10.1289,-10.1289,-10.1289,-10.1289,-10.1289,-10.1289,-10.1289,-10.1289,-10.1289,-10.1289,-10.1289,-10.1289,-10.202,-10.3789,-10.3097,-10.3097,-10.3982,-10.4713,-10.5482,-10.6405,-10.6405,-10.6405,-10.6405,-10.6405,-10.6405,-10.6405,-10.6405,-10.6405,-6.182,-6.4628,-6.7398,-6.859,-7.0514,-7.3053,-7.6707,-7.7246,-7.8207,-8.2785,-8.3708,-8.417,-8.567,-8.8556,-9.0941,-9.1595,-9.3557,-9.5518,-9.7019,-9.8134,-9.925,-10.0404,-10.1019,-10.1289,-10.1289,-10.1289,-10.152,-10.2097,-10.1597,-10.152,-10.2097,-10.1597,-10.1289,-10.1289,-10.1289,-10.152,-10.1789,-10.2289,-10.2904,-10.3597,-10.4405,-10.4713,-10.4289,-10.3789,-10.3212,-10.2597,-10.2597,-10.2097,-10.1289,-10.1904,-10.1789,-10.1289,-10.0712,-10.0212,-9.9827,-10.0404,-10.0404,-10.0212,-10.1019,-10.1096,-10.0904,-10.1212,-10.1096,-10.0904,-10.1212,-10.1096,-10.0904,-10.1212,-10.1289,-10.1212,-10.0904,-10.0789,-10.0789,-10.0789,-10.0712,-10.0712,-10.1212,-10.0904,-10.0712,-10.1212,-10.1289,-10.1289,-10.1289,-10.1289,-10.1289,-10.1289,-10.1289,-10.1289,-10.1289,-10.1289,-10.1289,-10.1289,-10.1289,-10.1289,-10.1289,-10.1289,-10.1789,-10.2981,-10.2789,-10.3482,-10.5405,-10.5213,-10.5482,-10.6405,-10.6405,-10.6405,-10.6405,-10.6405,-10.6405,-10.6405,-10.6405,-10.6405,-6.1127,-6.3897,-6.7051,-6.8475,-7.0975,-7.4245,-7.8669,-7.9977,-8.1554,-8.6324,-8.7094,-8.7094,-8.7709,-8.9248,-9.0671,-9.1479,-9.3287,-9.5057,-9.648,-9.7673,-9.8711,-9.9596,-10.0212,-10.0596,-10.0904,-10.0904,-10.1289,-10.2097,-10.1597,-10.1597,-10.2212,-10.1597,-10.1289,-10.1289,-10.1289,-10.1289,-10.1289,-10.1904,-10.2212,-10.2212,-10.2789,-10.3212,-10.3482,-10.2904,-10.2404,-10.2212,-10.2212,-10.1904,-10.1289,-10.1712,-10.1289,-10.0519,-9.9904,-9.9327,-9.8865,-9.9481,-9.9519,-9.9404,-10.0212,-10.0289,-10.0212,-10.0712,-10.0712,-10.0596,-10.0789,-10.0712,-10.0596,-10.0789,-10.0904,-10.1019,-10.1212,-10.1289,-10.1212,-10.1019,-10.0712,-10.0596,-10.1212,-10.0904,-10.0596,-10.1212,-10.1289,-10.1289,-10.1289,-10.1289,-10.1289,-10.1289,-10.1289,-10.1289,-10.1289,-10.1289,-10.1289,-10.1289,-10.1289,-10.1289,-10.1289,-10.1597,-10.2097,-10.2981,-10.3212,-10.4212,-10.5905,-10.5405,-10.5482,-10.6405,-10.6405,-10.6405,-10.6405,-10.6405,-10.6405,-10.6405,-10.6405,-10.6405,-6.2281,-6.3935,-6.6513,-6.9052,-7.1014,-7.4053,-8.0785,-8.1708,-8.2824,-8.8709,-8.9286,-8.8709,-8.8709,-8.8709,-8.9517,-9.2056,-9.3172,-9.4595,-9.7096,-9.748,-9.7827,-9.8673,-9.8788,-9.9135,-9.9981,-10.0096,-10.0404,-10.1212,-10.1289,-10.1289,-10.1289,-10.1289,-10.1289,-10.1289,-10.1289,-10.1289,-10.1289,-10.1289,-10.1289,-10.1289,-10.1289,-10.1712,-10.2597,-10.2597,-10.2097,-10.1289,-10.1289,-10.1289,-10.1212,-10.0404,-9.9558,-9.8788,-9.8788,-9.8788,-9.8788,-9.8788,-9.825,-9.7634,-9.8481,-9.825,-9.7827,-9.9519,-9.9519,-9.8981,-9.9827,-9.9481,-9.8981,-9.9865,-10.0096,-10.0289,-10.1096,-10.1289,-10.1096,-10.0289,-10.0712,-10.1289,-10.1289,-10.1289,-10.1289,-10.1289,-10.1289,-10.1289,-10.1289,-10.1289,-10.1289,-10.1289,-10.1289,-10.1289,-10.1289,-10.1289,-10.1289,-10.1289,-10.1289,-10.1289,-10.1289,-10.2097,-10.2981,-10.3789,-10.4597,-10.5097,-10.5097,-10.5097,-10.5482,-10.6405,-10.6405,-10.6405,-10.6405,-10.6405,-10.6405,-10.6405,-10.6405,-10.6405,-6.058,-6.3207,-6.6787,-6.9113,-7.3668,-7.8554,-8.2362,-8.3516,-8.5132,-8.9863,-9.0133,-8.9556,-8.9556,-8.9556,-8.9787,-9.0556,-9.2364,-9.3941,-9.4711,-9.6365,-9.7596,-9.7865,-9.8442,-9.8904,-9.9173,-9.975,-10.0173,-10.0404,-10.1019,-10.1289,-10.1289,-10.1289,-10.1289,-10.1289,-10.0789,-10.0712,-10.1289,-10.0096,-9.9865,-10.0404,-9.9827,-10.0289,-10.1712,-10.1712,-10.152,-10.1289,-10.1289,-10.1019,-10.0404,-9.9519,-9.9019,-9.875,-9.8134,-9.7557,-9.7096,-9.7673,-9.7711,-9.7634,-9.8481,-9.9019,-9.9288,-9.9211,-9.9442,-9.9635,-9.9288,-9.9442,-9.975,-9.9981,-10.0481,-10.0712,-9.9788,-10.0404,-10.1096,-10.0289,-9.9365,-9.8788,-9.9404,-9.9558,-9.9712,-10.0289,-10.0904,-10.1289,-10.1289,-10.1289,-10.1289,-10.1289,-10.1289,-10.1289,-10.1289,-10.1289,-10.1289,-10.1289,-10.1289,-10.1289,-10.1289,-10.152,-10.2289,-10.3789,-10.4097,-10.4789,-10.602,-10.602,-10.6097,-10.6405,-10.6405,-10.6405,-10.6405,-10.6405,-10.6405,-10.6405,-10.6405,-10.6405,-6.2938,-6.5805,-6.9413,-7.2419,-7.6784,-8.1323,-8.5209,-8.6517,-8.7709,-9.0594,-9.0517,-9.0017,-9.0364,-9.0133,-9.0133,-9.0825,-9.221,-9.3326,-9.3672,-9.5018,-9.6134,-9.648,-9.698,-9.7557,-9.8211,-9.875,-9.9211,-9.9558,-9.9981,-10.0289,-10.0289,-10.0289,-10.0519,-10.0789,-9.9981,-9.9981,-10.0789,-9.9481,-9.9058,-9.9558,-9.9058,-9.9327,-10.0289,-10.0289,-10.0519,-10.0789,-10.1212,-10.0519,-9.9058,-9.8865,-9.8404,-9.775,-9.725,-9.6749,-9.6365,-9.6826,-9.7019,-9.7096,-9.7634,-9.8134,-9.8557,-9.8365,-9.8634,-9.8981,-9.8442,-9.8634,-9.9135,-9.9481,-9.9942,-10.0212,-9.9481,-9.9827,-10.0096,-9.925,-9.8788,-9.8673,-9.9211,-9.9327,-9.9558,-10.0404,-10.1019,-10.1212,-10.0904,-10.1096,-10.1212,-10.0904,-10.1096,-10.1289,-10.1289,-10.1289,-10.1289,-10.1289,-10.1289,-10.1289,-10.1289,-10.1904,-10.2789,-10.3789,-10.4482,-10.529,-10.6405,-10.6405,-10.6405,-10.6405,-10.6405,-10.6405,-10.6405,-10.6405,-10.6405,-10.6405,-10.6405,-10.6405,-6.7226,-6.997,-7.3082,-7.7438,-8.0169,-8.3208,-8.8671,-8.9979,-9.0248,-9.1056,-9.0556,-9.0287,-9.1056,-9.0556,-9.0556,-9.2133,-9.2441,-9.2749,-9.348,-9.3633,-9.398,-9.4788,-9.4941,-9.5595,-9.7134,-9.7403,-9.7827,-9.8634,-9.875,-9.8788,-9.8788,-9.8788,-9.9173,-9.9942,-9.9135,-9.9096,-9.9981,-9.9019,-9.8596,-9.8673,-9.8596,-9.8557,-9.8557,-9.8711,-9.9211,-9.9981,-10.0712,-9.9673,-9.7673,-9.8288,-9.7711,-9.6403,-9.6326,-9.6288,-9.6288,-9.6288,-9.6288,-9.6288,-9.6288,-9.6365,-9.6519,-9.7173,-9.7442,-9.748,-9.7403,-9.7442,-9.7673,-9.8442,-9.875,-9.8942,-9.9673,-9.9327,-9.8557,-9.7634,-9.8596,-9.975,-9.975,-9.9788,-10.0096,-10.0789,-10.1096,-10.0981,-10.0212,-10.0789,-10.1096,-10.0289,-10.0789,-10.1289,-10.1289,-10.1289,-10.1289,-10.1289,-10.1289,-10.1289,-10.1289,-10.2789,-10.3712,-10.3905,-10.529,-10.6213,-10.6405,-10.6405,-10.6405,-10.6405,-10.6405,-10.6405,-10.6405,-10.6405,-10.6405,-10.6405,-10.6405,-10.6405,-6.4496,-6.7893,-7.2202,-7.7278,-8.2824,-8.7555,-8.9479,-9.0441,-9.0979,-9.1171,-9.1056,-9.0979,-9.1171,-9.1056,-9.1056,-9.1441,-9.2056,-9.2556,-9.271,-9.3287,-9.3749,-9.3941,-9.4557,-9.5134,-9.548,-9.6711,-9.7596,-9.7788,-9.8404,-9.8788,-9.8788,-9.8788,-9.8904,-9.9058,-9.8211,-9.8211,-9.9058,-9.7596,-9.7134,-9.7788,-9.7134,-9.6826,-9.6865,-9.8211,-9.8904,-9.9058,-9.8557,-9.8404,-9.8442,-9.7288,-9.7019,-9.7173,-9.6557,-9.6288,-9.6288,-9.6288,-9.6288,-9.6288,-9.6288,-9.6711,-9.7173,-9.6711,-9.698,-9.7365,-9.6749,-9.7019,-9.7557,-9.7711,-9.825,-9.8673,-9.8173,-9.8442,-9.8404,-9.6903,-9.6826,-9.7134,-9.7134,-9.7596,-9.8096,-9.8288,-9.9404,-10.0289,-10.0096,-10.0789,-10.1212,-10.1096,-10.1212,-10.1289,-10.1289,-10.1289,-10.1289,-10.1289,-10.1289,-10.1289,-10.1289,-10.1597,-10.2404,-10.3789,-10.4212,-10.502,-10.629,-10.6405,-10.6405,-10.6405,-10.6405,-10.6405,-10.6405,-10.6405,-10.6405,-10.6405,-10.6405,-10.6405,-6.5394,-6.923,-7.3762,-8.0005,-8.4863,-8.8286,-8.9133,-8.9671,-9.0094,-9.0517,-9.0902,-9.121,-9.121,-9.121,-9.121,-9.121,-9.1595,-9.1864,-9.1864,-9.2249,-9.2672,-9.3095,-9.3518,-9.4095,-9.4903,-9.5788,-9.648,-9.6903,-9.7365,-9.7596,-9.7596,-9.7596,-9.7788,-9.8173,-9.7365,-9.7326,-9.8173,-9.6942,-9.6519,-9.6903,-9.6519,-9.6288,-9.6326,-9.7596,-9.798,-9.7634,-9.798,-9.7904,-9.7557,-9.7096,-9.6903,-9.6865,-9.648,-9.6288,-9.6288,-9.6288,-9.6288,-9.6288,-9.6288,-9.6557,-9.6865,-9.6442,-9.6596,-9.6865,-9.6442,-9.6596,-9.7019,-9.7403,-9.7827,-9.8057,-9.7634,-9.7827,-9.7865,-9.6596,-9.6596,-9.6865,-9.6865,-9.7211,-9.7634,-9.8057,-9.8865,-9.9481,-9.9481,-10.0212,-10.0904,-10.1212,-10.1289,-10.1289,-10.1289,-10.1289,-10.1289,-10.1289,-10.1289,-10.1289,-10.1289,-10.1712,-10.252,-10.3789,-10.4289,-10.5097,-10.629,-10.6405,-10.6405,-10.6405,-10.6405,-10.6405,-10.6405,-10.6405,-10.6405,-10.6405,-10.6405,-10.6405,-6.617,-7.0896,-7.5914,-8.2918,-8.594,-8.7401,-8.8286,-8.8594,-8.8902,-8.9556,-9.0402,-9.1018,-9.1171,-9.121,-9.121,-9.121,-9.121,-9.121,-9.121,-9.121,-9.1479,-9.2172,-9.2402,-9.3018,-9.4441,-9.4672,-9.5057,-9.5788,-9.5865,-9.5865,-9.5865,-9.598,-9.6365,-9.7057,-9.6557,-9.6634,-9.7288,-9.6634,-9.6288,-9.6288,-9.6288,-9.6211,-9.6095,-9.6903,-9.6942,-9.6365,-9.775,-9.7596,-9.6365,-9.7019,-9.6903,-9.6288,-9.6288,-9.6288,-9.6288,-9.6288,-9.6288,-9.6288,-9.6288,-9.6288,-9.6288,-9.6288,-9.6288,-9.6288,-9.6288,-9.6288,-9.6442,-9.7096,-9.7288,-9.7288,-9.7288,-9.7288,-9.7134,-9.648,-9.6826,-9.7288,-9.7288,-9.7288,-9.7519,-9.8211,-9.8596,-9.8865,-9.8981,-9.975,-10.0481,-10.1212,-10.1289,-10.1289,-10.1289,-10.1289,-10.1289,-10.1289,-10.1289,-10.1289,-10.1289,-10.202,-10.2712,-10.3597,-10.4289,-10.5097,-10.5905,-10.6097,-10.6213,-10.6213,-10.629,-10.6405,-10.6405,-10.6405,-10.6405,-10.6405,-10.6405,-10.6405,-6.1456,-6.8678,-7.6595,-8.2336,-8.5016,-8.6517,-8.7363,-8.8171,-8.8709,-8.8825,-8.9517,-9.0325,-9.1056,-9.121,-9.121,-9.121,-9.121,-9.121,-9.121,-9.121,-9.1248,-9.1364,-9.2056,-9.2595,-9.2826,-9.3441,-9.3903,-9.4018,-9.4057,-9.4057,-9.4057,-9.4749,-9.5211,-9.5326,-9.5942,-9.6365,-9.648,-9.6365,-9.6288,-9.6288,-9.6288,-9.5903,-9.5211,-9.6057,-9.6403,-9.6326,-9.6557,-9.6519,-9.6326,-9.6442,-9.6403,-9.6288,-9.6288,-9.6288,-9.6288,-9.6288,-9.6288,-9.6288,-9.6288,-9.6288,-9.6288,-9.6288,-9.6288,-9.6288,-9.6288,-9.6288,-9.6326,-9.6442,-9.648,-9.648,-9.648,-9.648,-9.6442,-9.6326,-9.6365,-9.648,-9.648,-9.648,-9.648,-9.6596,-9.7827,-9.9019,-9.9788,-10.0596,-10.1212,-10.1289,-10.1289,-10.1289,-10.1289,-10.1289,-10.1289,-10.1289,-10.1289,-10.1289,-10.1289,-10.1404,-10.1789,-10.2712,-10.2904,-10.3289,-10.4212,-10.4905,-10.529,-10.529,-10.602,-10.6405,-10.6405,-10.6405,-10.6405,-10.6405,-10.6405,-10.6405,-6.3606,-6.9814,-7.5834,-8.0953,-8.3093,-8.4324,-8.5709,-8.6286,-8.6824,-8.7786,-8.8248,-8.8902,-9.0248,-9.0864,-9.121,-9.121,-9.121,-9.121,-9.121,-9.121,-9.121,-9.121,-9.1556,-9.1979,-9.2441,-9.2826,-9.321,-9.3672,-9.371,-9.371,-9.371,-9.4057,-9.4249,-9.4249,-9.5134,-9.5557,-9.5557,-9.5557,-9.5326,-9.4864,-9.5326,-9.5134,-9.4287,-9.5172,-9.5557,-9.5595,-9.6095,-9.6288,-9.6288,-9.6288,-9.6288,-9.6288,-9.6288,-9.6288,-9.6288,-9.6288,-9.6288,-9.6288,-9.6288,-9.6288,-9.6288,-9.6288,-9.6288,-9.6288,-9.6288,-9.6288,-9.6288,-9.6288,-9.6288,-9.6288,-9.6288,-9.6288,-9.6288,-9.6288,-9.6288,-9.6288,-9.6288,-9.6288,-9.6288,-9.6288,-9.7634,-9.8904,-9.9288,-10.0404,-10.1289,-10.1289,-10.1289,-10.1289,-10.1289,-10.1289,-10.1289,-10.1289,-10.1289,-10.1289,-10.1289,-10.1289,-10.1712,-10.252,-10.2597,-10.2981,-10.3905,-10.4212,-10.4597,-10.5097,-10.602,-10.6405,-10.6405,-10.6405,-10.6405,-10.6405,-10.6405,-10.6405,-6.4176,-6.8641,-7.2424,-7.7911,-8.0235,-8.1656,-8.3581,-8.4455,-8.5214,-8.6303,-8.6987,-8.7786,-8.9017,-9.0133,-9.0941,-9.1171,-9.121,-9.121,-9.121,-9.121,-9.121,-9.121,-9.121,-9.1479,-9.2095,-9.2172,-9.2402,-9.3018,-9.3056,-9.3056,-9.3056,-9.3249,-9.3403,-9.3403,-9.421,-9.4672,-9.4672,-9.4672,-9.4326,-9.371,-9.4364,-9.421,-9.3403,-9.4287,-9.4557,-9.4403,-9.548,-9.598,-9.598,-9.6211,-9.6288,-9.6288,-9.6288,-9.6288,-9.6288,-9.6288,-9.6288,-9.6288,-9.6057,-9.6095,-9.6249,-9.6057,-9.6134,-9.6288,-9.6288,-9.6288,-9.6288,-9.6288,-9.6288,-9.6288,-9.6288,-9.6288,-9.6288,-9.6288,-9.6288,-9.6288,-9.6288,-9.6288,-9.6288,-9.6288,-9.7634,-9.8788,-9.8788,-10.0212,-10.1212,-10.1019,-10.1212,-10.1212,-10.1019,-10.1212,-10.1289,-10.1289,-10.1289,-10.1289,-10.1289,-10.1289,-10.1597,-10.2212,-10.2289,-10.2597,-10.3212,-10.3482,-10.3905,-10.4482,-10.5482,-10.6213,-10.6405,-10.6405,-10.6405,-10.6405,-10.6405,-10.629,-5.9201,-6.1793,-6.5003,-7.25,-7.6227,-7.8635,-8.1041,-8.3288,-8.4729,-8.4213,-8.5854,-8.744,-8.7517,-8.8863,-9.0248,-9.1056,-9.121,-9.121,-9.121,-9.121,-9.121,-9.121,-9.121,-9.121,-9.1248,-9.1287,-9.1287,-9.1325,-9.1325,-9.1325,-9.1325,-9.2095,-9.2556,-9.2556,-9.3364,-9.3749,-9.3749,-9.3749,-9.3749,-9.371,-9.3749,-9.3326,-9.2595,-9.3403,-9.3364,-9.271,-9.4364,-9.5057,-9.5134,-9.5942,-9.6288,-9.6288,-9.6288,-9.6288,-9.6288,-9.6288,-9.6288,-9.6172,-9.5326,-9.5595,-9.6172,-9.5326,-9.5634,-9.6288,-9.6288,-9.6288,-9.6288,-9.6288,-9.6288,-9.6288,-9.6288,-9.6288,-9.6288,-9.6288,-9.6288,-9.6288,-9.6288,-9.6288,-9.6288,-9.6288,-9.7634,-9.8788,-9.8788,-10.0212,-10.1019,-10.0289,-10.0789,-10.1019,-10.0289,-10.0789,-10.1289,-10.1289,-10.1289,-10.1289,-10.1289,-10.1289,-10.1289,-10.1404,-10.1404,-10.1404,-10.1404,-10.2212,-10.2712,-10.2712,-10.4289,-10.5597,-10.6405,-10.6405,-10.6405,-10.6405,-10.6405,-10.602,-5.8191,-6.0519,-6.315,-6.8906,-7.2168,-7.4786,-7.7741,-7.9958,-8.1672,-8.2975,-8.3943,-8.4834,-8.5937,-8.7772,-8.9402,-9.0248,-9.0364,-9.0411,-9.0451,-9.0876,-9.0876,-8.9939,-9.0241,-9.0326,-8.9893,-8.9847,-8.9847,-8.9847,-8.9847,-9.0028,-9.0488,-9.0794,-9.1183,-9.1672,-9.2479,-9.2941,-9.2941,-9.2941,-9.2633,-9.2095,-9.2672,-9.2479,-9.171,-9.2556,-9.2479,-9.1748,-9.2903,-9.3672,-9.4172,-9.448,-9.4941,-9.5403,-9.4864,-9.498,-9.548,-9.548,-9.5095,-9.4672,-9.4903,-9.5211,-9.5403,-9.5095,-9.5595,-9.6288,-9.6288,-9.6288,-9.6288,-9.6288,-9.6288,-9.6288,-9.6288,-9.6288,-9.6288,-9.6288,-9.6288,-9.6288,-9.6288,-9.6711,-9.7057,-9.7057,-9.8442,-9.9635,-9.9635,-10.0596,-10.1212,-10.0904,-10.1096,-10.1212,-10.0904,-10.1096,-10.1289,-10.1289,-10.1289,-10.1289,-10.1289,-10.1289,-10.1289,-10.1289,-10.1289,-10.1289,-10.1289,-10.1597,-10.202,-10.2597,-10.3712,-10.4713,-10.5597,-10.6097,-10.6405,-10.6405,-10.6405,-10.5905,-5.624,-5.8182,-6.0613,-6.583,-6.8361,-7.0734,-7.505,-7.7342,-7.901,-8.0956,-8.2195,-8.3246,-8.433,-8.5975,-8.7619,-8.8959,-8.9151,-8.919,-8.9282,-8.9954,-9.0105,-8.9156,-8.9479,-8.9669,-8.9476,-8.9238,-8.9122,-8.9122,-8.9122,-8.9289,-8.9763,-8.9763,-9.0073,-9.08,-9.1639,-9.2056,-9.2056,-9.2056,-9.1787,-9.121,-9.1787,-9.1748,-9.121,-9.1787,-9.1748,-9.1248,-9.1825,-9.2518,-9.3326,-9.3595,-9.4018,-9.4518,-9.4249,-9.4287,-9.4595,-9.4864,-9.4441,-9.3749,-9.4057,-9.4326,-9.4518,-9.4249,-9.4941,-9.5865,-9.5865,-9.6057,-9.6288,-9.6288,-9.6288,-9.6288,-9.6288,-9.6288,-9.6288,-9.6288,-9.6288,-9.6288,-9.6288,-9.6711,-9.7096,-9.7096,-9.8481,-9.9635,-9.9635,-10.0596,-10.1212,-10.0904,-10.1096,-10.1212,-10.0904,-10.1096,-10.1289,-10.1289,-10.1289,-10.1289,-10.1289,-10.1289,-10.1289,-10.1289,-10.1289,-10.1289,-10.1289,-10.1289,-10.1597,-10.2212,-10.3289,-10.4212,-10.4713,-10.579,-10.6405,-10.6405,-10.6405,-10.5905,0.0,0.0,0.0,-6.3177,-6.4769,-6.6523,-7.2907,-7.5464,-7.6835,-7.7946,-8.0605,-8.2659,-8.2772,-8.3488,-8.4826,-8.7128,-8.7599,-8.7638,-8.7676,-8.8357,-8.8853,-8.8853,-8.8945,-8.9327,-8.9946,-8.9389,-8.9069,-8.9069,-8.9069,-8.9069,-8.9069,-8.9122,-8.9426,-9.0073,-9.0839,-9.121,-9.121,-9.121,-9.121,-9.121,-9.121,-9.121,-9.121,-9.121,-9.121,-9.121,-9.121,-9.1672,-9.2518,-9.3287,-9.3633,-9.3749,-9.4595,-9.4403,-9.3749,-9.4634,-9.4403,-9.3518,-9.2749,-9.3018,-9.3518,-9.2749,-9.3633,-9.4941,-9.4941,-9.5557,-9.6249,-9.6249,-9.6249,-9.6288,-9.6288,-9.6288,-9.6288,-9.6288,-9.6288,-9.6288,-9.6288,-9.6288,-9.6326,-9.6326,-9.7673,-9.8788,-9.8827,-10.0212,-10.1019,-10.0212,-10.0789,-10.1019,-10.0212,-10.0789,-10.1289,-10.1289,-10.1289,-10.1289,-10.1289,-10.1289,-10.1289,-10.1289,-10.1289,-10.1289,-10.1289,-10.1289,-10.1289,-10.1289,-10.2981,-10.3905,-10.3905,-10.5597,-10.6405,-10.6405,-10.629,-10.5905,-5.2123,0.0,0.0,0.0,0.0,0.0,-6.6934,-6.9082,-7.1257,-7.5068,-7.6511,-7.7866,-8.0178,-8.0867,-8.1583,-8.3329,-8.4971,-8.629,-8.7018,-8.7725,-8.8051,-8.7599,-8.8041,-8.8249,-8.7886,-8.7672,-8.7581,-8.7581,-8.7581,-8.7799,-8.8367,-8.9327,-8.9901,-9.0116,-9.0839,-9.121,-9.121,-9.121,-9.121,-9.121,-9.121,-9.121,-9.121,-9.121,-9.121,-9.121,-9.121,-9.1325,-9.1595,-9.1787,-9.2249,-9.2864,-9.3095,-9.3018,-9.2941,-9.3749,-9.3133,-9.1941,-9.2364,-9.2633,-9.2787,-9.2556,-9.321,-9.4057,-9.4057,-9.421,-9.4557,-9.5172,-9.5365,-9.548,-9.6134,-9.6288,-9.6288,-9.6288,-9.6288,-9.6288,-9.6288,-9.6288,-9.648,-9.7057,-9.8057,-9.8981,-9.9635,-10.0096,-10.0596,-10.0904,-10.1212,-10.1212,-10.1019,-10.1212,-10.1289,-10.1289,-10.1289,-10.1289,-10.1289,-10.1289,-10.1289,-10.1289,-10.1289,-10.1289,-10.1289,-10.1289,-10.1289,-10.1289,-10.2404,-10.3289,-10.3905,-10.5597,-10.6405,-10.6405,-10.5213,-10.4097,-5.238,-5.3445,-5.5023,-5.7666,0.0,0.0,-6.5264,-6.6769,-6.8385,-7.2569,-7.4221,-7.5506,-7.7414,-7.8589,-7.9584,-8.0474,-8.2276,-8.3994,-8.5222,-8.6275,-8.6705,-8.6,-8.6925,-8.747,-8.7045,-8.6979,-8.6995,-8.6995,-8.6995,-8.7163,-8.7618,-8.8691,-8.9389,-8.9669,-9.0406,-9.0876,-9.121,-9.121,-9.121,-9.121,-9.121,-9.121,-9.121,-9.121,-9.121,-9.121,-9.121,-9.121,-9.121,-9.121,-9.1518,-9.1979,-9.2364,-9.2287,-9.2056,-9.2903,-9.2364,-9.1287,-9.1787,-9.1979,-9.1979,-9.1979,-9.2518,-9.321,-9.321,-9.3441,-9.3787,-9.4287,-9.4711,-9.5095,-9.5634,-9.6019,-9.6288,-9.6288,-9.6288,-9.6288,-9.6288,-9.6288,-9.6442,-9.6903,-9.7673,-9.8404,-9.8942,-9.9596,-10.0289,-10.0712,-10.1096,-10.1289,-10.1289,-10.1289,-10.1289,-10.1289,-10.1289,-10.1289,-10.1289,-10.1289,-10.1289,-10.1289,-10.1289,-10.1289,-10.1289,-10.1289,-10.152,-10.1789,-10.2289,-10.302,-10.3905,-10.5213,-10.5905,-10.579,-10.4097,-10.3097,-5.3592,-5.4252,-5.5757,-5.9281,-5.9245,0.0,-6.5485,-6.6329,-6.6806,-6.9889,-7.2239,-7.3817,-7.4184,-7.613,-7.7671,-7.7781,-7.936,-8.1155,-8.2846,-8.4413,-8.5157,-8.4488,-8.577,-8.6782,-8.6771,-8.6841,-8.6921,-8.6995,-8.6995,-8.6995,-8.6995,-8.7709,-8.8426,-8.9069,-8.9763,-9.0447,-9.121,-9.121,-9.121,-9.121,-9.121,-9.121,-9.121,-9.121,-9.121,-9.121,-9.121,-9.121,-9.121,-9.121,-9.121,-9.1287,-9.2172,-9.1979,-9.1325,-9.2172,-9.1941,-9.121,-9.121,-9.121,-9.121,-9.121,-9.171,-9.2364,-9.2364,-9.2864,-9.3441,-9.3633,-9.4326,-9.5018,-9.5095,-9.5711,-9.6288,-9.6288,-9.6288,-9.6288,-9.6288,-9.6288,-9.6288,-9.6288,-9.6865,-9.7403,-9.748,-9.8865,-9.9981,-10.0096,-10.0789,-10.1289,-10.1289,-10.1289,-10.1289,-10.1289,-10.1289,-10.1289,-10.1289,-10.1289,-10.1289,-10.1289,-10.1289,-10.1289,-10.1289,-10.1289,-10.1712,-10.2404,-10.2597,-10.2981,-10.3789,-10.4713,-10.4982,-10.4789,-10.3405,-10.2597,-5.6124,-5.7189,-5.8327,-5.8437,-5.9685,0.0,-6.086,-6.1741,-6.3099,-6.5081,-6.5888,-6.699,-6.9596,-7.0991,-7.1982,-7.2642,-7.5726,-7.9055,-8.2002,-8.3217,-8.4027,-8.4506,-8.4889,-8.53,-8.5942,-8.6066,-8.6297,-8.6958,-8.6995,-8.6995,-8.6995,-8.7709,-8.8426,-8.9069,-8.9763,-9.0447,-9.121,-9.121,-9.121,-9.121,-9.121,-9.121,-9.121,-9.121,-9.121,-9.121,-9.121,-9.121,-9.121,-9.121,-9.121,-9.1287,-9.2172,-9.1979,-9.1325,-9.2172,-9.1941,-9.121,-9.121,-9.121,-9.121,-9.121,-9.1325,-9.1441,-9.1441,-9.1556,-9.1979,-9.3326,-9.4326,-9.5172,-9.5865,-9.6172,-9.6288,-9.6288,-9.6288,-9.6288,-9.6288,-9.6288,-9.6288,-9.6288,-9.6442,-9.6749,-9.7403,-9.8365,-9.9288,-9.9981,-10.0789,-10.1289,-10.1289,-10.1289,-10.1289,-10.1289,-10.1289,-10.1289,-10.1289,-10.1289,-10.1289,-10.1289,-10.1289,-10.1289,-10.1289,-10.1289,-10.1404,-10.1597,-10.2212,-10.2712,-10.2904,-10.4405,-10.4405,-10.3097,-10.3482,-10.2904,-5.8217,-5.8621,-5.9318,-5.9685,-6.0382,0.0,0.0,-6.163,-6.2291,-6.4787,-6.464,-6.4824,-6.7247,-6.8678,-6.9779,-7.0587,-7.4074,-7.7157,-7.8369,-8.1012,-8.281,-8.281,-8.3508,-8.4022,-8.3985,-8.4719,-8.5527,-8.6334,-8.6775,-8.6995,-8.6995,-8.7328,-8.7861,-8.856,-8.9238,-8.9939,-9.0646,-9.1026,-9.121,-9.121,-9.121,-9.121,-9.121,-9.121,-9.121,-9.121,-9.121,-9.121,-9.121,-9.121,-9.121,-9.1248,-9.1672,-9.1595,-9.1248,-9.171,-9.1595,-9.121,-9.121,-9.121,-9.121,-9.121,-9.121,-9.121,-9.121,-9.121,-9.1479,-9.2749,-9.371,-9.4557,-9.5441,-9.598,-9.6288,-9.6288,-9.6288,-9.6288,-9.6288,-9.6288,-9.6288,-9.6288,-9.6288,-9.6442,-9.6826,-9.7942,-9.8942,-9.9365,-10.0519,-10.1289,-10.1289,-10.1289,-10.1289,-10.1289,-10.1289,-10.1289,-10.1289,-10.1289,-10.1289,-10.1289,-10.1289,-10.1289,-10.1289,-10.1289,-10.1289,-10.1289,-10.2212,-10.2404,-10.202,-10.3212,-10.3405,-10.2597,-10.2597,-10.2097,-6.0786,-6.0603,-6.097,-6.1484,-6.1704,-6.2034,0.0,0.0,0.0,-6.4824,-6.4273,-6.3833,-6.5301,-6.6623,-6.776,-6.8568,-7.2092,-7.4478,-7.3854,-7.7561,-8.0241,-8.0094,-8.1636,-8.2517,-8.2003,-8.3141,-8.4389,-8.549,-8.5894,-8.6297,-8.6738,-8.6921,-8.7328,-8.8046,-8.8617,-8.9225,-8.9901,-9.0526,-9.0876,-9.0989,-9.0989,-9.1064,-9.121,-9.121,-9.121,-9.121,-9.121,-9.121,-9.121,-9.121,-9.121,-9.121,-9.121,-9.121,-9.121,-9.121,-9.121,-9.121,-9.121,-9.121,-9.121,-9.121,-9.121,-9.1248,-9.1402,-9.1441,-9.1672,-9.2672,-9.3441,-9.4134,-9.5018,-9.5788,-9.6288,-9.6288,-9.6288,-9.6288,-9.6288,-9.6288,-9.6288,-9.6288,-9.6288,-9.6288,-9.6288,-9.7557,-9.8557,-9.8557,-9.9981,-10.1096,-10.1096,-10.1212,-10.1212,-10.1096,-10.1096,-10.1019,-10.0789,-10.0789,-10.0904,-10.1096,-10.1096,-10.1096,-10.1289,-10.1289,-10.1289,-10.1289,-10.202,-10.202,-10.1289,-10.202,-10.2289,-10.2289,-10.1789,-10.152,-6.4861,-6.5668,-6.5888,-6.2438,-6.4237,-6.5595,-6.086,0.0,-6.2365,-6.13,0.0,-6.108,-6.1998,0.0,0.0,-6.3503,-6.7063,-6.9706,-6.9596,-7.1908,-7.4368,-7.6423,-7.8772,-8.0461,-8.1085,-8.1305,-8.2333,-8.4572,-8.3508,-8.3691,-8.582,-8.6628,-8.7328,-8.8046,-8.813,-8.856,-8.9225,-8.9327,-8.9621,-9.0203,-9.0203,-9.0566,-9.121,-9.121,-9.121,-9.121,-9.121,-9.121,-9.121,-9.121,-9.121,-9.121,-9.121,-9.121,-9.121,-9.121,-9.121,-9.121,-9.121,-9.121,-9.121,-9.121,-9.121,-9.1325,-9.2133,-9.2364,-9.2672,-9.4249,-9.4788,-9.5057,-9.5942,-9.6249,-9.6288,-9.6288,-9.6288,-9.6288,-9.6288,-9.6288,-9.6288,-9.6288,-9.6288,-9.6288,-9.6288,-9.7057,-9.7634,-9.7634,-9.9135,-10.0212,-10.0212,-10.0904,-10.1019,-10.0289,-10.0212,-9.9904,-9.9135,-9.9096,-9.9404,-10.0212,-10.0212,-10.0596,-10.1289,-10.1289,-10.1289,-10.1289,-10.1404,-10.1404,-10.1289,-10.1404,-10.1404,-10.152,-10.2097,-10.202,-6.5521,-6.6145,-6.6476,-6.431,-6.5044,-6.5558,-6.2695,-6.2071,-6.2181,-6.2475,0.0,0.0,0.0,0.0,0.0,0.0,-6.6182,-6.8054,-6.7577,-6.9596,-7.1982,-7.4404,-7.5212,-7.6423,-7.8662,-7.9323,-8.0424,-8.237,-8.1893,-8.2553,-8.4976,-8.5857,-8.6685,-8.7423,-8.7898,-8.8249,-8.8503,-8.891,-8.9238,-8.9487,-8.9487,-8.9893,-9.0566,-9.0566,-9.08,-9.121,-9.121,-9.121,-9.121,-9.121,-9.121,-9.121,-9.121,-9.121,-9.121,-9.121,-9.121,-9.121,-9.121,-9.121,-9.121,-9.121,-9.121,-9.1287,-9.1633,-9.2095,-9.2749,-9.3903,-9.4595,-9.5211,-9.6057,-9.6288,-9.6288,-9.6288,-9.6288,-9.6288,-9.6288,-9.6288,-9.6288,-9.6288,-9.6288,-9.6288,-9.6288,-9.698,-9.7519,-9.7519,-9.8557,-9.9327,-9.9327,-9.9635,-9.9712,-9.9365,-9.9327,-9.9211,-9.8827,-9.8788,-9.8942,-9.9327,-9.9327,-9.9942,-10.1212,-10.0904,-10.0789,-10.1289,-10.1289,-10.1289,-10.1289,-10.1289,-10.1289,-10.1289,-10.1712,-10.1597,-6.619,-6.6682,-6.7063,-6.5411,-6.5301,-6.5228,-6.3759,-6.2989,-6.2842,-6.3576,-6.2695,0.0,0.0,0.0,-6.2768,-6.3613,0.0,-6.6219,-6.5888,-6.7357,-6.9339,-7.1762,-7.2312,-7.3523,-7.6093,-7.6497,-7.7561,-7.9837,-7.958,-8.0681,-8.3765,-8.4903,-8.5857,-8.6664,-8.7378,-8.7773,-8.7773,-8.8271,-8.8636,-8.8801,-8.8801,-8.9173,-8.9855,-9.0028,-9.0367,-9.0914,-9.11,-9.121,-9.121,-9.121,-9.121,-9.121,-9.121,-9.121,-9.121,-9.121,-9.121,-9.121,-9.121,-9.121,-9.121,-9.121,-9.121,-9.1287,-9.1748,-9.2326,-9.3056,-9.4095,-9.4864,-9.548,-9.6134,-9.6288,-9.6288,-9.6288,-9.6288,-9.6249,-9.6019,-9.6134,-9.6172,-9.5672,-9.598,-9.6134,-9.5672,-9.648,-9.7173,-9.7173,-9.7904,-9.8442,-9.8442,-9.8634,-9.8711,-9.8481,-9.8442,-9.8365,-9.8134,-9.8096,-9.8211,-9.8442,-9.8673,-9.9442,-10.0904,-10.0404,-10.0481,-10.1289,-10.1289,-10.1289,-10.1289,-10.1289,-10.1289,-10.1289,-10.1289,-10.1289,-6.7847,-6.8699,-6.9045,-6.5118,-6.5301,-6.5632,-6.2401,-6.3503,-6.4751,-6.3172,-6.409,-6.4677,-6.3099,-6.2144,-6.1887,-6.2732,-6.2915,0.0,0.0,-6.4237,-6.5191,-6.7614,-7.0624,-7.2863,-7.3707,-7.2422,-7.3193,-7.7157,-7.5983,-7.7194,-8.2003,-8.3765,-8.5013,-8.582,-8.6591,-8.7064,-8.7064,-8.7064,-8.746,-8.8167,-8.8167,-8.8503,-8.9136,-8.9809,-9.0116,-9.016,-9.0876,-9.121,-9.121,-9.121,-9.121,-9.121,-9.121,-9.121,-9.121,-9.121,-9.121,-9.121,-9.121,-9.121,-9.121,-9.121,-9.121,-9.1518,-9.3133,-9.3633,-9.4018,-9.5749,-9.6249,-9.6249,-9.6288,-9.6288,-9.6288,-9.6288,-9.6288,-9.6057,-9.5211,-9.5711,-9.5788,-9.4095,-9.5134,-9.5749,-9.4057,-9.5211,-9.6326,-9.6326,-9.7019,-9.7557,-9.7557,-9.8288,-9.8481,-9.7634,-9.7557,-9.725,-9.6442,-9.6365,-9.6711,-9.748,-9.8327,-9.9211,-10.0096,-10.0096,-10.0481,-10.1289,-10.1289,-10.1289,-10.1289,-10.1289,-10.1289,-10.1289,-10.1289,-10.1289,-6.813,-6.9115,-6.9441,-6.7066,-6.688,-6.6586,-6.387,-6.431,-6.4824,-6.3172,-6.4127,-6.4787,-6.3135,-6.2585,-6.2475,-6.2768,-6.2365,-6.2291,0.0,-6.3723,-6.4383,-6.5191,-6.8164,-7.022,-7.0513,-7.0513,-7.1725,-7.4698,-7.4404,-7.6019,-8.0351,-8.215,-8.3618,-8.4976,-8.5783,-8.6481,-8.6995,-8.6995,-8.7132,-8.7394,-8.7394,-8.7773,-8.8446,-8.8636,-8.9238,-9.0116,-9.0367,-9.0762,-9.121,-9.121,-9.121,-9.121,-9.121,-9.121,-9.121,-9.121,-9.121,-9.121,-9.121,-9.121,-9.121,-9.121,-9.1595,-9.2056,-9.2056,-9.321,-9.4557,-9.4595,-9.5403,-9.6172,-9.5595,-9.5865,-9.6019,-9.4864,-9.5018,-9.5211,-9.4326,-9.4364,-9.4403,-9.3787,-9.4172,-9.4403,-9.3787,-9.4172,-9.4595,-9.4595,-9.4826,-9.5172,-9.5749,-9.6095,-9.6403,-9.6673,-9.6711,-9.6596,-9.6326,-9.6288,-9.6634,-9.7442,-9.7288,-9.7788,-9.9173,-9.8673,-9.8788,-9.9635,-10.0212,-10.0481,-10.0481,-10.1019,-10.1289,-10.1289,-10.1289,-10.1289,-6.8288,-6.8908,-6.9146,-6.7913,-6.7367,-6.6598,-6.494,-6.5128,-6.5313,-6.3965,-6.4567,-6.5154,-6.464,-6.3613,-6.2915,-6.3209,-6.2328,-6.1667,0.0,-6.2695,-6.3319,-6.3613,-6.6256,-6.8164,-6.8458,-6.8678,-7.0073,-7.3046,-7.301,-7.4625,-7.8699,-8.0718,-8.2517,-8.4132,-8.5233,-8.6187,-8.6995,-8.6995,-8.6995,-8.6995,-8.6995,-8.7231,-8.7709,-8.7985,-8.8691,-8.9763,-8.9763,-9.0284,-9.121,-9.0914,-9.0989,-9.121,-9.121,-9.121,-9.121,-9.121,-9.121,-9.121,-9.121,-9.121,-9.121,-9.121,-9.1787,-9.2402,-9.1825,-9.321,-9.4864,-9.4326,-9.5172,-9.6095,-9.5211,-9.5403,-9.548,-9.4018,-9.4134,-9.4287,-9.3441,-9.348,-9.3518,-9.2941,-9.3287,-9.3518,-9.2903,-9.3056,-9.3364,-9.3672,-9.371,-9.4018,-9.4864,-9.4711,-9.498,-9.6172,-9.6019,-9.5942,-9.6288,-9.6288,-9.6519,-9.7057,-9.6596,-9.6903,-9.8288,-9.7788,-9.7904,-9.8788,-9.9327,-9.9788,-10.0096,-10.0596,-10.1019,-10.1289,-10.1289,-10.1289]}]]